[[{"header":{"parameterUnit":"m.s-1","parameterCategory":1,"la1":31.0,"la2":29.5877,"lo1":-88.7671,"lo2":-86.6584,"dy":0.0162,"dx":0.0185,"nx":115,"ny":88,"refTime":"2023-03-26T06:00:00:Z","depth":0,"parameterNumber":2,"parameterNumberName":"U-component_of_WINDS"},"data":[0.0,0.0,0.0,0.0,0.0,0.0,0.0,0.0,0.0,0.0,0.0,0.0,0.0,0.0,0.0,0.0,0.0,0.0,0.0,0.0,0.0,0.0,0.0,0.0,0.0,0.0,0.0,0.0,0.0,0.0,0.0,0.0,0.0,0.0,0.0,0.0,0.0,0.0,0.0,0.0,0.0,0.0,0.0,0.0,0.0,0.0,0.0,0.0,0.0,0.0,0.0,0.0,0.0,0.0,0.0,0.0,0.0,0.0,0.0,0.0,0.0,0.0,0.0,0.0,0.0,0.0,0.0,0.0,0.0,0.0,0.0,0.0,0.0,0.0,0.0,0.0,0.0,0.0,0.0,0.0,0.0,0.0,0.0,0.0,0.0,0.0,0.0,0.0,0.0,0.0,0.0,0.0,0.0,0.0,0.0,0.0,0.0,0.0,0.0,0.0,0.0,0.0,0.0,0.0,0.0,0.0,0.0,0.0,0.0,0.0,0.0,0.0,0.0,0.0,0.0,0.0,0.0,0.0,0.0,0.0,0.0,0.0,0.0,0.0,0.0,0.0,0.0,0.0,0.0,0.0,0.0,0.0,0.0,0.0,0.0,0.0,0.0,0.0,0.0,0.0,0.0,0.0,0.0,0.0,0.0,0.0,0.0,0.0,0.0,0.0,0.0,0.0,0.0,0.0,0.0,0.0,0.0,0.0,0.0,0.0,0.0,0.0,0.0,0.0,0.0,0.0,0.0,0.0,0.0,0.0,0.0,0.0,0.0,0.0,0.0,0.0,0.0,0.0,0.0,0.0,0.0,0.0,0.0,0.0,0.0,0.0,0.0,0.0,0.0,0.0,0.0,0.0,0.0,0.0,0.0,0.0,0.0,0.0,0.0,0.0,0.0,0.0,0.0,0.0,0.0,0.0,0.0,0.0,0.0,0.0,0.0,0.0,0.0,0.0,0.0,0.0,0.0,0.0,0.0,0.0,0.0,0.0,0.0,0.0,0.0,0.0,0.0,0.0,0.0,0.0,0.0,0.0,0.0,0.0,0.0,0.0,0.0,0.0,0.0,0.0,0.0,0.0,0.0,0.0,0.0,0.0,0.0,0.0,0.0,0.0,0.0,0.0,0.0,0.0,0.0,0.0,0.0,0.0,0.0,0.0,0.0,0.0,0.0,0.0,0.0,0.0,0.0,0.0,0.0,0.0,0.0,0.0,0.0,0.0,0.0,0.0,0.0,0.0,0.0,0.0,0.0,0.0,0.0,0.0,0.0,0.0,0.0,0.0,0.0,0.0,0.0,0.0,0.0,0.0,0.0,0.0,0.0,0.0,0.0,0.0,0.0,0.0,0.0,0.0,0.0,0.0,0.0,0.0,0.0,0.0,0.0,0.0,0.0,0.0,0.0,0.0,0.0,0.0,0.0,0.0,0.0,0.0,0.0,0.0,0.0,0.0,0.0,0.0,0.0,0.0,0.0,0.0,0.0,0.0,0.0,0.0,0.0,0.0,0.0,0.0,0.0,0.0,0.0,0.0,0.0,0.0,0.0,0.0,0.0,0.0,0.0,0.0,0.0,0.0,0.0,0.0,0.0,0.0,0.0,0.0,0.0,0.0,0.0,0.0,0.0,0.0,0.0,0.0,0.0,0.0,0.0,0.0,0.0,0.0,0.0,0.0,0.0,0.0,0.0,0.0,0.0,0.0,0.0,0.0,0.0,0.0,0.0,0.0,0.0,0.0,0.0,0.0,0.0,0.0,0.0,0.0,0.0,0.0,0.0,0.0,0.0,0.0,0.0,0.0,0.0,0.0,0.0,0.0,0.0,0.0,0.0,0.0,0.0,0.0,0.0,0.0,0.0,0.0,0.0,0.0,0.0,0.0,0.0,0.0,0.0,0.0,0.0,0.0,0.0,0.0,0.0,0.0,0.0,0.0,0.0,0.0,0.0,0.0,0.0,0.0,0.0,0.0,0.0,0.0,0.0,0.0,0.0,0.0,0.0,0.0,0.0,0.0,0.0,0.0,0.0,0.0,0.0,0.0,0.0,0.0,0.0,0.0,0.0,0.0,0.0,0.0,0.0,0.0,0.0,0.0,0.0,0.0,0.0,0.0,0.0,0.0,0.0,0.0,0.0,0.0,0.0,0.0,0.0,0.0,0.0,0.0,0.0,0.0,0.0,0.0,0.0,0.0,0.0,0.0,0.0,0.0,0.0,0.0,0.0,0.0,0.0,0.0,0.0,0.0,0.0,0.0,0.0,0.0,0.0,0.0,0.0,0.0,0.0,0.0,0.0,0.0,0.0,0.0,0.0,0.0,0.0,0.0,0.0,0.0,0.0,0.0,0.0,0.0,0.0,0.0,0.0,0.0,0.0,0.0,0.0,0.0,0.0,0.0,0.0,0.0,0.0,0.0,0.0,0.0,0.0,0.0,0.0,0.0,0.0,0.0,0.0,0.0,0.0,0.0,0.0,0.0,0.0,0.0,0.0,0.0,0.0,0.0,0.0,0.0,0.0,0.0,0.0,0.0,0.0,0.0,0.0,0.0,0.0,0.0,0.0,0.0,0.0,0.0,0.0,0.0,0.0,0.0,0.0,0.0,0.0,0.0,0.0,0.0,0.0,0.0,0.0,0.0,0.0,0.0,0.0,0.0,0.0,0.0,0.0,0.0,0.0,0.0,0.0,0.0,0.0,0.0,0.0,0.0,0.0,0.0,0.0,0.0,0.0,0.0,0.0,0.0,0.0,0.0,0.0,0.0,0.0,0.0,0.0,0.0,0.0,0.0,0.0,0.0,0.0,0.0,0.0,0.0,0.0,0.0,0.0,0.0,0.0,0.0,0.0,0.0,0.0,0.0,0.0,0.0,0.0,0.0,0.0,0.0,0.0,0.0,0.0,0.0,0.0,0.0,0.0,0.0,0.0,0.0,0.0,0.0,0.0,0.0,0.0,0.0,0.0,0.0,0.0,0.0,0.0,0.0,0.0,0.0,0.0,0.0,0.0,0.0,0.0,0.0,0.0,0.0,0.0,0.0,0.0,0.0,0.0,0.0,0.0,0.0,0.0,0.0,0.0,0.0,0.0,0.0,0.0,0.0,0.0,0.0,0.0,0.0,0.0,0.0,0.0,0.0,0.0,0.0,0.0,0.0,0.0,0.0,0.0,0.0,0.0,0.0,0.0,0.0,0.0,0.0,0.0,0.0,0.0,0.0,0.0,0.0,0.0,0.0,0.0,0.0,0.0,0.0,0.0,0.0,0.0,0.0,0.0,0.0,0.0,0.0,0.0,0.0,0.0,0.0,0.0,0.0,0.0,0.0,0.0,0.0,0.0,0.0,0.0,0.0,0.0,0.0,0.0,0.0,0.0,0.0,0.0,0.0,0.0,0.0,0.0,0.0,0.0,0.0,0.0,0.0,0.0,0.0,0.0,0.0,0.0,0.0,0.0,0.0,0.0,0.0,0.0,0.0,0.0,0.0,0.0,0.0,0.0,0.0,0.0,0.0,0.0,0.0,0.0,0.0,0.0,0.0,0.0,0.0,0.0,0.0,0.0,0.0,0.0,0.0,0.0,0.0,0.0,0.0,0.0,0.0,0.0,0.0,0.0,0.0,0.0,0.0,0.0,0.0,0.0,0.0,0.0,0.0,0.0,0.0,0.0,0.0,0.0,0.0,0.0,0.0,0.0,0.0,0.0,0.0,0.0,0.0,0.0,0.0,0.0,0.0,0.0,0.0,0.0,0.0,0.0,0.0,0.0,0.0,0.0,0.0,0.0,0.0,0.0,0.0,0.0,0.0,0.0,0.0,0.0,0.0,0.0,0.0,0.0,0.0,0.0,0.0,0.0,0.0,0.0,0.0,0.0,0.0,0.0,0.0,0.0,0.0,0.0,0.0,0.0,0.0,0.0,0.0,0.0,0.0,0.0,0.0,0.0,0.0,0.0,0.0,0.0,0.0,0.0,0.0,0.0,0.0,0.0,0.0,0.0,0.0,0.0,0.0,0.0,0.0,0.0,0.0,0.0,0.0,0.0,0.0,0.0,0.0,0.0,0.0,0.0,0.0,0.0,0.0,0.0,0.0,0.0,0.0,0.0,0.0,0.0,0.0,0.0,0.0,0.0,0.0,0.0,0.0,0.0,0.0,0.0,0.0,0.0,0.0,0.0,0.0,0.0,0.0,0.0,0.0,0.0,0.0,0.0,0.0,0.0,0.0,0.0,0.0,0.0,0.0,0.0,0.0,0.0,0.0,0.0,0.0,0.0,0.0,0.0,0.0,0.0,0.0,0.0,0.0,2.7585,0.0,0.0,0.0,0.0,0.0,0.0,0.0,0.0,0.0,0.0,0.0,0.0,0.0,0.0,0.0,0.0,0.0,0.0,0.0,0.0,0.0,0.0,0.0,0.0,0.0,0.0,0.0,0.0,0.0,0.0,0.0,0.0,0.0,0.0,0.0,0.0,0.0,0.0,0.0,0.0,0.0,0.0,0.0,0.0,0.0,0.0,0.0,0.0,0.0,0.0,0.0,0.0,0.0,0.0,0.0,0.0,0.0,0.0,0.0,0.0,0.0,0.0,0.0,0.0,0.0,0.0,0.0,0.0,0.0,0.0,0.0,0.0,0.0,0.0,0.0,0.0,0.0,0.0,0.0,0.0,0.0,0.0,0.0,0.0,0.0,0.0,0.0,0.0,0.0,0.0,0.0,0.0,0.0,0.0,0.0,0.0,0.0,0.0,0.0,0.0,0.0,0.0,0.0,0.0,0.0,0.0,0.0,0.0,0.0,0.0,2.7585,2.7585,2.7585,2.7562,2.7501,0.0,0.0,0.0,0.0,0.0,0.0,0.0,0.0,0.0,0.0,0.0,0.0,0.0,0.0,0.0,0.0,0.0,0.0,0.0,0.0,0.0,0.0,0.0,0.0,0.0,0.0,0.0,0.0,0.0,0.0,0.0,0.0,0.0,0.0,0.0,0.0,0.0,0.0,0.0,0.0,0.0,0.0,0.0,0.0,0.0,0.0,0.0,0.0,0.0,0.0,0.0,0.0,0.0,0.0,0.0,0.0,0.0,0.0,0.0,0.0,0.0,0.0,0.0,0.0,0.0,0.0,0.0,0.0,0.0,0.0,0.0,0.0,0.0,0.0,0.0,0.0,0.0,0.0,0.0,0.0,0.0,0.0,0.0,0.0,0.0,0.0,0.0,0.0,0.0,0.0,0.0,0.0,0.0,0.0,0.0,0.0,0.0,0.0,0.0,0.0,0.0,0.0,0.0,0.0,0.0,0.0,0.0,0.0,0.0,0.0,0.0,0.0,2.7585,2.7552,2.7401,0.0,0.0,0.0,0.0,0.0,0.0,0.0,0.0,0.0,0.0,0.0,0.0,0.0,0.0,0.0,0.0,0.0,0.0,0.0,0.0,0.0,0.0,0.0,0.0,0.0,0.0,0.0,0.0,0.0,0.0,0.0,0.0,0.0,0.0,0.0,0.0,0.0,0.0,0.0,0.0,0.0,0.0,0.0,0.0,0.0,0.0,0.0,0.0,0.0,0.0,0.0,0.0,0.0,0.0,0.0,0.0,0.0,0.0,0.0,0.0,0.0,0.0,0.0,0.0,0.0,0.0,0.0,0.0,0.0,0.0,0.0,0.0,0.0,0.0,0.0,0.0,0.0,0.0,0.0,0.0,0.0,0.0,0.0,0.0,0.0,0.0,0.0,0.0,0.0,0.0,0.0,0.0,0.0,0.0,0.0,0.0,0.0,0.0,0.0,0.0,0.0,0.0,0.0,0.0,0.0,0.0,0.0,0.0,0.0,0.0,2.7585,2.7585,2.7585,0.0,2.7399,0.0,0.0,0.0,0.0,0.0,0.0,0.0,0.0,0.0,0.0,0.0,0.0,0.0,0.0,0.0,0.0,0.0,0.0,0.0,0.0,0.0,0.0,0.0,0.0,0.0,0.0,0.0,0.0,0.0,0.0,0.0,0.0,0.0,0.0,0.0,0.0,0.0,0.0,0.0,0.0,0.0,0.0,0.0,0.0,0.0,0.0,0.0,0.0,0.0,0.0,0.0,0.0,0.0,0.0,0.0,0.0,0.0,0.0,0.0,0.0,0.0,0.0,0.0,0.0,0.0,0.0,0.0,0.0,0.0,0.0,0.0,0.0,0.0,0.0,0.0,0.0,0.0,0.0,0.0,0.0,0.0,0.0,0.0,0.0,0.0,0.0,0.0,0.0,0.0,0.0,0.0,0.0,0.0,0.0,0.0,0.0,0.0,0.0,0.0,0.0,0.0,0.0,0.0,0.0,0.0,0.0,0.0,0.0,0.0,0.0,2.7511,2.7585,2.7511,2.7271,0.0,0.0,0.0,0.0,0.0,0.0,0.0,0.0,0.0,0.0,0.0,0.0,0.0,0.0,0.0,0.0,0.0,0.0,0.0,0.0,0.0,0.0,0.0,0.0,0.0,0.0,0.0,0.0,0.0,0.0,0.0,0.0,0.0,0.0,0.0,0.0,0.0,0.0,0.0,0.0,0.0,0.0,0.0,0.0,0.0,0.0,0.0,0.0,0.0,0.0,0.0,0.0,0.0,0.0,0.0,0.0,0.0,0.0,0.0,0.0,0.0,0.0,0.0,0.0,0.0,0.0,0.0,0.0,0.0,0.0,0.0,0.0,0.0,0.0,0.0,0.0,0.0,0.0,0.0,0.0,0.0,0.0,0.0,0.0,0.0,0.0,0.0,0.0,0.0,0.0,0.0,0.0,0.0,0.0,0.0,0.0,0.0,0.0,0.0,0.0,0.0,0.0,0.0,0.0,0.0,0.0,0.0,0.0,0.0,0.0,2.735,2.7425,2.7587,2.7335,2.7036,2.6726,0.0,0.0,0.0,0.0,0.0,0.0,0.0,0.0,0.0,0.0,0.0,0.0,0.0,0.0,0.0,0.0,0.0,0.0,0.0,0.0,0.0,0.0,0.0,0.0,0.0,0.0,0.0,0.0,0.0,0.0,0.0,0.0,0.0,0.0,0.0,0.0,0.0,0.0,0.0,0.0,0.0,0.0,0.0,0.0,0.0,0.0,0.0,0.0,0.0,0.0,0.0,0.0,0.0,0.0,0.0,0.0,0.0,0.0,0.0,0.0,0.0,0.0,0.0,0.0,0.0,0.0,0.0,0.0,0.0,0.0,0.0,0.0,0.0,0.0,0.0,0.0,0.0,0.0,0.0,0.0,0.0,0.0,0.0,0.0,0.0,0.0,0.0,0.0,0.0,0.0,0.0,0.0,0.0,0.0,0.0,0.0,0.0,0.0,0.0,0.0,0.0,0.0,0.0,0.0,0.0,0.0,0.0,0.0,2.7194,2.7207,2.7348,2.7557,2.6988,2.6916,0.0,0.0,0.0,0.0,0.0,0.0,0.0,0.0,0.0,0.0,0.0,0.0,0.0,0.0,0.0,0.0,0.0,0.0,0.0,0.0,0.0,0.0,0.0,0.0,0.0,0.0,0.0,0.0,0.0,0.0,0.0,0.0,0.0,0.0,0.0,0.0,0.0,0.0,0.0,0.0,0.0,0.0,0.0,0.0,0.0,0.0,0.0,0.0,0.0,0.0,0.0,0.0,0.0,0.0,0.0,0.0,0.0,0.0,0.0,0.0,0.0,0.0,0.0,0.0,0.0,0.0,0.0,0.0,0.0,0.0,0.0,0.0,0.0,0.0,0.0,0.0,0.0,0.0,0.0,0.0,0.0,0.0,0.0,0.0,0.0,0.0,0.0,0.0,0.0,0.0,0.0,0.0,0.0,0.0,0.0,0.0,0.0,0.0,0.0,0.0,0.0,0.0,0.0,0.0,0.0,0.0,0.0,0.0,0.0,2.6642,2.7152,2.7254,2.6867,2.7163,2.6849,0.0,0.0,0.0,0.0,0.0,0.0,0.0,0.0,0.0,0.0,0.0,0.0,0.0,0.0,0.0,0.0,0.0,0.0,0.0,0.0,0.0,0.0,0.0,0.0,0.0,0.0,0.0,0.0,0.0,0.0,0.0,0.0,0.0,0.0,0.0,0.0,0.0,0.0,0.0,0.0,0.0,0.0,0.0,0.0,0.0,0.0,0.0,0.0,0.0,0.0,0.0,0.0,0.0,0.0,0.0,0.0,0.0,0.0,0.0,0.0,0.0,0.0,0.0,0.0,0.0,0.0,0.0,0.0,0.0,0.0,0.0,0.0,0.0,0.0,0.0,0.0,0.0,0.0,0.0,0.0,0.0,0.0,0.0,0.0,0.0,0.0,0.0,0.0,0.0,0.0,0.0,0.0,0.0,0.0,0.0,0.0,0.0,0.0,0.0,0.0,0.0,0.0,0.0,0.0,0.0,0.0,0.0,0.0,0.0,2.6122,0.0,2.692,2.661,2.6991,2.662,0.0,0.0,0.0,0.0,0.0,0.0,0.0,0.0,0.0,0.0,0.0,0.0,0.0,0.0,0.0,0.0,0.0,0.0,0.0,0.0,0.0,0.0,0.0,0.0,0.0,0.0,0.0,0.0,0.0,0.0,0.0,0.0,0.0,0.0,0.0,0.0,0.0,0.0,0.0,0.0,0.0,0.0,0.0,0.0,0.0,0.0,0.0,0.0,0.0,0.0,0.0,0.0,0.0,0.0,0.0,0.0,0.0,0.0,0.0,0.0,0.0,0.0,0.0,0.0,0.0,0.0,0.0,0.0,0.0,0.0,0.0,0.0,0.0,0.0,0.0,0.0,0.0,0.0,0.0,0.0,0.0,0.0,0.0,0.0,0.0,0.0,0.0,0.0,0.0,0.0,0.0,0.0,0.0,0.0,0.0,0.0,0.0,0.0,0.0,0.0,0.0,0.0,0.0,0.0,0.0,0.0,0.0,0.0,2.5397,2.5715,2.6002,2.639,2.6859,2.6383,2.6285,0.0,0.0,0.0,0.0,0.0,0.0,0.0,0.0,0.0,0.0,0.0,0.0,0.0,0.0,0.0,0.0,0.0,0.0,0.0,0.0,0.0,0.0,0.0,0.0,0.0,0.0,0.0,0.0,0.0,0.0,0.0,0.0,0.0,0.0,0.0,0.0,0.0,0.0,0.0,0.0,0.0,0.0,0.0,0.0,0.0,0.0,0.0,0.0,0.0,0.0,0.0,0.0,0.0,0.0,0.0,0.0,0.0,0.0,0.0,0.0,0.0,0.0,0.0,0.0,0.0,0.0,0.0,0.0,0.0,0.0,0.0,0.0,0.0,0.0,0.0,0.0,0.0,0.0,0.0,0.0,0.0,0.0,0.0,0.0,0.0,0.0,0.0,0.0,0.0,0.0,0.0,0.0,0.0,0.0,0.0,0.0,0.0,0.0,0.0,0.0,0.0,0.0,0.0,0.0,0.0,0.0,0.0,0.0,0.0,2.626,2.6338,2.6348,2.6316,2.6741,2.6572,0.0,0.0,0.0,0.0,0.0,0.0,0.0,0.0,0.0,0.0,0.0,0.0,0.0,0.0,0.0,0.0,0.0,0.0,0.0,0.0,0.0,0.0,0.0,0.0,0.0,0.0,0.0,0.0,0.0,0.0,0.0,0.0,0.0,0.0,0.0,0.0,0.0,0.0,0.0,0.0,0.0,0.0,0.0,0.0,0.0,0.0,0.0,0.0,0.0,0.0,0.0,0.0,0.0,0.0,0.0,0.0,0.0,0.0,0.0,0.0,0.0,0.0,0.0,0.0,0.0,0.0,0.0,0.0,0.0,0.0,0.0,0.0,0.0,0.0,0.0,0.0,0.0,0.0,0.0,0.0,0.0,0.0,0.0,0.0,0.0,0.0,0.0,0.0,0.0,0.0,0.0,0.0,0.0,0.0,0.0,0.0,0.0,0.0,0.0,0.0,0.0,0.0,0.0,0.0,0.0,0.0,0.0,0.0,0.0,2.6396,2.6455,2.6355,2.6069,2.6828,2.6698,2.5641,0.0,0.0,0.0,0.0,0.0,0.0,0.0,0.0,0.0,0.0,0.0,0.0,0.0,0.0,0.0,0.0,0.0,0.0,0.0,0.0,0.0,0.0,0.0,0.0,0.0,0.0,0.0,0.0,0.0,0.0,0.0,0.0,0.0,0.0,0.0,0.0,0.0,0.0,0.0,0.0,0.0,0.0,0.0,0.0,0.0,0.0,0.0,0.0,0.0,0.0,0.0,0.0,0.0,0.0,0.0,0.0,0.0,0.0,0.0,0.0,0.0,0.0,0.0,0.0,0.0,0.0,0.0,0.0,0.0,0.0,0.0,0.0,0.0,0.0,0.0,0.0,0.0,0.0,0.0,0.0,0.0,0.0,0.0,0.0,0.0,0.0,0.0,0.0,0.0,0.0,0.0,0.0,0.0,0.0,0.0,0.0,0.0,0.0,0.0,0.0,0.0,0.0,0.0,0.0,0.0,0.0,0.0,0.0,2.6191,2.646,2.6472,2.6235,2.6651,2.6668,0.0,0.0,0.0,0.0,0.0,0.0,0.0,0.0,0.0,0.0,0.0,0.0,0.0,0.0,0.0,0.0,0.0,0.0,0.0,0.0,0.0,0.0,0.0,0.0,0.0,0.0,0.0,0.0,0.0,0.0,0.0,0.0,0.0,0.0,0.0,0.0,0.0,0.0,0.0,0.0,0.0,0.0,0.0,0.0,0.0,0.0,0.0,0.0,0.0,0.0,0.0,0.0,0.0,0.0,0.0,0.0,0.0,0.0,0.0,0.0,0.0,0.0,0.0,0.0,0.0,0.0,0.0,0.0,0.0,0.0,0.0,0.0,0.0,0.0,0.0,0.0,0.0,0.0,0.0,0.0,0.0,0.0,0.0,0.0,0.0,0.0,0.0,0.0,0.0,0.0,0.0,0.0,0.0,0.0,0.0,0.0,0.0,0.0,0.0,0.0,0.0,0.0,0.0,0.0,0.0,0.0,0.0,0.0,0.0,2.6297,2.7157,2.7307,2.655,2.6558,2.6694,0.0,0.0,0.0,0.0,0.0,0.0,0.0,0.0,0.0,0.0,0.0,0.0,0.0,0.0,0.0,0.0,0.0,0.0,0.0,0.0,0.0,0.0,0.0,0.0,0.0,0.0,0.0,0.0,0.0,0.0,0.0,0.0,0.0,0.0,0.0,0.0,0.0,0.0,0.0,0.0,0.0,0.0,0.0,0.0,0.0,0.0,0.0,0.0,0.0,0.0,0.0,0.0,0.0,0.0,0.0,0.0,0.0,0.0,0.0,0.0,0.0,0.0,0.0,0.0,0.0,0.0,0.0,0.0,0.0,0.0,0.0,0.0,0.0,0.0,0.0,0.0,0.0,0.0,0.0,0.0,0.0,0.0,0.0,0.0,0.0,0.0,0.0,0.0,0.0,0.0,0.0,0.0,0.0,0.0,0.0,0.0,0.0,0.0,0.0,0.0,0.0,0.0,0.0,0.0,0.0,0.0,0.0,0.0,2.7232,2.6022,2.6998,2.7222,2.6565,2.666,2.6759,0.0,0.0,0.0,0.0,0.0,0.0,0.0,0.0,0.0,0.0,0.0,0.0,0.0,0.0,0.0,0.0,0.0,0.0,0.0,0.0,0.0,0.0,0.0,0.0,0.0,0.0,0.0,0.0,0.0,0.0,0.0,0.0,0.0,0.0,0.0,0.0,0.0,0.0,0.0,0.0,0.0,0.0,0.0,0.0,0.0,0.0,0.0,0.0,0.0,0.0,0.0,0.0,0.0,0.0,0.0,0.0,0.0,0.0,0.0,0.0,0.0,0.0,0.0,0.0,0.0,0.0,0.0,0.0,0.0,0.0,0.0,0.0,0.0,0.0,0.0,0.0,0.0,0.0,0.0,0.0,0.0,0.0,0.0,0.0,0.0,0.0,0.0,0.0,0.0,0.0,0.0,0.0,0.0,0.0,0.0,0.0,0.0,0.0,0.0,0.0,0.0,0.0,0.0,0.0,0.0,0.0,0.0,0.0,2.6001,2.5725,2.6413,2.6718,2.6529,2.6793,2.6772,0.0,0.0,0.0,0.0,0.0,0.0,0.0,0.0,0.0,0.0,0.0,0.0,0.0,0.0,0.0,0.0,0.0,0.0,0.0,0.0,0.0,0.0,0.0,0.0,0.0,0.0,0.0,0.0,0.0,0.0,0.0,0.0,0.0,0.0,0.0,0.0,0.0,0.0,0.0,0.0,0.0,0.0,0.0,0.0,0.0,0.0,0.0,0.0,0.0,0.0,0.0,0.0,0.0,0.0,0.0,0.0,0.0,0.0,0.0,0.0,0.0,0.0,0.0,0.0,0.0,0.0,0.0,0.0,0.0,0.0,0.0,0.0,0.0,0.0,0.0,0.0,0.0,0.0,0.0,0.0,0.0,0.0,0.0,0.0,0.0,0.0,0.0,0.0,0.0,0.0,0.0,0.0,0.0,0.0,0.0,0.0,0.0,0.0,0.0,0.0,0.0,0.0,0.0,0.0,0.0,0.0,0.0,0.0,2.6096,2.58,2.6451,2.6706,2.6494,2.6519,2.6444,0.0,0.0,0.0,0.0,0.0,0.0,0.0,0.0,0.0,0.0,0.0,0.0,0.0,0.0,0.0,0.0,0.0,0.0,0.0,0.0,0.0,0.0,0.0,0.0,0.0,0.0,0.0,0.0,0.0,0.0,0.0,0.0,0.0,0.0,0.0,0.0,0.0,0.0,0.0,0.0,0.0,0.0,0.0,0.0,0.0,0.0,0.0,0.0,2.6873,0.0,0.0,0.0,0.0,0.0,0.0,0.0,0.0,0.0,0.0,0.0,0.0,0.0,0.0,0.0,0.0,0.0,0.0,0.0,0.0,0.0,0.0,0.0,0.0,0.0,0.0,0.0,0.0,0.0,0.0,0.0,0.0,0.0,0.0,0.0,0.0,0.0,0.0,0.0,0.0,0.0,0.0,0.0,0.0,0.0,0.0,0.0,0.0,0.0,0.0,0.0,0.0,0.0,0.0,0.0,0.0,0.0,0.0,0.0,2.5349,2.5373,2.555,2.5641,2.569,2.5482,2.5537,0.0,0.0,0.0,0.0,0.0,0.0,0.0,0.0,0.0,0.0,0.0,0.0,0.0,0.0,0.0,0.0,0.0,0.0,0.0,0.0,0.0,0.0,0.0,0.0,0.0,0.0,0.0,0.0,0.0,0.0,0.0,0.0,0.0,0.0,0.0,0.0,0.0,0.0,0.0,0.0,0.0,0.0,0.0,0.0,0.0,0.0,0.0,0.0,0.0,0.0,0.0,0.0,0.0,0.0,0.0,0.0,0.0,0.0,0.0,0.0,0.0,0.0,0.0,0.0,0.0,0.0,0.0,0.0,0.0,0.0,0.0,0.0,0.0,0.0,0.0,0.0,0.0,0.0,0.0,0.0,0.0,0.0,0.0,0.0,0.0,0.0,0.0,0.0,0.0,0.0,0.0,0.0,0.0,0.0,0.0,0.0,0.0,0.0,0.0,0.0,0.0,0.0,0.0,0.0,0.0,0.0,0.0,2.4411,2.448,2.4895,2.4562,2.4595,2.4964,2.4655,2.4879,2.5637,0.0,0.0,0.0,0.0,0.0,0.0,0.0,0.0,0.0,0.0,0.0,0.0,0.0,0.0,0.0,0.0,0.0,0.0,0.0,0.0,0.0,0.0,0.0,0.0,0.0,0.0,0.0,0.0,0.0,0.0,0.0,0.0,0.0,0.0,0.0,0.0,0.0,0.0,2.3341,2.4045,0.0,0.0,0.0,0.0,0.0,0.0,0.0,0.0,2.5937,0.0,0.0,0.0,0.0,0.0,0.0,0.0,0.0,0.0,0.0,0.0,0.0,0.0,0.0,0.0,0.0,0.0,0.0,0.0,0.0,0.0,0.0,0.0,0.0,0.0,0.0,0.0,0.0,0.0,0.0,0.0,0.0,0.0,0.0,0.0,0.0,0.0,0.0,0.0,0.0,0.0,0.0,0.0,0.0,0.0,0.0,0.0,0.0,0.0,0.0,0.0,0.0,0.0,0.0,0.0,0.0,2.4217,2.4153,2.4428,2.4956,2.4925,2.5175,2.5763,2.5798,2.5826,2.5901,0.0,0.0,0.0,0.0,0.0,0.0,0.0,0.0,0.0,0.0,0.0,0.0,0.0,0.0,0.0,0.0,0.0,0.0,0.0,0.0,0.0,0.0,0.0,0.0,0.0,0.0,0.0,0.0,0.0,0.0,0.0,0.0,0.0,0.0,0.0,0.0,0.0,0.0,0.0,2.2352,2.2702,0.0,0.0,0.0,0.0,0.0,0.0,0.0,0.0,2.6026,0.0,0.0,0.0,0.0,0.0,0.0,0.0,0.0,0.0,0.0,0.0,0.0,0.0,0.0,0.0,0.0,0.0,0.0,0.0,0.0,0.0,0.0,0.0,0.0,0.0,0.0,0.0,0.0,0.0,0.0,0.0,0.0,0.0,0.0,0.0,0.0,0.0,0.0,0.0,0.0,0.0,0.0,0.0,0.0,0.0,0.0,0.0,0.0,0.0,0.0,0.0,0.0,0.0,0.0,0.0,2.4335,2.4224,2.4351,2.4713,2.4532,2.458,2.4876,2.4678,2.4836,0.0,0.0,0.0,0.0,0.0,0.0,0.0,0.0,0.0,0.0,0.0,0.0,0.0,0.0,0.0,0.0,0.0,0.0,0.0,0.0,0.0,0.0,0.0,0.0,0.0,0.0,0.0,0.0,0.0,0.0,0.0,0.0,0.0,0.0,0.0,0.0,0.0,0.0,0.0,0.0,2.1465,2.1797,2.1689,0.0,0.0,0.0,0.0,0.0,0.0,2.4734,2.4989,0.0,0.0,0.0,0.0,0.0,0.0,0.0,0.0,0.0,0.0,0.0,0.0,0.0,0.0,0.0,0.0,0.0,0.0,0.0,0.0,0.0,0.0,0.0,0.0,0.0,0.0,0.0,0.0,0.0,0.0,0.0,0.0,0.0,0.0,0.0,0.0,0.0,0.0,0.0,0.0,0.0,0.0,0.0,0.0,0.0,0.0,0.0,0.0,0.0,0.0,0.0,0.0,0.0,0.0,0.0,2.4349,2.4319,2.4369,2.4478,2.4198,2.4044,2.4116,2.3675,2.3976,0.0,0.0,0.0,0.0,0.0,0.0,0.0,0.0,0.0,0.0,0.0,0.0,0.0,0.0,0.0,0.0,0.0,0.0,0.0,0.0,0.0,0.0,0.0,0.0,0.0,0.0,0.0,0.0,0.0,0.0,0.0,0.0,0.0,0.0,0.0,0.0,0.0,0.0,0.0,0.0,0.0,2.1067,2.1015,2.1825,0.0,0.0,0.0,0.0,2.3169,2.3305,0.0,0.0,0.0,0.0,0.0,0.0,0.0,0.0,0.0,0.0,0.0,0.0,0.0,0.0,0.0,0.0,0.0,0.0,0.0,0.0,0.0,0.0,0.0,0.0,0.0,0.0,0.0,0.0,0.0,0.0,0.0,0.0,0.0,0.0,0.0,0.0,0.0,0.0,0.0,0.0,0.0,0.0,0.0,0.0,0.0,0.0,0.0,0.0,0.0,0.0,0.0,0.0,0.0,0.0,0.0,0.0,2.3574,2.4271,2.4596,2.4509,2.4445,2.4567,2.4844,2.4641,2.491,0.0,0.0,0.0,0.0,0.0,0.0,0.0,0.0,0.0,0.0,0.0,0.0,0.0,0.0,0.0,0.0,0.0,0.0,0.0,0.0,0.0,0.0,0.0,0.0,0.0,0.0,0.0,0.0,0.0,0.0,0.0,0.0,0.0,0.0,0.0,0.0,0.0,0.0,0.0,0.0,0.0,2.0058,1.9975,2.0679,2.1221,0.0,0.0,2.2181,2.1951,2.2038,0.0,0.0,0.0,0.0,0.0,0.0,0.0,0.0,0.0,0.0,0.0,0.0,0.0,0.0,0.0,0.0,0.0,0.0,0.0,0.0,0.0,0.0,0.0,0.0,0.0,0.0,0.0,0.0,0.0,0.0,0.0,0.0,0.0,0.0,0.0,0.0,0.0,0.0,0.0,0.0,0.0,0.0,0.0,0.0,0.0,0.0,0.0,0.0,0.0,0.0,0.0,0.0,0.0,0.0,0.0,2.2332,2.2605,2.2873,2.2953,2.2909,2.2896,2.2974,2.3137,2.2825,2.3224,0.0,0.0,0.0,0.0,0.0,0.0,0.0,0.0,0.0,0.0,0.0,0.0,0.0,0.0,0.0,0.0,0.0,0.0,0.0,0.0,0.0,0.0,0.0,0.0,0.0,0.0,0.0,0.0,0.0,0.0,0.0,0.0,0.0,0.0,0.0,0.0,0.0,0.0,0.0,0.0,0.0,0.0,1.84,1.8665,0.0,0.0,0.0,2.0156,2.0809,0.0,0.0,0.0,0.0,0.0,0.0,0.0,0.0,0.0,0.0,0.0,0.0,0.0,0.0,0.0,0.0,0.0,0.0,0.0,0.0,0.0,0.0,0.0,0.0,0.0,0.0,0.0,0.0,0.0,0.0,0.0,0.0,0.0,0.0,0.0,0.0,0.0,0.0,0.0,0.0,0.0,0.0,0.0,0.0,0.0,0.0,0.0,0.0,0.0,0.0,0.0,0.0,0.0,0.0,0.0,0.0,0.0,2.16,2.1665,2.1695,2.1695,2.1695,2.1695,2.1689,2.1348,0.0,0.0,0.0,0.0,0.0,0.0,0.0,0.0,0.0,0.0,0.0,0.0,0.0,0.0,0.0,0.0,0.0,0.0,0.0,0.0,0.0,0.0,0.0,0.0,0.0,0.0,0.0,2.2712,0.0,0.0,0.0,0.0,0.0,0.0,0.0,0.0,0.0,0.0,0.0,0.0,0.0,0.0,1.6877,1.6966,1.6925,1.6755,0.0,0.0,1.823,1.908,1.867,1.8942,0.0,0.0,0.0,0.0,0.0,0.0,0.0,0.0,0.0,0.0,0.0,0.0,0.0,0.0,0.0,0.0,0.0,0.0,0.0,0.0,0.0,0.0,0.0,0.0,0.0,0.0,0.0,0.0,0.0,0.0,0.0,0.0,0.0,0.0,0.0,0.0,0.0,0.0,0.0,0.0,0.0,0.0,0.0,0.0,0.0,0.0,0.0,0.0,0.0,0.0,0.0,0.0,0.0,0.0,2.0557,2.0624,2.1313,2.1672,2.1695,2.1695,2.1695,2.1708,2.1422,2.1738,0.0,0.0,0.0,0.0,0.0,0.0,0.0,0.0,0.0,0.0,0.0,0.0,0.0,0.0,0.0,0.0,0.0,0.0,0.0,0.0,0.0,0.0,0.0,0.0,0.0,0.0,0.0,0.0,0.0,0.0,0.0,0.0,0.0,0.0,0.0,0.0,0.0,0.0,0.0,0.0,0.0,1.6902,1.5968,1.5899,1.5571,0.0,1.59,1.6965,1.6394,1.6924,1.7763,1.8951,0.0,0.0,0.0,0.0,0.0,0.0,0.0,0.0,0.0,0.0,0.0,0.0,0.0,0.0,0.0,0.0,0.0,0.0,0.0,0.0,0.0,0.0,0.0,0.0,0.0,0.0,0.0,0.0,0.0,0.0,0.0,0.0,0.0,0.0,0.0,0.0,0.0,0.0,0.0,0.0,0.0,0.0,0.0,0.0,0.0,0.0,0.0,0.0,0.0,0.0,0.0,0.0,0.0,1.9123,1.9632,1.9823,1.9903,1.988,1.9476,1.9239,1.9239,1.8498,1.868,0.0,0.0,0.0,0.0,0.0,0.0,0.0,0.0,0.0,0.0,0.0,0.0,0.0,0.0,0.0,0.0,0.0,0.0,0.0,0.0,0.0,0.0,0.0,0.0,0.0,0.0,0.0,0.0,1.9928,2.0069,2.0753,0.0,0.0,0.0,0.0,0.0,0.0,0.0,0.0,0.0,0.0,1.495,1.4253,1.3784,0.0,0.0,1.3831,1.4992,1.5976,1.6093,1.6861,1.9192,2.0038,0.0,0.0,0.0,0.0,0.0,0.0,0.0,0.0,0.0,0.0,0.0,0.0,0.0,0.0,0.0,0.0,0.0,0.0,0.0,0.0,0.0,0.0,0.0,0.0,0.0,0.0,0.0,0.0,0.0,0.0,0.0,0.0,0.0,0.0,0.0,0.0,0.0,0.0,0.0,0.0,0.0,0.0,0.0,0.0,0.0,0.0,0.0,0.0,0.0,0.0,0.0,0.0,1.8002,1.8262,1.8628,1.8589,1.8149,1.7855,1.7598,1.735,1.6644,1.6803,0.0,0.0,0.0,0.0,0.0,0.0,0.0,0.0,0.0,0.0,0.0,0.0,0.0,0.0,0.0,0.0,0.0,0.0,0.0,0.0,0.0,0.0,0.0,0.0,0.0,0.0,0.0,0.0,1.8151,1.8401,1.9126,0.0,0.0,0.0,0.0,0.0,0.0,0.0,0.0,0.0,0.0,1.357,1.3244,1.277,1.2449,1.2477,1.3257,1.4321,1.5596,1.5753,1.6375,1.8372,0.0,0.0,0.0,0.0,0.0,0.0,0.0,0.0,0.0,0.0,0.0,0.0,0.0,0.0,0.0,0.0,0.0,0.0,0.0,0.0,0.0,0.0,0.0,0.0,0.0,0.0,0.0,0.8544,0.0,0.0,0.9021,0.0,0.0,0.0,0.0,0.0,0.0,0.0,0.0,0.0,0.0,0.0,0.0,0.0,0.0,0.0,0.0,0.0,0.0,0.0,0.0,0.0,0.0,1.7531,1.6426,1.7963,1.8102,1.6753,1.7326,1.7318,1.6659,1.6591,1.6896,1.755,0.0,0.0,0.0,0.0,0.0,0.0,0.0,0.0,0.0,0.0,0.0,0.0,0.0,0.0,0.0,0.0,0.0,0.0,0.0,0.0,0.0,0.0,0.0,0.0,0.0,0.0,1.9045,1.8947,1.8671,0.0,0.0,0.0,0.0,0.0,0.0,0.0,0.0,0.0,0.0,1.431,1.3209,1.3212,1.3356,1.342,1.3491,1.4607,1.5355,1.4981,1.582,1.6391,0.0,0.0,0.0,0.0,0.0,0.0,0.0,0.0,0.0,0.0,0.0,0.0,0.0,0.0,0.0,0.0,0.0,0.0,0.0,0.0,0.0,0.0,0.0,0.0,0.0,0.0,0.0,0.8158,0.8181,0.0,0.0,0.0,0.0,0.0,0.0,0.0,0.0,0.0,0.0,0.0,1.1869,1.1918,0.0,0.0,0.0,0.0,0.0,0.0,0.0,0.0,0.0,0.0,0.0,0.0,1.737,1.6404,1.7469,1.7613,1.6629,1.6315,1.6048,1.5795,1.5343,1.5453,1.623,0.0,0.0,0.0,0.0,0.0,0.0,0.0,0.0,0.0,0.0,0.0,0.0,0.0,0.0,0.0,0.0,0.0,0.0,0.0,0.0,0.0,0.0,0.0,0.0,0.0,1.639,0.0,0.0,0.0,0.0,0.0,0.0,0.0,0.0,0.0,0.0,0.0,1.6102,1.4904,1.4721,1.4333,1.3393,1.2996,1.2651,0.0,0.0,0.0,0.0,0.0,0.0,0.0,0.0,0.0,0.0,0.0,0.0,0.0,0.0,1.9267,2.1741,2.1955,2.185,2.2207,0.0,0.0,0.0,0.0,0.0,0.0,0.0,0.0,0.0,0.0,0.0,0.0,0.0,0.0,0.7567,0.7529,0.7699,0.0,0.0,0.0,0.0,0.0,0.0,0.0,0.0,1.1803,1.1858,1.1701,1.1855,1.1778,0.0,1.2125,1.2587,0.0,0.0,0.0,0.0,0.0,0.0,0.0,0.0,1.6514,1.5567,1.6698,1.6826,1.5842,1.5527,1.5272,1.5034,1.4556,1.447,1.4848,1.5185,1.509,0.0,0.0,0.0,0.0,0.0,0.0,0.0,0.0,0.0,0.0,0.0,0.0,0.0,0.0,0.0,0.0,0.0,0.0,0.0,0.0,0.0,0.0,0.0,1.5153,0.0,0.0,0.0,0.0,0.0,0.0,0.0,0.0,0.0,1.5429,1.5147,1.4771,1.4267,1.4194,1.4111,1.3963,0.0,0.0,0.0,0.0,0.0,0.0,0.0,1.5533,1.6617,1.6633,1.6476,1.6438,1.6052,1.5848,1.6126,0.0,0.0,1.9336,1.9612,1.9505,1.9785,2.0042,2.0298,2.052,2.0192,1.9962,0.0,0.0,0.0,0.0,0.4698,0.0,0.0,0.0,0.6815,0.6748,0.0,0.7085,0.0,0.0,0.0,0.0,0.9824,1.0241,0.0,0.0,1.173,1.1846,1.1887,1.1892,1.1775,1.1585,1.2537,1.2544,1.1769,1.2808,0.0,0.0,0.0,0.0,0.0,0.0,1.504,1.4055,1.5677,1.5849,1.4412,1.4986,1.501,1.437,1.4298,1.4034,1.3552,1.3696,1.3543,1.3052,1.3595,0.0,0.0,0.0,0.0,0.0,0.0,0.0,0.0,0.0,0.0,0.0,0.0,0.0,0.0,0.0,0.0,0.0,0.0,0.0,0.0,1.3955,0.0,0.0,0.0,0.0,0.0,0.0,0.0,0.0,0.0,0.0,1.5261,1.4372,1.3724,1.4,0.0,0.0,0.0,0.0,1.4078,1.5818,1.6122,1.6086,1.6267,1.5891,1.5249,1.4233,0.0,0.0,1.3785,1.4388,1.4874,1.5338,1.4731,1.4793,1.633,1.6716,1.6824,1.7048,1.7779,1.8407,1.8505,1.8786,1.9277,0.1196,0.0,0.0,0.0,0.0,0.5992,0.6561,0.6667,0.6642,0.662,0.6617,0.6737,0.0,0.0,0.0,0.0,0.0,0.0,1.0635,1.0856,1.1838,1.2144,1.184,1.1966,1.1928,1.1719,1.2045,1.2149,1.2119,1.245,1.2862,1.3323,0.0,0.0,0.0,0.0,1.5111,1.4243,1.5185,1.5272,1.4322,1.4514,1.4514,1.4298,1.3943,1.3636,1.3509,1.3249,1.3,1.2793,1.2434,0.0,0.0,0.0,0.0,0.0,0.0,0.0,0.0,0.0,0.0,0.0,0.0,0.0,0.0,0.0,0.0,0.0,0.0,0.0,1.2921,1.3121,1.3768,0.0,0.0,0.0,0.0,0.0,0.0,0.0,0.0,0.0,1.4155,1.4405,1.4581,0.0,0.0,1.5269,1.5742,1.4748,1.4014,1.4144,1.3964,0.0,1.3537,1.3847,1.4152,1.4188,1.3483,1.2977,1.3152,1.2667,1.2297,1.2477,1.2259,1.2275,1.2744,1.4025,1.4953,1.5123,1.5355,1.5547,1.5534,1.5704,1.5895,0.0591,0.1236,0.2927,0.3912,0.4424,0.5423,0.6154,0.6692,0.6666,0.6665,0.6599,0.6696,0.6775,0.6798,0.6972,0.0,0.0,0.0,1.0502,1.0797,1.1928,1.2324,1.2051,1.2169,1.2121,1.1928,1.224,1.2302,1.2106,1.2445,1.2716,1.2871,0.0,0.0,1.4153,1.4649,1.4839,1.4703,1.4877,1.4747,1.4322,1.4322,1.4202,1.3986,1.3678,1.3322,1.2905,1.2643,1.2206,1.1672,1.1339,1.1266,0.0,0.0,0.0,0.0,0.0,0.0,0.0,0.0,0.0,0.0,0.0,1.2239,1.2649,0.0,0.0,0.0,1.126,1.1337,1.1695,1.2221,0.0,0.0,0.0,0.0,0.0,0.0,0.0,1.4818,1.427,1.382,1.3533,1.398,1.4226,1.3912,1.4311,1.4776,1.5212,0.0,1.3479,1.3562,1.3354,1.3124,1.301,1.3059,1.3145,1.3075,1.2605,1.2234,1.2202,1.1632,1.1213,1.1194,1.1194,1.1194,1.1194,1.2252,1.3071,1.3095,1.3403,1.3638,1.3668,1.4004,1.4411,0.0,0.0,0.1436,0.2698,0.384,0.4771,0.5813,0.6804,0.6831,0.6768,0.6655,0.6926,0.6947,0.6861,0.7232,0.0,0.8444,0.9514,1.0363,1.1017,1.1946,1.2382,1.2382,1.2382,1.2315,1.2145,1.2869,1.2746,1.1902,1.2638,1.2899,1.2657,1.2932,1.3432,1.4114,1.395,1.4324,1.5236,1.4591,1.4298,1.4298,1.425,1.3992,1.3515,1.3418,1.2958,1.2054,1.1883,1.1267,1.0088,1.0301,1.0157,0.9526,0.0,0.0,0.0,0.0,0.0,0.0,0.0,0.0,0.0,0.0,0.0,0.0,0.0,0.0,0.0,0.9543,0.0,0.9846,1.1179,0.0,0.0,0.0,1.4045,1.3373,1.3263,1.324,1.329,0.0,0.0,1.3229,1.3223,1.3049,1.2565,1.2217,1.2472,1.3779,1.3061,1.2693,1.3651,1.3571,1.3463,1.3408,1.2939,1.2218,1.1531,1.1194,1.1258,1.1277,1.1233,1.1194,1.1194,1.1194,1.1194,1.1194,1.1292,1.1218,1.1433,1.2038,1.2581,1.2611,1.3331,1.4196,0.0,0.0,0.1333,0.2544,0.3813,0.5827,0.6848,0.7098,0.71,0.7109,0.7059,0.7144,0.7122,0.7097,0.7203,0.7343,0.7564,0.9122,0.9952,1.021,1.1696,1.2382,1.2382,1.2382,1.239,1.2348,1.2526,1.2416,1.2041,1.2252,1.2256,1.2142,1.2713,1.3237,1.3645,1.3619,1.3815,1.4255,1.4083,1.4099,1.4292,1.3895,1.3606,1.3491,1.2759,1.2243,1.2005,1.0998,1.0335,0.9994,0.8932,0.8552,0.9024,0.9144,0.0,0.0,0.0,0.0,0.0,0.0,0.0,0.0,0.0,1.0706,1.1233,0.0,1.0231,0.0,0.8785,0.8109,0.8277,0.9596,0.0,0.0,1.2677,1.3483,1.3307,1.2848,1.2725,1.324,1.298,1.2711,1.2571,1.2664,1.2447,1.168,1.2386,1.3151,1.3619,1.2893,1.2455,1.2762,1.2318,1.1804,1.1913,1.1704,1.1497,1.1258,1.1194,1.1194,1.1194,1.1194,1.1194,1.1194,1.1194,1.1194,1.1194,1.1194,1.1507,1.2111,1.196,1.1556,1.1556,1.2141,1.2675,0.0308,0.0924,0.2099,0.33,0.4503,0.5843,0.6707,0.7182,0.721,0.721,0.721,0.721,0.721,0.7238,0.7598,0.7792,0.7903,0.9581,1.0378,1.046,1.1778,1.2382,1.2382,1.2382,1.2382,1.2382,1.2382,1.2357,1.2217,1.2128,1.2168,1.2365,1.3184,1.3651,1.3806,1.3817,1.4041,1.4499,1.3979,1.3679,1.3637,1.334,1.3127,1.2997,1.2459,1.2124,1.1991,1.1387,1.0719,1.0058,0.9268,0.8741,0.8606,0.8773,0.9115,0.0,0.0,0.0,0.0,0.0,0.0,0.0,0.0,0.0,0.0,0.0,0.9406,0.9402,0.8352,0.7849,0.8209,0.947,1.0402,1.0585,1.1848,1.2598,1.2393,1.2036,1.1942,1.2308,1.2149,1.1922,1.1831,1.1898,1.18,1.1277,1.1867,1.2409,1.2485,1.2107,1.185,1.1932,1.1526,1.1194,1.1194,1.1194,1.1194,1.1194,1.1194,1.1194,1.1194,1.1194,1.1194,1.1194,1.1194,1.1194,1.1218,1.1414,1.1751,1.2136,1.2141,1.2122,1.2495,1.2901,1.3245,0.0924,0.2126,0.3328,0.4419,0.5397,0.5566,0.6235,0.721,0.721,0.721,0.721,0.721,0.7235,0.7429,0.8152,0.854,0.8761,1.0359,1.1103,1.1154,1.2001,1.2382,1.2382,1.2382,1.2382,1.2382,1.2382,1.2382,1.2377,1.2208,1.2387,1.2889,1.3823,1.4257,1.4148,1.424,1.4556,1.5026,1.3986,1.3236,1.2856,1.2858,1.2743,1.2494,1.246,1.2334,1.21,1.2147,1.1592,1.0352,1.0292,0.9676,0.8332,0.8938,0.9279,0.0,0.9864,0.0,0.0,0.0,0.0,0.0,0.0,0.0,0.0,0.8905,0.887,0.8754,0.8108,0.7924,0.8538,0.9773,1.036,0.9951,1.1039,1.1648,1.1243,1.1194,1.1194,1.1194,1.1194,1.1194,1.1233,1.1194,1.1218,1.1218,1.1248,1.1346,1.1233,1.1272,1.1248,1.1194,1.1194,1.1194,1.1194,1.1194,1.1194,1.1194,1.1194,1.1194,1.1194,1.1194,1.1194,1.1194,1.1194,1.1194,1.1194,1.1561,1.1932,1.2214,1.2705,1.3257,1.389,1.4268,1.4937,0.2154,0.3357,0.4559,0.5176,0.5483,0.6429,0.6988,0.721,0.721,0.721,0.721,0.721,0.7598,0.8235,0.8432,0.8865,0.9605,1.0629,1.1103,1.1131,1.2001,1.2382,1.2382,1.2382,1.2382,1.2382,1.2382,1.2382,1.2382,1.2376,1.2423,1.26,1.3885,1.4325,1.3943,0.0,0.0,0.0,1.3385,1.3121,1.3043,1.3043,1.3015,1.2969,1.2711,0.0,1.2466,1.1902,1.1456,1.1135,1.026,0.0,0.0,0.0,0.0,0.0,0.0,0.0,0.0,0.0,0.0,0.0,0.9127,0.9252,0.8929,0.8905,0.8616,0.7989,0.779,0.7456,0.695,0.8259,0.9135,0.9113,1.04,1.1302,1.1189,1.1194,1.1194,1.1194,1.1194,1.1194,1.1194,1.1194,1.1194,1.1194,1.1194,1.1194,1.1194,1.1194,1.1194,1.1194,1.1194,1.1194,1.1194,1.1194,1.1194,1.1194,1.1194,1.1194,1.1194,1.1194,1.1194,1.1194,1.1194,1.1194,1.1218,1.1292,1.1873,1.2985,1.3776,1.4196,1.4052,1.4388,1.4926,0.3385,0.4531,0.5146,0.5734,0.0,0.6932,0.721,0.721,0.721,0.721,0.721,0.721,0.746,0.79,0.8782,0.9388,0.988,1.1149,1.1755,1.1782,1.2191,1.2382,1.2382,1.2382,1.2382,1.2382,1.2382,1.2382,1.2382,1.2382,1.2408,1.2469,1.4322,1.5013,1.4608,1.4887,1.4316,1.2817,1.2605,1.2381,1.2172,1.2168,1.2222,1.2342,1.2197,0.0,0.0,0.0,0.0,0.0,0.0,0.0,0.0,0.9155,0.0,0.8004,0.833,0.8367,0.7982,0.8107,0.8083,0.7806,0.8331,0.8628,0.8486,0.81,0.7706,0.7302,0.726,0.7262,0.7294,0.826,0.907,0.9517,1.054,1.1194,1.1194,1.1194,1.1194,1.1194,1.1194,1.1194,1.1194,1.1194,1.1194,1.1194,1.1194,1.1194,1.1194,1.1194,1.1194,1.1194,1.1194,1.1194,1.1194,1.1194,1.1194,1.1194,1.1194,1.1194,1.1194,1.1194,1.1194,1.1194,1.1194,1.1316,1.1868,1.2228,1.292,1.4148,1.5062,1.5656,1.5738,1.62,1.6662,0.4615,0.5706,0.5704,0.629,0.721,0.721,0.721,0.721,0.721,0.0,0.0,0.7349,0.7512,0.7759,0.933,1.0104,1.0347,1.1723,1.2382,1.2382,1.2382,1.2382,1.2382,1.2382,1.2382,1.2382,1.2382,1.2382,1.2382,1.2382,1.2382,1.2627,1.4766,1.5747,1.5477,1.5199,1.4077,1.2276,1.2016,1.1758,1.1393,1.1458,1.1594,1.1832,1.1874,1.1994,1.2218,1.2393,1.2208,1.1703,1.1721,1.121,1.0029,0.9853,0.9417,0.8589,0.8657,0.8463,0.7846,0.793,0.7851,0.7358,0.7997,0.8367,0.8273,0.7649,0.7249,0.7273,0.7273,0.7559,0.8259,0.891,0.9579,1.0285,1.0927,1.1298,1.126,1.125,1.125,1.1208,1.1194,1.1194,1.1194,1.1194,1.1194,1.1194,1.1194,1.1316,1.1409,1.134,1.1194,1.1194,1.1194,1.1194,1.1194,1.1194,1.1194,1.1194,1.1194,1.1194,1.1218,1.1296,1.1321,1.1389,1.1394,1.1897,1.2732,1.3349,1.4262,1.5287,1.6113,1.6864,1.7559,1.8125,1.8427,0.5845,0.693,0.696,0.7043,0.721,0.721,0.721,0.721,0.7213,0.721,0.7238,0.7986,0.8727,0.9495,1.0488,1.1341,1.2028,1.2305,1.2382,1.2382,1.2382,1.2382,1.2382,1.2382,1.2382,1.2382,1.2382,1.2382,1.2409,1.2414,1.2382,1.2708,1.4739,1.589,1.5783,1.5135,1.3885,1.218,1.2157,1.2139,1.2064,1.2464,1.2659,1.2724,1.2922,1.3075,1.3108,1.3108,1.3132,1.3036,1.2646,1.2073,1.1208,1.0756,0.9854,0.8368,0.8849,0.8942,0.8128,0.8858,0.9348,0.9385,0.9485,0.9465,0.9205,0.9093,0.9029,0.9029,0.8961,0.9078,0.9261,0.9901,1.0379,1.0608,1.1258,1.1636,1.1466,1.1472,1.1381,1.1246,1.1194,1.1228,1.1311,1.1272,1.1311,1.1267,1.1531,1.158,1.2179,1.1727,1.1267,1.1194,1.1194,1.1194,1.1433,1.1243,1.1389,1.1194,1.134,1.1458,1.1507,1.1775,1.2024,1.1951,1.2341,1.2894,1.3644,1.3806,1.4573,1.565,1.6537,1.7124,1.7692,1.828,1.8735,0.6865,0.7353,0.735,0.7353,0.735,0.7381,0.7664,0.8145,0.8173,0.806,0.7965,0.8318,0.8978,0.9825,1.0711,1.1318,1.1728,1.2196,1.2382,1.2382,1.2382,1.2382,1.2382,1.2382,1.2382,1.2382,1.2382,1.274,1.3332,1.3381,1.3673,1.4363,1.5994,1.6505,1.5935,1.5535,1.4343,1.2317,1.2693,1.2613,1.2007,1.2188,1.2304,1.2304,1.2435,1.248,1.2485,1.248,1.248,1.248,1.2279,1.1847,1.1114,1.0867,1.0219,0.913,0.9386,0.944,0.9036,0.9459,0.9941,1.0457,1.0519,1.0669,1.0992,1.0141,0.9628,0.9631,0.9631,0.9819,1.0275,1.0567,1.0909,1.1392,1.1654,1.1754,1.1699,1.165,1.1617,1.1539,1.1435,1.1567,1.2103,1.209,1.2301,1.2708,1.2883,1.3089,1.3529,1.321,1.2901,1.2901,1.2872,1.2877,1.2853,1.2877,1.2877,1.2877,1.2877,1.2926,1.3022,1.3264,1.3433,1.3596,1.3836,1.434,1.5162,1.5453,1.6028,1.6967,1.7575,1.8025,1.8303,1.8589,1.8781,0.7519,0.7519,0.7519,0.7633,0.7837,0.8067,0.8616,0.9281,0.9306,0.9267,0.9234,0.9186,0.9507,1.0159,1.1013,1.14,1.1486,1.2087,1.2382,1.2382,1.2382,1.2382,1.2382,1.2382,1.2382,1.2382,1.2382,1.2898,1.3732,1.4062,1.4911,1.6207,1.6935,1.6882,1.6313,1.6287,1.5141,1.3041,1.3614,1.335,1.2007,1.1928,1.1959,1.1933,1.1928,1.1933,1.1928,1.1933,1.1933,1.1933,1.1933,1.1709,1.1215,1.117,1.0835,1.0221,1.0264,1.0374,1.0402,1.0374,1.0652,1.1318,1.14,1.1673,1.2191,1.12,1.0374,1.0374,1.0441,1.0726,1.1229,1.1266,1.1447,1.2084,1.2037,1.1928,1.1876,1.1867,1.186,1.1813,1.188,1.2309,1.2896,1.3204,1.3571,1.4236,1.4666,1.484,1.4864,1.4987,1.5151,1.5026,1.4722,1.422,1.431,1.4238,1.422,1.4364,1.4316,1.4292,1.4483,1.4692,1.4907,1.5043,1.524,1.569,1.6601,1.6906,1.7388,1.8179,1.8527,1.8712,1.8735,1.8758,1.8804,0.7521,0.7519,0.7585,0.8041,0.8916,0.9722,1.0156,1.0272,1.0264,1.0711,1.1294,1.1226,1.1061,1.1112,1.191,1.2269,1.2269,1.2359,1.2396,1.2418,1.2382,1.2382,1.2463,1.2441,1.2382,1.2463,1.2518,1.2735,1.3029,1.3894,1.5366,1.7074,1.6532,1.6585,1.7259,1.7371,1.6279,1.411,1.5127,1.4586,1.2488,1.2357,1.2357,1.233,1.2321,1.2325,1.2302,1.2357,1.2321,1.2357,1.2316,1.2303,1.224,1.2218,1.1873,1.1072,1.17,1.2164,1.2137,1.2159,1.2137,1.225,1.2223,1.2273,1.2382,1.2219,1.2132,1.2078,1.211,1.2082,1.2273,1.2191,1.2199,1.2271,1.2334,1.2291,1.2201,1.2057,1.2013,1.181,1.2818,1.337,1.3716,1.4465,1.5025,1.5326,1.6001,1.6424,1.6483,1.7044,1.7451,1.7205,1.5954,1.4639,1.4561,1.434,1.4698,1.4746,1.4644,1.493,1.5287,1.5572,1.5744,1.6146,1.6231,1.6803,1.7288,1.7638,1.7901,1.8473,1.8758,1.8804,1.8804,1.8804,1.8804,0.8567,0.8624,0.9191,0.9695,1.0108,1.0465,1.097,1.144,1.1444,1.1951,1.2644,1.2612,1.2467,1.2309,1.2669,1.281,1.281,1.281,1.2771,1.2639,1.263,1.2943,1.3418,1.3462,1.3786,1.4417,1.4471,1.4819,1.5574,1.6638,1.7707,1.8482,1.8101,1.7516,1.6697,1.6591,1.5461,1.3251,1.3592,1.37,1.3435,1.2762,1.2382,1.2382,1.2382,1.2382,1.2382,1.2382,1.2382,1.2382,1.2382,1.2382,1.2382,1.2382,1.2246,1.1919,1.2191,1.2382,1.2382,1.2382,1.2382,1.2382,1.2382,1.2382,1.2382,1.2382,1.2382,1.2382,1.2382,1.2382,1.2382,1.2382,1.2382,1.2382,1.2382,1.2642,1.3296,1.3334,1.3518,1.41,1.4495,1.4972,1.5589,1.6434,1.6968,1.7079,1.7563,1.7832,1.7908,1.8372,1.8633,1.8586,1.772,1.7069,1.6608,1.6553,1.656,1.6608,1.6671,1.6765,1.6965,1.7178,1.7442,1.752,1.7697,1.7915,1.8234,1.8357,1.8496,1.8813,1.8812,1.8804,1.8804,1.8804,1.8981,0.97,0.9849,1.0759,1.1178,1.1209,1.1484,1.1997,1.2569,1.2599,1.2943,1.3451,1.3471,1.3386,1.3264,1.3155,1.3093,1.3093,1.3093,1.3018,1.2885,1.288,1.3236,1.3881,1.4276,1.4783,1.5466,1.5809,1.6527,1.7595,1.8377,1.8978,1.9246,1.9298,1.8475,1.7002,1.6849,1.5675,1.3614,1.3349,1.3511,1.357,1.2844,1.2545,1.2817,1.2572,1.2382,1.2382,1.2382,1.2382,1.2382,1.2382,1.2382,1.2382,1.2382,1.2382,1.2382,1.2382,1.2382,1.2382,1.2382,1.2382,1.2382,1.2382,1.2382,1.2382,1.2382,1.2382,1.2382,1.2382,1.2382,1.2382,1.2382,1.2518,1.2817,1.2903,1.3381,1.4476,1.4675,1.4953,1.5731,1.5911,1.6496,1.7486,1.8147,1.8488,1.8606,1.881,1.8994,1.9053,1.9197,1.9323,1.9314,1.9275,1.9017,1.8508,1.8225,1.8385,1.8479,1.8383,1.8446,1.8824,1.8856,1.8879,1.8727,1.8997,1.909,1.9075,1.9091,1.9105,1.909,1.9073,1.9049,1.9026,1.9093,1.9517,1.0728,1.088,1.1752,1.2148,1.2208,1.3084,1.3539,1.3509,1.3599,1.3649,1.366,1.3665,1.3695,1.3643,1.3379,1.3136,1.3107,1.3126,1.3174,1.3198,1.3169,1.316,1.3236,1.43,1.487,1.5268,1.6181,1.6964,1.7721,1.776,1.8239,1.926,1.9312,1.9227,1.8874,1.8795,1.7963,1.5722,1.5488,1.4739,1.2952,1.2599,1.3007,1.3894,1.3007,1.2382,1.2382,1.2382,1.2382,1.2382,1.2382,1.2382,1.2382,1.2418,1.2428,1.2437,1.2401,1.2428,1.241,1.2419,1.2447,1.2405,1.2438,1.2401,1.2448,1.2475,1.2525,1.2482,1.263,1.2593,1.2724,1.27,1.298,1.3846,1.4083,1.4643,1.5701,1.5835,1.5835,1.618,1.6923,1.7823,1.8935,1.9224,1.9291,1.9431,1.9555,1.9607,1.9762,1.986,1.9857,1.9882,1.9842,1.9673,1.9195,1.9017,1.9152,1.9226,1.9237,1.9426,1.9683,1.9853,1.9813,1.9781,1.9702,1.9694,1.9797,1.9829,1.9806,1.979,1.9701,1.9628,2.0083,2.0084,2.0566,1.2083,1.2664,1.302,1.3174,1.3204,1.3569,1.3688,1.3688,1.3688,1.3688,1.3688,1.3688,1.3688,1.3739,1.4409,1.4245,1.3525,1.3491,1.3854,1.442,1.4525,1.5238,1.6568,1.703,1.7582,1.816,1.8591,1.8952,1.9199,1.9096,1.9208,1.9497,1.94,1.8959,1.8351,1.822,1.7411,1.6074,1.5914,1.5808,1.5452,1.432,1.411,1.5093,1.3403,1.2382,1.2382,1.2382,1.2382,1.2382,1.2382,1.2382,1.2423,1.2573,1.271,1.2819,1.2843,1.2843,1.2843,1.2843,1.2843,1.2843,1.2843,1.2852,1.2843,1.2866,1.3147,1.3803,1.3993,1.4272,1.4817,1.4238,1.3711,1.4164,1.4884,1.5734,1.6644,1.6988,1.7252,1.7937,1.8482,1.8881,1.9142,1.9298,1.9324,1.9413,1.9575,1.979,2.0023,2.0169,2.0328,2.051,2.0535,2.0468,2.0317,1.9827,1.9673,1.969,1.9747,1.9755,1.9916,1.9972,1.9948,1.998,1.9996,2.0102,2.0175,2.0451,2.0468,2.0935,2.0832,2.1011,2.1593,2.1648,2.2152,1.3084,1.3658,1.3688,1.3688,1.3688,1.3688,1.3688,1.3688,1.3688,1.3688,1.3688,1.3688,1.3893,1.4396,1.5219,1.5426,1.4922,1.4922,1.5301,1.5938,1.5973,1.6736,1.8006,1.8571,1.9097,1.9708,2.0082,2.021,2.0188,2.0025,1.995,1.992,1.9689,1.9208,1.8537,1.8457,1.7722,1.6499,1.6169,1.6256,1.604,1.4658,1.4171,1.4653,1.343,1.2579,1.2554,1.2579,1.2644,1.2612,1.2639,1.2644,1.2658,1.2809,1.2951,1.3079,1.3093,1.3093,1.3093,1.3093,1.3093,1.3122,1.3483,1.3683,1.3711,1.4047,1.4694,1.531,1.553,1.5946,1.639,1.603,1.5549,1.5516,1.6049,1.6909,1.795,1.8141,1.8475,1.9011,1.9272,1.9402,1.9428,1.9498,1.9609,1.9669,1.9869,2.006,2.0326,2.0506,2.0668,2.0848,2.0851,2.0828,2.0719,2.0403,2.0229,2.0263,2.0208,2.0178,2.0196,2.0195,2.0253,2.0244,2.0309,2.0441,2.0655,2.0982,2.1527,2.214,2.2254,2.2336,2.2811,2.3247,2.3615,1.3688,1.3688,1.3688,1.3688,1.3688,1.3688,1.3688,1.3688,1.3688,1.3748,1.3928,1.3838,1.4545,1.5451,1.5924,1.6361,1.712,1.7355,1.7378,1.74,1.7383,1.7494,1.79,1.8966,1.9312,1.9224,1.9847,2.0227,2.0291,2.0247,2.021,2.0217,2.0152,2.0039,2.0119,1.9863,1.8975,1.7412,1.7006,1.5922,1.3535,1.3633,1.3623,1.3558,1.326,1.2994,1.2823,1.297,1.3041,1.3051,1.3055,1.3084,1.3065,1.3093,1.3107,1.3141,1.3126,1.3117,1.3131,1.3145,1.3169,1.3308,1.4202,1.4769,1.4899,1.5812,1.6624,1.6839,1.6877,1.6965,1.7257,1.7849,1.8119,1.7996,1.7729,1.8172,1.896,1.9282,1.9286,1.9375,1.9557,1.9687,1.9757,1.9828,1.999,2.0205,2.0308,2.0411,2.0642,2.0745,2.0848,2.0899,2.0899,2.0899,2.0899,2.0883,2.0867,2.0836,2.0764,2.071,2.0748,2.0782,2.1052,2.1127,2.152,2.1678,2.2125,2.2496,2.3164,2.3685,2.3644,2.3762,2.4307,2.4728,2.473,1.3688,1.3688,1.3688,1.3688,1.3688,1.3688,1.3688,1.3718,1.3718,1.4187,1.4897,1.5016,1.5688,1.6862,1.7712,1.8331,1.8768,1.9528,1.9564,1.8826,1.871,1.9145,1.991,2.0385,2.0544,2.0501,2.0728,2.0903,2.0824,2.0649,2.0546,2.051,2.032,2.0217,2.0239,2.0183,1.9703,1.925,1.9112,1.8665,1.7856,1.6344,1.5558,1.5406,1.4142,1.3283,1.3226,1.3145,1.3098,1.3107,1.3093,1.316,1.3283,1.3321,1.3353,1.3471,1.3524,1.3495,1.3524,1.3544,1.3594,1.378,1.4705,1.529,1.5524,1.6576,1.7638,1.8339,1.853,1.8794,1.9658,1.9886,1.9528,1.8481,1.8972,1.9416,1.9745,1.9874,1.9828,1.9705,1.9892,1.9934,1.9781,1.9858,2.0025,2.0225,2.0165,2.0191,2.0545,2.0746,2.0719,2.084,2.0865,2.0994,2.1058,2.1183,2.1227,2.1189,2.1166,2.0933,2.1027,2.1198,2.153,2.2097,2.2518,2.3053,2.3502,2.4038,2.4654,2.5007,2.502,2.5406,2.5986,2.6094,2.5953,1.3688,1.3748,1.4222,1.4396,1.4485,1.4862,1.507,1.507,1.507,1.554,1.6184,1.6273,1.6944,1.8092,1.8942,1.9564,2.0061,2.0852,2.0766,2.009,1.9997,2.0472,2.1153,2.1211,2.1211,2.1211,2.1203,2.1211,2.1196,2.102,2.0903,2.0831,2.0663,2.0583,2.0568,2.054,2.0394,1.9969,1.9829,1.9423,1.8398,1.7055,1.6086,1.5455,1.421,1.3583,1.3485,1.3392,1.3325,1.3325,1.3301,1.3396,1.3485,1.3538,1.3561,1.374,1.4157,1.4416,1.4426,1.4896,1.507,1.5278,1.6249,1.6973,1.7208,1.8092,1.921,1.9824,2.0012,2.0328,2.0959,2.1014,2.0435,1.9675,1.9865,2.0205,2.021,2.021,2.0137,2.0035,2.0172,2.0194,2.0113,2.0178,2.0257,2.0407,2.0328,2.0362,2.0738,2.0911,2.1029,2.1186,2.1385,2.1417,2.1354,2.1424,2.1573,2.1546,2.1485,2.1133,2.095,2.1173,2.1479,2.2577,2.3211,2.4205,2.4747,2.5299,2.5868,2.6071,2.6211,2.6508,2.6781,2.6907,2.6845,1.3808,1.3983,1.5159,1.5688,1.5836,1.6744,1.7091,1.7273,1.7243,1.7273,1.7472,1.7501,1.8208,1.921,1.9564,2.0148,2.1003,2.1117,2.1182,2.106,2.1031,2.1153,2.1211,2.1211,2.1211,2.1211,2.1211,2.1211,2.1203,2.1174,2.1211,2.1159,2.113,2.1181,2.1108,2.1189,2.0601,1.9821,1.9596,1.8564,1.6663,1.6145,1.5596,1.4589,1.4331,1.4192,1.4237,1.4247,1.3999,1.3734,1.39,1.4158,1.3913,1.3868,1.4147,1.4277,1.5135,1.5569,1.5919,1.645,1.7038,1.7097,1.8121,1.9296,1.9087,1.991,2.0737,2.0945,2.1031,2.1096,2.1175,2.1181,2.1095,2.1094,2.0615,2.0393,2.0283,2.032,2.0355,2.0378,2.0505,2.0659,2.0673,2.0894,2.1036,2.1125,2.1102,2.1179,2.1359,2.1481,2.1652,2.1736,2.1785,2.1754,2.1658,2.1658,2.1809,2.1895,2.2063,2.2158,2.1917,2.2139,2.266,2.366,2.4319,2.5269,2.5887,2.6346,2.6668,2.6822,2.7023,2.7272,2.732,2.732,2.732,1.51,1.5254,1.642,1.6944,1.695,1.7296,1.7449,1.7413,1.7449,1.8062,1.8622,1.8797,1.947,2.0615,2.0651,2.0917,2.1146,2.1211,2.1211,2.1211,2.1211,2.1211,2.1211,2.1211,2.1211,2.1211,2.1211,2.1211,2.1211,2.1211,2.1211,2.1211,2.1211,2.1211,2.1211,2.1211,2.106,2.0766,2.068,2.0385,1.9593,1.8593,1.8208,1.7829,1.6827,1.6391,1.642,1.642,1.5451,1.3983,1.554,1.5978,1.5278,1.583,1.6214,1.6302,1.6621,1.6915,1.6973,1.7296,1.7449,1.7507,1.8739,1.9267,1.9319,2.0472,2.1117,2.1211,2.1211,2.1211,2.1211,2.1211,2.1211,2.1189,2.0998,2.0868,2.0882,2.0947,2.093,2.0989,2.1151,2.1238,2.1313,2.1379,2.1507,2.1643,2.1604,2.155,2.1775,2.1887,2.1969,2.1951,2.1971,2.1979,2.1971,2.1971,2.2036,2.2218,2.2759,2.3739,2.3851,2.4263,2.5057,2.6071,2.6055,2.6733,2.6838,2.7058,2.7296,2.7413,2.732,2.732,2.732,2.732,2.732,1.6367,1.6479,1.7677,1.8208,1.8296,1.8768,1.9,1.9,1.9029,1.9354,2.0004,2.0119,2.05,2.1153,2.1211,2.1211,2.1211,2.1211,2.1211,2.1211,2.1211,2.1211,2.1211,2.1211,2.1211,2.1211,2.1211,2.1211,2.1211,2.1211,2.1211,2.1211,2.1211,2.1211,2.1211,2.1211,2.1211,2.1182,2.1182,2.0974,2.0357,1.9701,1.8971,1.8558,1.7735,1.739,1.7413,1.7881,1.7237,1.6007,1.6591,1.7061,1.6538,1.6973,1.739,1.7443,1.7852,1.8179,1.8325,1.8651,1.9,1.9087,1.9766,2.0004,2.0206,2.0823,2.1211,2.1211,2.1211,2.1211,2.1211,2.1211,2.1211,2.1203,2.1211,2.1211,2.1211,2.1181,2.1208,2.1238,2.1333,2.1513,2.1627,2.1667,2.1797,2.193,2.1902,2.1997,2.2155,2.223,2.2327,2.2471,2.258,2.268,2.2977,2.3086,2.3815,2.3863,2.4562,2.5425,2.5465,2.5943,2.6334,2.6989,2.7484,2.7814,2.7741,2.7638,2.7607,2.7617,2.7441,2.7327,2.7361,2.7389,2.7368,1.7589,1.7712,1.8971,1.9499,1.9673,2.0673,2.0917,2.1117,2.0974,2.1003,2.1089,2.1182,2.1089,2.1211,2.1211,2.1211,2.1211,2.1211,2.1211,2.1211,2.1211,2.1211,2.1211,2.1211,2.1211,2.1211,2.1211,2.1211,2.1211,2.1211,2.1211,2.1211,2.1211,2.1211,2.1211,2.1211,2.1211,2.1211,2.1211,2.0795,2.0119,1.9766,1.9354,1.8651,1.8412,1.8208,1.8383,1.8855,1.8913,1.7852,1.7793,1.7887,1.777,1.7683,1.7917,1.8179,1.9,1.9499,1.9615,2.0385,2.1003,2.0917,2.0974,2.1211,2.1089,2.1182,2.1211,2.1211,2.1211,2.1211,2.1211,2.1211,2.1211,2.1211,2.1211,2.1211,2.1211,2.1211,2.1211,2.1239,2.1261,2.1411,2.1668,2.181,2.1923,2.2345,2.2308,2.2405,2.2704,2.3014,2.3149,2.3337,2.3433,2.3554,2.3944,2.4325,2.5329,2.6063,2.6954,2.7532,2.6907,2.7082,2.7137,2.7452,2.7934,2.8245,2.8338,2.8224,2.8059,2.7955,2.7883,2.7638,2.742,2.7513,2.7545,1.8913,1.9,2.0263,2.0802,2.0823,2.1096,2.1211,2.1211,2.1211,2.1211,2.1211,2.1211,2.1211,2.1211,2.1211,2.1211,2.1211,2.1211,2.1211,2.1211,2.1211,2.1211,2.1211,2.1211,2.1211,2.1211,2.1211,2.1211,2.1211,2.1211,2.1211,2.1211,2.1211,2.1211,2.1211,2.1211,2.1211,2.1211,2.1211,2.1089,2.0823,2.068,2.0529,2.0177,2.0206,2.0292,2.0385,2.0622,2.0651,2.0443,2.0206,1.9708,1.921,1.9737,2.009,2.0177,2.0414,2.0737,2.0823,2.0974,2.1211,2.1211,2.1211,2.1211,2.1211,2.1211,2.1211,2.1211,2.1211,2.1211,2.1211,2.1211,2.1211,2.1211,2.1211,2.1211,2.1211,2.1211,2.1289,2.1468,2.1554,2.1782,2.2258,2.2258,2.2428,2.2711,2.2796,2.2824,2.3127,2.3504,2.3624,2.3624,2.4306,2.4437,2.4761,2.5387,2.6572,2.7473,2.843,2.9023,2.8439,2.8157,2.8202,2.8254,2.8391,2.8634,2.8897,2.8669,2.8462,2.8411,2.8338,2.8069,2.7872,2.7831,2.7759,2.017,2.0263,2.0945,2.1211,2.1211,2.1211,2.1211,2.1211,2.1211,2.1211,2.1211,2.1211,2.1211,2.1211,2.1211,2.1211,2.1211,2.1211,2.1211,2.1211,2.1211,2.1211,2.1211,2.1211,2.1211,2.1211,2.1211,2.1211,2.1211,2.1211,2.1211,2.1211,2.1211,2.1211,2.1211,2.1211,2.1211,2.1211,2.1211,2.1211,2.1211,2.1211,2.1211,2.1211,2.1211,2.1211,2.1146,2.1182,2.1182,2.1211,2.1182,2.0945,2.0414,2.0795,2.1146,2.1211,2.1211,2.1211,2.1211,2.1211,2.1211,2.1211,2.1211,2.1211,2.1211,2.1211,2.1211,2.1211,2.1211,2.1211,2.1211,2.1211,2.1211,2.1211,2.1211,2.1211,2.1211,2.1211,2.1268,2.1439,2.1411,2.1668,2.1981,2.2286,2.2428,2.2505,2.2824,2.2853,2.2768,2.3147,2.3428,2.3756,2.4797,2.5368,2.5607,2.6418,2.7715,2.8509,2.9203,2.9556,2.9402,2.9291,2.924,2.9182,2.9099,2.9254,2.9425,2.9156,2.8928,2.8866,2.8752,2.851,2.8355,2.8262,2.8224,2.1211,2.1211,2.1211,2.1211,2.1211,2.1211,2.1211,2.1211,2.1211,2.1211,2.1211,2.1211,2.1211,2.1211,2.1211,2.1211,2.1211,2.1211,2.1211,2.1211,2.1211,2.1211,2.1211,2.1211,2.1211,2.1211,2.1211,2.1211,2.1211,2.1211,2.1211,2.1211,2.1211,2.1211,2.1211,2.1211,2.1211,2.1211,2.1211,2.1211,2.1211,2.1211,2.1211,2.1211,2.1211,2.1211,2.1211,2.1211,2.1211,2.1211,2.1211,2.1211,2.1211,2.1211,2.1211,2.1211,2.1211,2.1211,2.1211,2.1211,2.1211,2.1211,2.1211,2.1211,2.1211,2.1211,2.1211,2.1211,2.1211,2.1211,2.1211,2.1211,2.1211,2.1211,2.1211,2.1211,2.1211,2.1211,2.1239,2.1239,2.1296,2.1497,2.1831,2.2144,2.2222,2.2364,2.2732,2.3042,2.3034,2.3524,2.427,2.5167,2.6481,2.7195,2.7465,2.7492,2.8784,2.9138,2.98,2.9879,2.9968,2.9839,2.9673,2.9808,2.9829,2.986,2.9798,2.9591,2.9415,2.9342,2.9228,2.9048,2.8882,2.8717,2.8634,2.1211,2.1211,2.1211,2.1211,2.1211,2.1211,2.1211,2.1211,2.1211,2.1211,2.1211,2.1211,2.1211,2.1211,2.1211,2.1211,2.1211,2.1211,2.1211,2.1211,2.1211,2.1211,2.1211,2.1211,2.1211,2.1211,2.1211,2.1211,2.1211,2.1211,2.1211,2.1211,2.1211,2.1211,2.1211,2.1211,2.1211,2.1211,2.1211,2.1211,2.1211,2.1211,2.1211,2.1211,2.1211,2.1211,2.1211,2.1211,2.1211,2.1211,2.1211,2.1211,2.1211,2.1211,2.1211,2.1211,2.1211,2.1211,2.1211,2.1211,2.1211,2.1211,2.1211,2.1211,2.1211,2.1211,2.1211,2.1211,2.1211,2.1211,2.1211,2.1211,2.1211,2.1211,2.1211,2.1211,2.1211,2.1318,2.1375,2.1489,2.1403,2.1346,2.1717,2.2137,2.2469,2.2857,2.3392,2.4047,2.4512,2.5406,2.6572,2.7563,2.8651,2.9148,2.9475,2.9343,2.9695,2.9606,2.9916,2.9916,2.9994,2.9994,2.9994,2.9994,2.9994,2.9953,2.9901,2.986,2.9818,2.9684,2.9642,2.9591,2.9394,2.9177,2.8986,2.1211,2.1211,2.1211,2.1211,2.1211,2.1211,2.1211,2.1211,2.1211,2.1211,2.1211,2.1211,2.1211,2.1211,2.1211,2.1211,2.1211,2.1211,2.1211,2.1211,2.1211,2.1211,2.1211,2.1211,2.1211,2.1211,2.1211,2.1211,2.1211,2.1211,2.1211,2.1211,2.1211,2.1211,2.1211,2.1211,2.1211,2.1211,2.1211,2.1211,2.1211,2.1211,2.1211,2.1211,2.1211,2.1211,2.1211,2.1211,2.1211,2.1211,2.1211,2.1211,2.1211,2.1211,2.1211,2.1211,2.1211,2.1211,2.1211,2.1211,2.1211,2.1211,2.1211,2.1211,2.1211,2.1211,2.1211,2.1211,2.1211,2.1211,2.1211,2.1211,2.1211,2.1211,2.1211,2.1211,2.1346,2.1767,2.1987,2.2015,2.1881,2.1795,2.1696,2.2165,2.2716,2.3328,2.4055,2.4918,2.5872,2.6662,2.7724,2.8179,2.889,2.9475,2.9837,2.9968,2.9994,2.9994,2.9994,2.9994,2.9994,2.9994,2.9994,2.9994,2.9994,2.9994,2.9984,2.9932,2.9973,2.9994,2.9891,2.9787,2.9725,2.9601,2.9425,2.1408,2.1408,2.1401,2.1408,2.1408,2.1408,2.1423,2.1401,2.1423,2.1445,2.1393,2.135,2.132,2.1291,2.124,2.1211,2.1211,2.1211,2.1211,2.1211,2.1211,2.1211,2.1211,2.1211,2.1211,2.1211,2.1211,2.1211,2.1211,2.1211,2.1211,2.1211,2.1211,2.1211,2.1211,2.1211,2.1211,2.1211,2.1211,2.1211,2.1211,2.1211,2.1211,2.1211,2.1211,2.1211,2.1211,2.1211,2.1211,2.1211,2.1211,2.1211,2.1211,2.1211,2.1211,2.1211,2.1211,2.1211,2.1211,2.1211,2.1211,2.1211,2.1211,2.1211,2.1211,2.1211,2.1211,2.1211,2.1211,2.1211,2.1211,2.1211,2.1211,2.1211,2.1211,2.1354,2.1816,2.2312,2.2954,2.2869,2.2546,2.2659,2.2877,2.3608,2.4428,2.5075,2.5826,2.6481,2.724,2.7105,2.7761,2.7992,2.8535,2.9254,2.9695,2.9968,2.9994,2.9994,2.9994,2.9994,2.9994,2.9994,2.9994,2.9994,2.9994,2.9994,2.9994,2.9994,2.9994,2.9994,2.9994,2.9963,2.987,2.986,2.9766,2.2067,2.2067,2.2059,2.2074,2.2045,2.206,2.2052,2.203,2.2008,2.2067,2.2001,2.1767,2.1642,2.1598,2.1364,2.1254,2.1247,2.1298,2.1328,2.1342,2.132,2.1298,2.1233,2.1211,2.1225,2.1218,2.1211,2.1211,2.1211,2.1211,2.1211,2.1211,2.1211,2.1211,2.1211,2.1211,2.1211,2.1211,2.1211,2.1211,2.1211,2.1211,2.1211,2.1211,2.1211,2.1211,2.1211,2.1211,2.1211,2.1211,2.1211,2.1211,2.1211,2.1211,2.1211,2.1211,2.1211,2.1211,2.1211,2.1211,2.1211,2.1211,2.1211,2.1211,2.1211,2.1211,2.1211,2.1211,2.1211,2.1346,2.1403,2.1289,2.1268,2.1461,2.1738,2.215,2.2616,2.348,2.403,2.4495,2.442,2.4495,2.4661,2.547,2.6309,2.6925,2.7519,2.8011,2.8448,2.8208,2.8288,2.8651,2.881,2.9475,2.9695,2.9942,2.9994,2.9994,2.9994,2.9994,2.9994,2.9994,2.9994,2.9994,2.9994,2.9994,2.9994,2.9994,2.9994,2.9994,2.9994,2.9994,2.9984,2.9994,2.9994,2.2498,2.2184,2.2184,2.2184,2.2184,2.2184,2.2184,2.2184,2.2184,2.2184,2.2199,2.2052,2.1979,2.192,2.1803,2.1774,2.1759,2.173,2.1752,2.173,2.1715,2.1642,2.1525,2.1467,2.1423,2.1269,2.1211,2.1211,2.1218,2.1233,2.1211,2.1211,2.1211,2.1211,2.1211,2.1211,2.1211,2.1211,2.1211,2.1211,2.1211,2.1218,2.1218,2.1218,2.1225,2.124,2.124,2.1211,2.1211,2.1211,2.1211,2.1211,2.1211,2.1211,2.1211,2.1211,2.1211,2.1211,2.1211,2.1218,2.1211,2.1211,2.1211,2.1211,2.1211,2.1211,2.1211,2.1211,2.1211,2.1461,2.1979,2.2199,2.2672,2.2862,2.2721,2.3247,2.3883,2.4725,2.5415,2.5881,2.63,2.6264,2.61,2.6163,2.6563,2.6853,2.7205,2.7447,2.8288,2.8936,2.9211,2.9669,2.9722,2.9889,2.9916,2.9994,2.9994,2.9994,2.9994,2.9994,2.9994,2.9994,2.9994,2.9994,2.9994,2.9994,2.9994,2.9994,2.9994,2.9994,2.9994,2.9994,2.9994,2.9994,2.9994,2.2835,2.2418,2.241,2.2418,2.2441,2.2418,2.2432,2.2425,2.247,2.2425,2.2381,2.233,2.2257,2.2221,2.2147,2.2111,2.2154,2.2184,2.2184,2.2184,2.2154,2.2045,2.1876,2.1796,2.1701,2.1452,2.1547,2.154,2.1503,2.1467,2.1445,2.1225,2.1211,2.1211,2.1211,2.1225,2.1247,2.1379,2.1372,2.1415,2.1489,2.1496,2.1489,2.1474,2.1452,2.1452,2.1459,2.1481,2.1481,2.1496,2.1518,2.1547,2.1533,2.1554,2.1547,2.1547,2.1554,2.154,2.1459,2.1379,2.1247,2.1211,2.1211,2.1211,2.1211,2.1211,2.1211,2.1211,2.1211,2.171,2.2312,2.2644,2.3107,2.3631,2.4145,2.4671,2.5149,2.5717,2.6382,2.6961,2.7403,2.7799,2.7493,2.6899,2.6817,2.688,2.6971,2.7133,2.8075,2.9317,2.9643,2.9994,2.9994,2.9994,2.9994,2.9994,2.9994,2.9994,2.9994,2.9994,2.9994,2.9994,2.9994,2.9994,2.9994,2.9994,2.9994,2.9994,2.9994,2.9994,2.9994,2.9994,2.9994,2.9994,2.9994,2.3084,2.3047,2.3032,2.301,2.301,2.304,2.3025,2.2959,2.3003,2.2981,2.2915,2.2732,2.2462,2.2293,2.2293,2.2279,2.2228,2.2191,2.2264,2.2257,2.2184,2.225,2.2162,2.2132,2.2111,2.2045,2.1972,2.1993,2.2096,2.1942,2.1679,2.1306,2.1386,2.1276,2.1284,2.1393,2.1489,2.1613,2.1664,2.1803,2.195,2.2023,2.203,2.2045,2.2081,2.2111,2.2133,2.2023,2.1986,2.1986,2.1972,2.1979,2.1935,2.195,2.195,2.1942,2.195,2.1942,2.1884,2.1598,2.1298,2.1233,2.1269,2.135,2.1386,2.1276,2.124,2.1378,2.1596,2.1751,2.2071,2.2335,2.3868,2.4633,2.5529,2.588,2.6227,2.6382,2.7079,2.7879,2.8264,2.8344,2.8381,2.7664,2.7638,2.7736,2.7897,2.8067,2.8644,2.9606,2.9774,2.9968,2.9994,2.9994,2.9994,2.9994,2.9994,2.9994,2.9994,2.9994,2.9994,2.9994,2.9994,2.9994,2.9994,2.9994,2.9994,2.9994,2.9994,2.9994,2.9994,2.9994,2.9994,2.9994,2.9994,2.3106,2.3106,2.3106,2.3106,2.3106,2.3106,2.3106,2.3106,2.3106,2.3106,2.3106,2.2974,2.2864,2.2769,2.2754,2.2754,2.2754,2.2754,2.2732,2.2754,2.2747,2.263,2.255,2.2425,2.2374,2.225,2.2198,2.2184,2.2162,2.225,2.2133,2.1891,2.1811,2.1847,2.1847,2.1745,2.1862,2.1928,2.1993,2.2118,2.2125,2.2184,2.2184,2.2184,2.2184,2.2184,2.2169,2.2176,2.2184,2.2198,2.2213,2.2235,2.225,2.2242,2.2242,2.2242,2.225,2.2242,2.222,2.1957,2.1818,2.1811,2.1818,2.184,2.1877,2.1869,2.1833,2.2016,2.2549,2.301,2.4142,2.523,2.6363,2.6634,2.6903,2.7213,2.7357,2.7493,2.7647,2.8393,2.8381,2.8318,2.8344,2.8274,2.8461,2.8648,2.8807,2.9019,2.9432,2.9711,2.9853,2.9968,2.9994,2.9994,2.9994,2.9994,2.9994,2.9994,2.9994,2.9994,2.9994,2.9994,2.9994,2.9994,2.9994,2.9994,2.9994,2.9994,2.9994,2.9994,2.9994,2.9994,2.9994,2.9994,2.9994,2.3106,2.3106,2.3106,2.3106,2.3106,2.3106,2.3106,2.3106,2.3106,2.3106,2.3106,2.3106,2.3106,2.3106,2.3091,2.3076,2.3047,2.3054,2.3076,2.3069,2.3018,2.2928,2.2804,2.2716,2.2689,2.2484,2.2462,2.2498,2.252,2.2476,2.2476,2.2476,2.244,2.2381,2.2147,2.2184,2.225,2.2293,2.2315,2.2396,2.244,2.2484,2.2491,2.2506,2.252,2.252,2.2535,2.255,2.2535,2.2528,2.2513,2.2491,2.2476,2.2462,2.2462,2.2454,2.2454,2.2447,2.2432,2.2264,2.2198,2.2103,2.2691,2.2736,2.2789,2.3027,2.3612,2.3593,2.4277,2.5048,2.6036,2.6661,2.7281,2.7427,2.8236,2.8593,2.8524,2.8596,2.8612,2.8848,2.8767,2.8787,2.8718,2.8755,2.8655,2.8846,2.8903,2.9089,2.9396,2.9633,2.9774,2.9889,2.9994,2.9994,2.9994,2.9994,2.9994,2.9994,2.9994,2.9994,2.9994,2.9994,2.9994,2.9994,2.9994,2.9994,2.9994,2.9994,2.9994,2.9994,2.9994,2.9994,2.9994,2.9994,2.9994,2.3142,2.3106,2.3135,2.3142,2.3171,2.3113,2.3106,2.3106,2.3106,2.3106,2.3106,2.3106,2.3106,2.3106,2.3106,2.3106,2.3106,2.3106,2.3106,2.3106,2.3106,2.3084,2.3069,2.3018,2.2967,2.3069,2.2981,2.2923,2.2996,2.293,2.2967,2.2981,2.2886,2.2747,2.225,2.2198,2.2345,2.2579,2.2585,2.2738,2.2908,2.2945,2.2937,2.2937,2.293,2.2908,2.2901,2.2901,2.2893,2.2901,2.2915,2.2923,2.293,2.2945,2.2959,2.2974,2.2996,2.3018,2.3025,2.2543,2.2481,2.2443,2.3037,2.3485,2.4081,2.4726,2.5219,2.4671,2.5595,2.5915,2.6492,2.7183,2.7962,2.8484,2.9271,2.9481,2.9373,2.9276,2.9217,2.9178,2.9383,2.952,2.9373,2.9197,2.8925,2.8914,2.9,2.9168,2.94,2.959,2.9722,2.9863,2.9994,2.9994,2.9994,2.9994,2.9994,2.9994,2.9994,2.9994,2.9994,2.9994,2.9994,2.9994,2.9994,2.9994,2.9994,2.9994,2.9994,2.9994,2.9994,2.9994,2.9994,2.9994,2.9994,2.3757,2.3757,2.3757,2.3757,2.3723,2.3281,2.3106,2.3106,2.3106,2.3113,2.3106,2.3106,2.3106,2.3106,2.3106,2.3106,2.3106,2.3106,2.3106,2.3106,2.3106,2.3106,2.3106,2.3106,2.3106,2.3106,2.3106,2.3106,2.3084,2.3106,2.3106,2.3106,2.3091,2.3003,2.2849,2.2798,2.2879,2.2937,2.2959,2.3003,2.3098,2.3106,2.3106,2.3106,2.3106,2.3106,2.3106,2.3106,2.3106,2.3106,2.3106,2.3106,2.3106,2.3106,2.3106,2.3106,2.3106,2.3106,2.3364,2.3419,2.3634,2.3436,2.3482,2.3916,2.365,2.3741,2.4441,2.5599,2.6605,2.7096,2.7909,2.9147,2.9834,2.9593,2.9932,2.9784,2.9657,2.9569,2.95,2.9481,2.9598,2.9686,2.9637,2.957,2.935,2.9156,2.9213,2.9166,2.9319,2.9536,2.9706,2.9863,2.9994,2.9994,3.0005,2.9973,2.9989,2.9994,2.9994,2.9994,2.9994,2.9994,2.9994,2.9994,2.9994,2.9994,2.9994,2.9994,2.9994,2.9994,2.9994,2.9994,2.9994,2.9994,2.9994,2.4118,2.4118,2.4118,2.4118,2.4045,2.3625,2.3449,2.3449,2.3442,2.3391,2.3296,2.3281,2.3208,2.3142,2.3106,2.3106,2.3106,2.3106,2.3106,2.3106,2.3106,2.3106,2.3106,2.3128,2.3106,2.3113,2.3113,2.3106,2.3106,2.3106,2.3106,2.3106,2.3113,2.3076,2.3054,2.3062,2.3069,2.3069,2.3069,2.3076,2.3106,2.3106,2.3106,2.3106,2.3106,2.3106,2.3106,2.3106,2.3106,2.3106,2.3106,2.3113,2.3113,2.3113,2.3113,2.3106,2.3596,2.372,2.4139,2.504,2.516,2.4785,2.481,2.5078,2.5262,2.6216,2.6716,2.7455,2.7748,2.8465,2.9482,3.0743,3.0665,3.04,3.0332,3.0194,3.0165,3.0087,3.0067,3.0018,2.9989,2.9999,2.997,2.9853,2.9774,2.9612,2.9467,2.9419,2.9359,2.9584,2.9811,2.9981,3.0046,3.0029,2.9984,2.9893,2.9925,2.9978,3.003,3.0102,2.9994,2.9994,2.9994,2.9994,2.9994,2.9994,2.9994,2.9994,2.9994,2.9994,2.9994,2.9994,2.9994,2.9994,2.9994,2.4148,2.4108,2.4148,2.4177,2.4123,2.4155,2.4093,2.4097,2.4049,2.3874,2.3618,2.361,2.3501,2.323,2.3179,2.3215,2.3245,2.323,2.3245,2.3237,2.3318,2.3259,2.3252,2.3259,2.3325,2.3237,2.3237,2.3354,2.3186,2.3303,2.3288,2.323,2.331,2.331,2.3303,2.3303,2.3237,2.3164,2.3106,2.3106,2.3106,2.3106,2.3106,2.3106,2.3106,2.3106,2.3106,2.3106,2.3106,2.3106,2.3106,2.312,2.3128,2.3135,2.3128,2.3469,2.4339,2.4626,2.5207,2.621,2.7041,2.7031,2.8043,2.8648,2.8385,2.8125,2.8394,2.8938,2.9422,3.0069,3.083,3.0859,3.0879,3.0791,3.0791,3.0781,3.0791,3.0771,3.0761,3.0732,3.0713,3.0683,3.0585,3.0449,3.0185,3.0174,3.0043,3.002,2.9968,2.9884,3.008,3.0176,3.0187,3.0062,3.0011,3.005,3.0253,3.0432,3.0261,3.0261,3.0138,3.0077,3.0087,3.0098,3.0025,2.9994,2.9994,2.9994,2.9994,2.9994,2.9994,2.9994,2.9994,2.9994,2.9994,2.4807,2.4814,2.4807,2.4814,2.4807,2.48,2.4558,2.4123,2.4118,2.4013,2.3979,2.3972,2.3852,2.3808,2.3808,2.3811,2.3811,2.3833,2.384,2.3811,2.3698,2.3796,2.3771,2.3742,2.3779,2.3771,2.3764,2.372,2.3779,2.3779,2.3764,2.3815,2.3713,2.3767,2.3774,2.3825,2.3501,2.3281,2.3208,2.3201,2.3186,2.3193,2.3186,2.3193,2.3201,2.3201,2.3193,2.3186,2.3179,2.3157,2.3135,2.3186,2.3457,2.3471,2.3508,2.3811,2.4321,2.4722,2.5842,2.7083,2.8222,2.916,3.009,2.9087,2.8511,2.8439,2.9103,2.9697,3.0089,3.0333,3.0743,3.0898,3.0928,3.0928,3.0928,3.0928,3.0928,3.0928,3.0928,3.0928,3.0928,3.0918,3.0869,3.082,3.0595,3.0644,3.0644,3.0564,3.0493,3.0386,3.033,3.042,3.0304,3.0179,3.0331,3.0394,3.0666,3.0863,3.0634,3.0479,3.0477,3.0407,3.0305,3.0212,3.016,3.0077,2.9994,2.9994,2.9994,2.9994,2.9994,2.9994,2.9994,2.9994,2.9994,2.5093,2.5093,2.5093,2.5093,2.5093,2.5093,2.4844,2.4536,2.4466,2.4448,2.4284,2.4309,2.4236,2.4097,2.4082,2.4082,2.4075,2.4053,2.4053,2.4053,2.4155,2.4075,2.4104,2.414,2.4075,2.4118,2.4126,2.4038,2.4148,2.4126,2.4097,2.4075,2.4118,2.4126,2.4082,2.4023,2.3891,2.3654,2.353,2.3501,2.3471,2.3464,2.3493,2.3464,2.3464,2.3457,2.3464,2.3464,2.3479,2.3493,2.3493,2.3567,2.3971,2.4235,2.52,2.5705,2.6669,2.7191,2.8063,2.9168,3.009,3.0811,3.143,3.0817,2.9948,2.9591,2.973,2.9932,2.9932,3.005,3.0518,3.0928,3.0928,3.0928,3.0928,3.0928,3.0928,3.0928,3.0928,3.0928,3.0928,3.0928,3.0918,3.0928,3.0918,3.0849,3.082,3.081,3.076,3.068,3.0619,3.0665,3.0512,3.032,3.0514,3.0621,3.0676,3.0815,3.082,3.0714,3.0778,3.082,3.0723,3.0532,3.0352,3.0232,3.0086,3.0025,2.9994,2.9994,2.9968,2.9994,2.9994,2.9994,2.9994,2.5093,2.5093,2.5093,2.5093,2.5093,2.5093,2.5071,2.5093,2.5027,2.4917,2.4675,2.4639,2.4499,2.4375,2.4305,2.4324,2.4353,2.4353,2.4368,2.4206,2.4331,2.4346,2.4331,2.4221,2.4375,2.4265,2.425,2.4397,2.4265,2.4316,2.436,2.4192,2.4265,2.4331,2.436,2.4353,2.4294,2.425,2.417,2.4148,2.4045,2.4075,2.4118,2.4067,2.4053,2.4053,2.4067,2.4089,2.4118,2.4104,2.4276,2.4304,2.518,2.5821,2.708,2.7758,2.8564,2.9237,2.9789,3.0723,3.1532,3.2017,3.2276,3.1995,3.1339,3.0746,3.0725,3.0727,3.0864,3.0864,3.1249,3.1377,3.1377,3.1367,3.1367,3.127,3.1123,3.1045,3.0928,3.0928,3.0928,3.0928,3.0928,3.0928,3.0928,3.0928,3.0928,3.0928,3.0888,3.0859,3.0858,3.0848,3.0699,3.0558,3.067,3.0723,3.0578,3.0625,3.0855,3.0913,3.0927,3.1045,3.1168,3.0876,3.0574,3.0343,3.0225,3.0084,2.9955,2.9889,2.9889,2.9968,2.9968,2.9978,2.9994,2.5093,2.5093,2.5093,2.5093,2.5093,2.5093,2.5093,2.5093,2.5093,2.5042,2.4976,2.4954,2.4917,2.4793,2.4771,2.4771,2.4793,2.4719,2.4836,2.48,2.4778,2.4705,2.4814,2.4734,2.48,2.4858,2.4858,2.4785,2.4756,2.4785,2.4836,2.4836,2.4793,2.4756,2.4756,2.4763,2.4756,2.4727,2.4727,2.4521,2.4258,2.4155,2.4118,2.414,2.4155,2.4199,2.4192,2.417,2.414,2.4176,2.5253,2.6271,2.764,2.8124,2.8591,2.9006,2.9629,3.0338,3.1005,3.1637,3.2149,3.2733,3.2851,3.2715,3.244,3.212,3.1895,3.1876,3.1837,3.1827,3.1817,3.1817,3.1817,3.1817,3.1817,3.1612,3.1396,3.1201,3.1006,3.0986,3.0986,3.0986,3.1006,3.0986,3.0928,3.0928,3.0928,3.0928,3.0928,3.0908,3.0898,3.0869,3.0888,3.0828,3.0885,3.0844,3.0712,3.0885,3.1162,3.1146,3.1077,3.1177,3.1246,3.1021,3.0785,3.056,3.0285,3.0001,2.9896,2.9903,2.9808,2.9876,2.9962,2.9967,2.9989,2.5093,2.5093,2.5093,2.5093,2.5093,2.5093,2.5093,2.5093,2.5093,2.5093,2.5093,2.5093,2.5093,2.5093,2.5093,2.5093,2.5093,2.5086,2.5027,2.5064,2.5093,2.5056,2.5093,2.5093,2.5049,2.5086,2.5086,2.5064,2.5093,2.5078,2.5056,2.5093,2.5093,2.5093,2.5093,2.5093,2.5093,2.5078,2.5093,2.4866,2.4481,2.4521,2.4543,2.4551,2.4543,2.4529,2.4551,2.4551,2.4558,2.4624,2.5267,2.6856,2.8095,2.889,2.9856,3.0739,3.135,3.1405,3.195,3.2269,3.2502,3.3017,3.324,3.3057,3.3066,3.2705,3.2363,3.2305,3.2081,3.2042,3.2042,3.2042,3.2042,3.2042,3.2042,3.1944,3.1856,3.1749,3.1651,3.1651,3.1641,3.1641,3.1651,3.1661,3.1553,3.123,3.1182,3.1045,3.1035,3.1074,3.1035,3.0976,3.1006,3.0957,3.0917,3.0917,3.0916,3.114,3.1344,3.1368,3.1308,3.1327,3.1306,3.1114,3.0903,3.0711,3.0456,3.0138,3.0085,3.0157,2.9974,2.9804,2.9899,3.0002,2.9982,2.5093,2.5093,2.5093,2.5093,2.5093,2.5093,2.5093,2.5093,2.5093,2.5093,2.5093,2.5093,2.5093,2.5093,2.5093,2.5093,2.5093,2.5093,2.5093,2.5093,2.5093,2.5093,2.5093,2.5093,2.5093,2.5093,2.5093,2.5093,2.5093,2.5093,2.5093,2.5093,2.5093,2.5093,2.5093,2.5093,2.5093,2.5093,2.5093,2.5093,2.5071,2.5093,2.5027,2.5042,2.5093,2.5093,2.5086,2.5086,2.5078,2.5827,2.6319,2.8155,2.9405,3.0425,3.1272,3.2279,3.2734,3.2892,3.3187,3.3124,3.325,3.3367,3.3386,3.3377,3.3357,3.3191,3.2881,3.2685,3.2472,3.2384,3.2394,3.2394,3.2394,3.2364,3.2364,3.2316,3.2276,3.2208,3.2169,3.2169,3.2169,3.2159,3.2169,3.2198,3.2032,3.1699,3.1514,3.1348,3.126,3.1367,3.1397,3.124,3.1152,3.1103,3.0996,3.0947,3.0976,3.1005,3.117,3.1392,3.1535,3.1393,3.13,3.1199,3.1019,3.0868,3.0612,3.031,3.0334,3.0319,3.0076,2.9903,3.0029,3.0105,2.9978,2.5093,2.5093,2.5093,2.5093,2.5093,2.5093,2.5093,2.5093,2.5093,2.5093,2.5093,2.5093,2.5093,2.5093,2.5093,2.5093,2.5093,2.5093,2.5093,2.5093,2.5093,2.5093,2.5093,2.5093,2.5093,2.5093,2.5093,2.5093,2.5093,2.5093,2.5093,2.5093,2.5093,2.5093,2.5093,2.5093,2.5093,2.5093,2.5093,2.5093,2.5093,2.5093,2.5093,2.5093,2.5093,2.5093,2.5093,2.5093,2.5779,2.6986,2.855,3.0216,3.1235,3.1822,3.2511,3.2902,3.3386,3.3386,3.3386,3.3386,3.3386,3.3386,3.3386,3.3386,3.3377,3.3367,3.3162,3.3162,3.3037,3.3037,3.3047,3.3047,3.3037,3.2949,3.291,3.2764,3.2676,3.2461,3.2335,3.2335,3.2314,3.2335,3.2345,3.2345,3.2325,3.208,3.2041,3.1915,3.1788,3.1788,3.1768,3.1582,3.1416,3.1143,3.1006,3.0937,3.0918,3.0947,3.0976,3.1141,3.1257,3.1305,3.1216,3.1134,3.1114,3.1025,3.0769,3.0513,3.0375,3.0294,3.0113,3.0015,3.0173,3.0211,3.0109]},{"header":{"parameterUnit":"m.s-1","parameterCategory":1,"la1":31.0,"la2":29.5877,"lo1":-88.7671,"lo2":-86.6584,"dy":0.0162,"dx":0.0185,"nx":115,"ny":88,"refTime":"2023-03-26T06:00:00:Z","depth":0,"parameterNumber":3,"parameterNumberName":"V-component_of_WINDS"},"data":[0.0,0.0,0.0,0.0,0.0,0.0,0.0,0.0,0.0,0.0,0.0,0.0,0.0,0.0,0.0,0.0,0.0,0.0,0.0,0.0,0.0,0.0,0.0,0.0,0.0,0.0,0.0,0.0,0.0,0.0,0.0,0.0,0.0,0.0,0.0,0.0,0.0,0.0,0.0,0.0,0.0,0.0,0.0,0.0,0.0,0.0,0.0,0.0,0.0,0.0,0.0,0.0,0.0,0.0,0.0,0.0,0.0,0.0,0.0,0.0,0.0,0.0,0.0,0.0,0.0,0.0,0.0,0.0,0.0,0.0,0.0,0.0,0.0,0.0,0.0,0.0,0.0,0.0,0.0,0.0,0.0,0.0,0.0,0.0,0.0,0.0,0.0,0.0,0.0,0.0,0.0,0.0,0.0,0.0,0.0,0.0,0.0,0.0,0.0,0.0,0.0,0.0,0.0,0.0,0.0,0.0,0.0,0.0,0.0,0.0,0.0,0.0,0.0,0.0,0.0,0.0,0.0,0.0,0.0,0.0,0.0,0.0,0.0,0.0,0.0,0.0,0.0,0.0,0.0,0.0,0.0,0.0,0.0,0.0,0.0,0.0,0.0,0.0,0.0,0.0,0.0,0.0,0.0,0.0,0.0,0.0,0.0,0.0,0.0,0.0,0.0,0.0,0.0,0.0,0.0,0.0,0.0,0.0,0.0,0.0,0.0,0.0,0.0,0.0,0.0,0.0,0.0,0.0,0.0,0.0,0.0,0.0,0.0,0.0,0.0,0.0,0.0,0.0,0.0,0.0,0.0,0.0,0.0,0.0,0.0,0.0,0.0,0.0,0.0,0.0,0.0,0.0,0.0,0.0,0.0,0.0,0.0,0.0,0.0,0.0,0.0,0.0,0.0,0.0,0.0,0.0,0.0,0.0,0.0,0.0,0.0,0.0,0.0,0.0,0.0,0.0,0.0,0.0,0.0,0.0,0.0,0.0,0.0,0.0,0.0,0.0,0.0,0.0,0.0,0.0,0.0,0.0,0.0,0.0,0.0,0.0,0.0,0.0,0.0,0.0,0.0,0.0,0.0,0.0,0.0,0.0,0.0,0.0,0.0,0.0,0.0,0.0,0.0,0.0,0.0,0.0,0.0,0.0,0.0,0.0,0.0,0.0,0.0,0.0,0.0,0.0,0.0,0.0,0.0,0.0,0.0,0.0,0.0,0.0,0.0,0.0,0.0,0.0,0.0,0.0,0.0,0.0,0.0,0.0,0.0,0.0,0.0,0.0,0.0,0.0,0.0,0.0,0.0,0.0,0.0,0.0,0.0,0.0,0.0,0.0,0.0,0.0,0.0,0.0,0.0,0.0,0.0,0.0,0.0,0.0,0.0,0.0,0.0,0.0,0.0,0.0,0.0,0.0,0.0,0.0,0.0,0.0,0.0,0.0,0.0,0.0,0.0,0.0,0.0,0.0,0.0,0.0,0.0,0.0,0.0,0.0,0.0,0.0,0.0,0.0,0.0,0.0,0.0,0.0,0.0,0.0,0.0,0.0,0.0,0.0,0.0,0.0,0.0,0.0,0.0,0.0,0.0,0.0,0.0,0.0,0.0,0.0,0.0,0.0,0.0,0.0,0.0,0.0,0.0,0.0,0.0,0.0,0.0,0.0,0.0,0.0,0.0,0.0,0.0,0.0,0.0,0.0,0.0,0.0,0.0,0.0,0.0,0.0,0.0,0.0,0.0,0.0,0.0,0.0,0.0,0.0,0.0,0.0,0.0,0.0,0.0,0.0,0.0,0.0,0.0,0.0,0.0,0.0,0.0,0.0,0.0,0.0,0.0,0.0,0.0,0.0,0.0,0.0,0.0,0.0,0.0,0.0,0.0,0.0,0.0,0.0,0.0,0.0,0.0,0.0,0.0,0.0,0.0,0.0,0.0,0.0,0.0,0.0,0.0,0.0,0.0,0.0,0.0,0.0,0.0,0.0,0.0,0.0,0.0,0.0,0.0,0.0,0.0,0.0,0.0,0.0,0.0,0.0,0.0,0.0,0.0,0.0,0.0,0.0,0.0,0.0,0.0,0.0,0.0,0.0,0.0,0.0,0.0,0.0,0.0,0.0,0.0,0.0,0.0,0.0,0.0,0.0,0.0,0.0,0.0,0.0,0.0,0.0,0.0,0.0,0.0,0.0,0.0,0.0,0.0,0.0,0.0,0.0,0.0,0.0,0.0,0.0,0.0,0.0,0.0,0.0,0.0,0.0,0.0,0.0,0.0,0.0,0.0,0.0,0.0,0.0,0.0,0.0,0.0,0.0,0.0,0.0,0.0,0.0,0.0,0.0,0.0,0.0,0.0,0.0,0.0,0.0,0.0,0.0,0.0,0.0,0.0,0.0,0.0,0.0,0.0,0.0,0.0,0.0,0.0,0.0,0.0,0.0,0.0,0.0,0.0,0.0,0.0,0.0,0.0,0.0,0.0,0.0,0.0,0.0,0.0,0.0,0.0,0.0,0.0,0.0,0.0,0.0,0.0,0.0,0.0,0.0,0.0,0.0,0.0,0.0,0.0,0.0,0.0,0.0,0.0,0.0,0.0,0.0,0.0,0.0,0.0,0.0,0.0,0.0,0.0,0.0,0.0,0.0,0.0,0.0,0.0,0.0,0.0,0.0,0.0,0.0,0.0,0.0,0.0,0.0,0.0,0.0,0.0,0.0,0.0,0.0,0.0,0.0,0.0,0.0,0.0,0.0,0.0,0.0,0.0,0.0,0.0,0.0,0.0,0.0,0.0,0.0,0.0,0.0,0.0,0.0,0.0,0.0,0.0,0.0,0.0,0.0,0.0,0.0,0.0,0.0,0.0,0.0,0.0,0.0,0.0,0.0,0.0,0.0,0.0,0.0,0.0,0.0,0.0,0.0,0.0,0.0,0.0,0.0,0.0,0.0,0.0,0.0,0.0,0.0,0.0,0.0,0.0,0.0,0.0,0.0,0.0,0.0,0.0,0.0,0.0,0.0,0.0,0.0,0.0,0.0,0.0,0.0,0.0,0.0,0.0,0.0,0.0,0.0,0.0,0.0,0.0,0.0,0.0,0.0,0.0,0.0,0.0,0.0,0.0,0.0,0.0,0.0,0.0,0.0,0.0,0.0,0.0,0.0,0.0,0.0,0.0,0.0,0.0,0.0,0.0,0.0,0.0,0.0,0.0,0.0,0.0,0.0,0.0,0.0,0.0,0.0,0.0,0.0,0.0,0.0,0.0,0.0,0.0,0.0,0.0,0.0,0.0,0.0,0.0,0.0,0.0,0.0,0.0,0.0,0.0,0.0,0.0,0.0,0.0,0.0,0.0,0.0,0.0,0.0,0.0,0.0,0.0,0.0,0.0,0.0,0.0,0.0,0.0,0.0,0.0,0.0,0.0,0.0,0.0,0.0,0.0,0.0,0.0,0.0,0.0,0.0,0.0,0.0,0.0,0.0,0.0,0.0,0.0,0.0,0.0,0.0,0.0,0.0,0.0,0.0,0.0,0.0,0.0,0.0,0.0,0.0,0.0,0.0,0.0,0.0,0.0,0.0,0.0,0.0,0.0,0.0,0.0,0.0,0.0,0.0,0.0,0.0,0.0,0.0,0.0,0.0,0.0,0.0,0.0,0.0,0.0,0.0,0.0,0.0,0.0,0.0,0.0,0.0,0.0,0.0,0.0,0.0,0.0,0.0,0.0,0.0,0.0,0.0,0.0,0.0,0.0,0.0,0.0,0.0,0.0,0.0,0.0,0.0,0.0,0.0,0.0,0.0,0.0,0.0,0.0,0.0,0.0,0.0,0.0,0.0,0.0,0.0,0.0,0.0,0.0,0.0,0.0,0.0,0.0,0.0,0.0,0.0,0.0,0.0,0.0,0.0,0.0,0.0,0.0,0.0,0.0,0.0,0.0,0.0,0.0,0.0,0.0,0.0,0.0,0.0,0.0,0.0,0.0,0.0,0.0,0.0,0.0,0.0,0.0,0.0,0.0,0.0,0.0,0.0,0.0,0.0,0.0,0.0,0.0,0.0,0.0,0.0,0.0,0.0,0.0,0.0,0.0,0.0,0.0,0.0,0.0,0.0,0.0,0.0,0.0,0.0,0.0,0.0,0.0,0.0,0.0,0.0,0.0,0.0,0.0,0.0,0.0,0.0,0.0,0.0,0.0,0.0,0.0,0.0,0.0,0.0,0.0,0.0,0.0,0.0,0.0,0.0,0.0,0.0,0.0,0.0,0.0,0.0,0.0,0.0,0.0,0.0,0.0,0.0,2.3095,0.0,0.0,0.0,0.0,0.0,0.0,0.0,0.0,0.0,0.0,0.0,0.0,0.0,0.0,0.0,0.0,0.0,0.0,0.0,0.0,0.0,0.0,0.0,0.0,0.0,0.0,0.0,0.0,0.0,0.0,0.0,0.0,0.0,0.0,0.0,0.0,0.0,0.0,0.0,0.0,0.0,0.0,0.0,0.0,0.0,0.0,0.0,0.0,0.0,0.0,0.0,0.0,0.0,0.0,0.0,0.0,0.0,0.0,0.0,0.0,0.0,0.0,0.0,0.0,0.0,0.0,0.0,0.0,0.0,0.0,0.0,0.0,0.0,0.0,0.0,0.0,0.0,0.0,0.0,0.0,0.0,0.0,0.0,0.0,0.0,0.0,0.0,0.0,0.0,0.0,0.0,0.0,0.0,0.0,0.0,0.0,0.0,0.0,0.0,0.0,0.0,0.0,0.0,0.0,0.0,0.0,0.0,0.0,0.0,0.0,2.3095,2.3095,2.3095,2.3153,2.3256,0.0,0.0,0.0,0.0,0.0,0.0,0.0,0.0,0.0,0.0,0.0,0.0,0.0,0.0,0.0,0.0,0.0,0.0,0.0,0.0,0.0,0.0,0.0,0.0,0.0,0.0,0.0,0.0,0.0,0.0,0.0,0.0,0.0,0.0,0.0,0.0,0.0,0.0,0.0,0.0,0.0,0.0,0.0,0.0,0.0,0.0,0.0,0.0,0.0,0.0,0.0,0.0,0.0,0.0,0.0,0.0,0.0,0.0,0.0,0.0,0.0,0.0,0.0,0.0,0.0,0.0,0.0,0.0,0.0,0.0,0.0,0.0,0.0,0.0,0.0,0.0,0.0,0.0,0.0,0.0,0.0,0.0,0.0,0.0,0.0,0.0,0.0,0.0,0.0,0.0,0.0,0.0,0.0,0.0,0.0,0.0,0.0,0.0,0.0,0.0,0.0,0.0,0.0,0.0,0.0,0.0,0.0,0.0,0.0,0.0,0.0,0.0,2.3095,2.3195,2.3403,0.0,0.0,0.0,0.0,0.0,0.0,0.0,0.0,0.0,0.0,0.0,0.0,0.0,0.0,0.0,0.0,0.0,0.0,0.0,0.0,0.0,0.0,0.0,0.0,0.0,0.0,0.0,0.0,0.0,0.0,0.0,0.0,0.0,0.0,0.0,0.0,0.0,0.0,0.0,0.0,0.0,0.0,0.0,0.0,0.0,0.0,0.0,0.0,0.0,0.0,0.0,0.0,0.0,0.0,0.0,0.0,0.0,0.0,0.0,0.0,0.0,0.0,0.0,0.0,0.0,0.0,0.0,0.0,0.0,0.0,0.0,0.0,0.0,0.0,0.0,0.0,0.0,0.0,0.0,0.0,0.0,0.0,0.0,0.0,0.0,0.0,0.0,0.0,0.0,0.0,0.0,0.0,0.0,0.0,0.0,0.0,0.0,0.0,0.0,0.0,0.0,0.0,0.0,0.0,0.0,0.0,0.0,0.0,0.0,0.0,2.3095,2.3095,2.3095,0.0,2.3375,0.0,0.0,0.0,0.0,0.0,0.0,0.0,0.0,0.0,0.0,0.0,0.0,0.0,0.0,0.0,0.0,0.0,0.0,0.0,0.0,0.0,0.0,0.0,0.0,0.0,0.0,0.0,0.0,0.0,0.0,0.0,0.0,0.0,0.0,0.0,0.0,0.0,0.0,0.0,0.0,0.0,0.0,0.0,0.0,0.0,0.0,0.0,0.0,0.0,0.0,0.0,0.0,0.0,0.0,0.0,0.0,0.0,0.0,0.0,0.0,0.0,0.0,0.0,0.0,0.0,0.0,0.0,0.0,0.0,0.0,0.0,0.0,0.0,0.0,0.0,0.0,0.0,0.0,0.0,0.0,0.0,0.0,0.0,0.0,0.0,0.0,0.0,0.0,0.0,0.0,0.0,0.0,0.0,0.0,0.0,0.0,0.0,0.0,0.0,0.0,0.0,0.0,0.0,0.0,0.0,0.0,0.0,0.0,0.0,0.0,2.3213,2.3095,2.3213,2.3164,0.0,0.0,0.0,0.0,0.0,0.0,0.0,0.0,0.0,0.0,0.0,0.0,0.0,0.0,0.0,0.0,0.0,0.0,0.0,0.0,0.0,0.0,0.0,0.0,0.0,0.0,0.0,0.0,0.0,0.0,0.0,0.0,0.0,0.0,0.0,0.0,0.0,0.0,0.0,0.0,0.0,0.0,0.0,0.0,0.0,0.0,0.0,0.0,0.0,0.0,0.0,0.0,0.0,0.0,0.0,0.0,0.0,0.0,0.0,0.0,0.0,0.0,0.0,0.0,0.0,0.0,0.0,0.0,0.0,0.0,0.0,0.0,0.0,0.0,0.0,0.0,0.0,0.0,0.0,0.0,0.0,0.0,0.0,0.0,0.0,0.0,0.0,0.0,0.0,0.0,0.0,0.0,0.0,0.0,0.0,0.0,0.0,0.0,0.0,0.0,0.0,0.0,0.0,0.0,0.0,0.0,0.0,0.0,0.0,0.0,2.3463,2.3345,2.3123,2.3089,2.2989,2.275,0.0,0.0,0.0,0.0,0.0,0.0,0.0,0.0,0.0,0.0,0.0,0.0,0.0,0.0,0.0,0.0,0.0,0.0,0.0,0.0,0.0,0.0,0.0,0.0,0.0,0.0,0.0,0.0,0.0,0.0,0.0,0.0,0.0,0.0,0.0,0.0,0.0,0.0,0.0,0.0,0.0,0.0,0.0,0.0,0.0,0.0,0.0,0.0,0.0,0.0,0.0,0.0,0.0,0.0,0.0,0.0,0.0,0.0,0.0,0.0,0.0,0.0,0.0,0.0,0.0,0.0,0.0,0.0,0.0,0.0,0.0,0.0,0.0,0.0,0.0,0.0,0.0,0.0,0.0,0.0,0.0,0.0,0.0,0.0,0.0,0.0,0.0,0.0,0.0,0.0,0.0,0.0,0.0,0.0,0.0,0.0,0.0,0.0,0.0,0.0,0.0,0.0,0.0,0.0,0.0,0.0,0.0,0.0,2.3613,2.3599,2.3435,2.3098,2.2621,2.2585,0.0,0.0,0.0,0.0,0.0,0.0,0.0,0.0,0.0,0.0,0.0,0.0,0.0,0.0,0.0,0.0,0.0,0.0,0.0,0.0,0.0,0.0,0.0,0.0,0.0,0.0,0.0,0.0,0.0,0.0,0.0,0.0,0.0,0.0,0.0,0.0,0.0,0.0,0.0,0.0,0.0,0.0,0.0,0.0,0.0,0.0,0.0,0.0,0.0,0.0,0.0,0.0,0.0,0.0,0.0,0.0,0.0,0.0,0.0,0.0,0.0,0.0,0.0,0.0,0.0,0.0,0.0,0.0,0.0,0.0,0.0,0.0,0.0,0.0,0.0,0.0,0.0,0.0,0.0,0.0,0.0,0.0,0.0,0.0,0.0,0.0,0.0,0.0,0.0,0.0,0.0,0.0,0.0,0.0,0.0,0.0,0.0,0.0,0.0,0.0,0.0,0.0,0.0,0.0,0.0,0.0,0.0,0.0,0.0,2.4147,2.3603,2.3124,2.2795,2.2717,2.233,0.0,0.0,0.0,0.0,0.0,0.0,0.0,0.0,0.0,0.0,0.0,0.0,0.0,0.0,0.0,0.0,0.0,0.0,0.0,0.0,0.0,0.0,0.0,0.0,0.0,0.0,0.0,0.0,0.0,0.0,0.0,0.0,0.0,0.0,0.0,0.0,0.0,0.0,0.0,0.0,0.0,0.0,0.0,0.0,0.0,0.0,0.0,0.0,0.0,0.0,0.0,0.0,0.0,0.0,0.0,0.0,0.0,0.0,0.0,0.0,0.0,0.0,0.0,0.0,0.0,0.0,0.0,0.0,0.0,0.0,0.0,0.0,0.0,0.0,0.0,0.0,0.0,0.0,0.0,0.0,0.0,0.0,0.0,0.0,0.0,0.0,0.0,0.0,0.0,0.0,0.0,0.0,0.0,0.0,0.0,0.0,0.0,0.0,0.0,0.0,0.0,0.0,0.0,0.0,0.0,0.0,0.0,0.0,0.0,2.4681,0.0,2.3453,2.3005,2.2951,2.2361,0.0,0.0,0.0,0.0,0.0,0.0,0.0,0.0,0.0,0.0,0.0,0.0,0.0,0.0,0.0,0.0,0.0,0.0,0.0,0.0,0.0,0.0,0.0,0.0,0.0,0.0,0.0,0.0,0.0,0.0,0.0,0.0,0.0,0.0,0.0,0.0,0.0,0.0,0.0,0.0,0.0,0.0,0.0,0.0,0.0,0.0,0.0,0.0,0.0,0.0,0.0,0.0,0.0,0.0,0.0,0.0,0.0,0.0,0.0,0.0,0.0,0.0,0.0,0.0,0.0,0.0,0.0,0.0,0.0,0.0,0.0,0.0,0.0,0.0,0.0,0.0,0.0,0.0,0.0,0.0,0.0,0.0,0.0,0.0,0.0,0.0,0.0,0.0,0.0,0.0,0.0,0.0,0.0,0.0,0.0,0.0,0.0,0.0,0.0,0.0,0.0,0.0,0.0,0.0,0.0,0.0,0.0,0.0,2.5564,2.5188,2.4892,2.4394,2.3789,2.3265,2.2724,0.0,0.0,0.0,0.0,0.0,0.0,0.0,0.0,0.0,0.0,0.0,0.0,0.0,0.0,0.0,0.0,0.0,0.0,0.0,0.0,0.0,0.0,0.0,0.0,0.0,0.0,0.0,0.0,0.0,0.0,0.0,0.0,0.0,0.0,0.0,0.0,0.0,0.0,0.0,0.0,0.0,0.0,0.0,0.0,0.0,0.0,0.0,0.0,0.0,0.0,0.0,0.0,0.0,0.0,0.0,0.0,0.0,0.0,0.0,0.0,0.0,0.0,0.0,0.0,0.0,0.0,0.0,0.0,0.0,0.0,0.0,0.0,0.0,0.0,0.0,0.0,0.0,0.0,0.0,0.0,0.0,0.0,0.0,0.0,0.0,0.0,0.0,0.0,0.0,0.0,0.0,0.0,0.0,0.0,0.0,0.0,0.0,0.0,0.0,0.0,0.0,0.0,0.0,0.0,0.0,0.0,0.0,0.0,0.0,2.4649,2.4507,2.4064,2.3282,2.3271,2.287,0.0,0.0,0.0,0.0,0.0,0.0,0.0,0.0,0.0,0.0,0.0,0.0,0.0,0.0,0.0,0.0,0.0,0.0,0.0,0.0,0.0,0.0,0.0,0.0,0.0,0.0,0.0,0.0,0.0,0.0,0.0,0.0,0.0,0.0,0.0,0.0,0.0,0.0,0.0,0.0,0.0,0.0,0.0,0.0,0.0,0.0,0.0,0.0,0.0,0.0,0.0,0.0,0.0,0.0,0.0,0.0,0.0,0.0,0.0,0.0,0.0,0.0,0.0,0.0,0.0,0.0,0.0,0.0,0.0,0.0,0.0,0.0,0.0,0.0,0.0,0.0,0.0,0.0,0.0,0.0,0.0,0.0,0.0,0.0,0.0,0.0,0.0,0.0,0.0,0.0,0.0,0.0,0.0,0.0,0.0,0.0,0.0,0.0,0.0,0.0,0.0,0.0,0.0,0.0,0.0,0.0,0.0,0.0,0.0,2.5186,2.5492,2.5229,2.4309,2.4262,2.3646,2.2363,0.0,0.0,0.0,0.0,0.0,0.0,0.0,0.0,0.0,0.0,0.0,0.0,0.0,0.0,0.0,0.0,0.0,0.0,0.0,0.0,0.0,0.0,0.0,0.0,0.0,0.0,0.0,0.0,0.0,0.0,0.0,0.0,0.0,0.0,0.0,0.0,0.0,0.0,0.0,0.0,0.0,0.0,0.0,0.0,0.0,0.0,0.0,0.0,0.0,0.0,0.0,0.0,0.0,0.0,0.0,0.0,0.0,0.0,0.0,0.0,0.0,0.0,0.0,0.0,0.0,0.0,0.0,0.0,0.0,0.0,0.0,0.0,0.0,0.0,0.0,0.0,0.0,0.0,0.0,0.0,0.0,0.0,0.0,0.0,0.0,0.0,0.0,0.0,0.0,0.0,0.0,0.0,0.0,0.0,0.0,0.0,0.0,0.0,0.0,0.0,0.0,0.0,0.0,0.0,0.0,0.0,0.0,0.0,2.6537,2.761,2.7653,2.6494,2.5963,2.4841,0.0,0.0,0.0,0.0,0.0,0.0,0.0,0.0,0.0,0.0,0.0,0.0,0.0,0.0,0.0,0.0,0.0,0.0,0.0,0.0,0.0,0.0,0.0,0.0,0.0,0.0,0.0,0.0,0.0,0.0,0.0,0.0,0.0,0.0,0.0,0.0,0.0,0.0,0.0,0.0,0.0,0.0,0.0,0.0,0.0,0.0,0.0,0.0,0.0,0.0,0.0,0.0,0.0,0.0,0.0,0.0,0.0,0.0,0.0,0.0,0.0,0.0,0.0,0.0,0.0,0.0,0.0,0.0,0.0,0.0,0.0,0.0,0.0,0.0,0.0,0.0,0.0,0.0,0.0,0.0,0.0,0.0,0.0,0.0,0.0,0.0,0.0,0.0,0.0,0.0,0.0,0.0,0.0,0.0,0.0,0.0,0.0,0.0,0.0,0.0,0.0,0.0,0.0,0.0,0.0,0.0,0.0,0.0,0.0,2.7954,2.9766,2.9735,2.7524,2.6558,2.5666,0.0,0.0,0.0,0.0,0.0,0.0,0.0,0.0,0.0,0.0,0.0,0.0,0.0,0.0,0.0,0.0,0.0,0.0,0.0,0.0,0.0,0.0,0.0,0.0,0.0,0.0,0.0,0.0,0.0,0.0,0.0,0.0,0.0,0.0,0.0,0.0,0.0,0.0,0.0,0.0,0.0,0.0,0.0,0.0,0.0,0.0,0.0,0.0,0.0,0.0,0.0,0.0,0.0,0.0,0.0,0.0,0.0,0.0,0.0,0.0,0.0,0.0,0.0,0.0,0.0,0.0,0.0,0.0,0.0,0.0,0.0,0.0,0.0,0.0,0.0,0.0,0.0,0.0,0.0,0.0,0.0,0.0,0.0,0.0,0.0,0.0,0.0,0.0,0.0,0.0,0.0,0.0,0.0,0.0,0.0,0.0,0.0,0.0,0.0,0.0,0.0,0.0,0.0,0.0,0.0,0.0,0.0,0.0,3.0278,2.8554,3.1368,3.1768,2.9407,2.7607,2.6383,0.0,0.0,0.0,0.0,0.0,0.0,0.0,0.0,0.0,0.0,0.0,0.0,0.0,0.0,0.0,0.0,0.0,0.0,0.0,0.0,0.0,0.0,0.0,0.0,0.0,0.0,0.0,0.0,0.0,0.0,0.0,0.0,0.0,0.0,0.0,0.0,0.0,0.0,0.0,0.0,0.0,0.0,0.0,0.0,0.0,0.0,0.0,0.0,0.0,0.0,0.0,0.0,0.0,0.0,0.0,0.0,0.0,0.0,0.0,0.0,0.0,0.0,0.0,0.0,0.0,0.0,0.0,0.0,0.0,0.0,0.0,0.0,0.0,0.0,0.0,0.0,0.0,0.0,0.0,0.0,0.0,0.0,0.0,0.0,0.0,0.0,0.0,0.0,0.0,0.0,0.0,0.0,0.0,0.0,0.0,0.0,0.0,0.0,0.0,0.0,0.0,0.0,0.0,0.0,0.0,0.0,0.0,0.0,3.0883,2.9109,3.2544,3.3477,3.1511,2.8827,2.7006,0.0,0.0,0.0,0.0,0.0,0.0,0.0,0.0,0.0,0.0,0.0,0.0,0.0,0.0,0.0,0.0,0.0,0.0,0.0,0.0,0.0,0.0,0.0,0.0,0.0,0.0,0.0,0.0,0.0,0.0,0.0,0.0,0.0,0.0,0.0,0.0,0.0,0.0,0.0,0.0,0.0,0.0,0.0,0.0,0.0,0.0,0.0,0.0,0.0,0.0,0.0,0.0,0.0,0.0,0.0,0.0,0.0,0.0,0.0,0.0,0.0,0.0,0.0,0.0,0.0,0.0,0.0,0.0,0.0,0.0,0.0,0.0,0.0,0.0,0.0,0.0,0.0,0.0,0.0,0.0,0.0,0.0,0.0,0.0,0.0,0.0,0.0,0.0,0.0,0.0,0.0,0.0,0.0,0.0,0.0,0.0,0.0,0.0,0.0,0.0,0.0,0.0,0.0,0.0,0.0,0.0,0.0,0.0,3.2298,3.1229,3.329,3.3462,3.154,2.9132,2.7354,0.0,0.0,0.0,0.0,0.0,0.0,0.0,0.0,0.0,0.0,0.0,0.0,0.0,0.0,0.0,0.0,0.0,0.0,0.0,0.0,0.0,0.0,0.0,0.0,0.0,0.0,0.0,0.0,0.0,0.0,0.0,0.0,0.0,0.0,0.0,0.0,0.0,0.0,0.0,0.0,0.0,0.0,0.0,0.0,0.0,0.0,0.0,0.0,3.1885,0.0,0.0,0.0,0.0,0.0,0.0,0.0,0.0,0.0,0.0,0.0,0.0,0.0,0.0,0.0,0.0,0.0,0.0,0.0,0.0,0.0,0.0,0.0,0.0,0.0,0.0,0.0,0.0,0.0,0.0,0.0,0.0,0.0,0.0,0.0,0.0,0.0,0.0,0.0,0.0,0.0,0.0,0.0,0.0,0.0,0.0,0.0,0.0,0.0,0.0,0.0,0.0,0.0,0.0,0.0,0.0,0.0,0.0,0.0,3.3036,3.2992,3.445,3.4455,3.2845,3.0706,2.8675,0.0,0.0,0.0,0.0,0.0,0.0,0.0,0.0,0.0,0.0,0.0,0.0,0.0,0.0,0.0,0.0,0.0,0.0,0.0,0.0,0.0,0.0,0.0,0.0,0.0,0.0,0.0,0.0,0.0,0.0,0.0,0.0,0.0,0.0,0.0,0.0,0.0,0.0,0.0,0.0,0.0,0.0,0.0,0.0,0.0,0.0,0.0,0.0,0.0,0.0,0.0,0.0,0.0,0.0,0.0,0.0,0.0,0.0,0.0,0.0,0.0,0.0,0.0,0.0,0.0,0.0,0.0,0.0,0.0,0.0,0.0,0.0,0.0,0.0,0.0,0.0,0.0,0.0,0.0,0.0,0.0,0.0,0.0,0.0,0.0,0.0,0.0,0.0,0.0,0.0,0.0,0.0,0.0,0.0,0.0,0.0,0.0,0.0,0.0,0.0,0.0,0.0,0.0,0.0,0.0,0.0,0.0,3.3179,3.3733,3.4662,3.5779,3.5661,3.4202,3.2386,3.0013,2.7045,0.0,0.0,0.0,0.0,0.0,0.0,0.0,0.0,0.0,0.0,0.0,0.0,0.0,0.0,0.0,0.0,0.0,0.0,0.0,0.0,0.0,0.0,0.0,0.0,0.0,0.0,0.0,0.0,0.0,0.0,0.0,0.0,0.0,0.0,0.0,0.0,0.0,0.0,2.748,2.8751,0.0,0.0,0.0,0.0,0.0,0.0,0.0,0.0,3.1394,0.0,0.0,0.0,0.0,0.0,0.0,0.0,0.0,0.0,0.0,0.0,0.0,0.0,0.0,0.0,0.0,0.0,0.0,0.0,0.0,0.0,0.0,0.0,0.0,0.0,0.0,0.0,0.0,0.0,0.0,0.0,0.0,0.0,0.0,0.0,0.0,0.0,0.0,0.0,0.0,0.0,0.0,0.0,0.0,0.0,0.0,0.0,0.0,0.0,0.0,0.0,0.0,0.0,0.0,0.0,0.0,3.4425,3.4494,3.5254,3.6739,3.6996,3.5996,3.3727,3.2287,3.0006,2.6792,0.0,0.0,0.0,0.0,0.0,0.0,0.0,0.0,0.0,0.0,0.0,0.0,0.0,0.0,0.0,0.0,0.0,0.0,0.0,0.0,0.0,0.0,0.0,0.0,0.0,0.0,0.0,0.0,0.0,0.0,0.0,0.0,0.0,0.0,0.0,0.0,0.0,0.0,0.0,3.045,3.1427,0.0,0.0,0.0,0.0,0.0,0.0,0.0,0.0,3.2755,0.0,0.0,0.0,0.0,0.0,0.0,0.0,0.0,0.0,0.0,0.0,0.0,0.0,0.0,0.0,0.0,0.0,0.0,0.0,0.0,0.0,0.0,0.0,0.0,0.0,0.0,0.0,0.0,0.0,0.0,0.0,0.0,0.0,0.0,0.0,0.0,0.0,0.0,0.0,0.0,0.0,0.0,0.0,0.0,0.0,0.0,0.0,0.0,0.0,0.0,0.0,0.0,0.0,0.0,0.0,3.5366,3.5537,3.6487,3.8236,3.7958,3.718,3.5942,3.3927,3.1505,0.0,0.0,0.0,0.0,0.0,0.0,0.0,0.0,0.0,0.0,0.0,0.0,0.0,0.0,0.0,0.0,0.0,0.0,0.0,0.0,0.0,0.0,0.0,0.0,0.0,0.0,0.0,0.0,0.0,0.0,0.0,0.0,0.0,0.0,0.0,0.0,0.0,0.0,0.0,0.0,3.1674,3.2815,3.3841,0.0,0.0,0.0,0.0,0.0,0.0,3.3426,3.3162,0.0,0.0,0.0,0.0,0.0,0.0,0.0,0.0,0.0,0.0,0.0,0.0,0.0,0.0,0.0,0.0,0.0,0.0,0.0,0.0,0.0,0.0,0.0,0.0,0.0,0.0,0.0,0.0,0.0,0.0,0.0,0.0,0.0,0.0,0.0,0.0,0.0,0.0,0.0,0.0,0.0,0.0,0.0,0.0,0.0,0.0,0.0,0.0,0.0,0.0,0.0,0.0,0.0,0.0,0.0,3.6184,3.6439,3.7435,3.9172,3.8725,3.8292,3.7992,3.5224,3.2699,0.0,0.0,0.0,0.0,0.0,0.0,0.0,0.0,0.0,0.0,0.0,0.0,0.0,0.0,0.0,0.0,0.0,0.0,0.0,0.0,0.0,0.0,0.0,0.0,0.0,0.0,0.0,0.0,0.0,0.0,0.0,0.0,0.0,0.0,0.0,0.0,0.0,0.0,0.0,0.0,0.0,3.4003,3.5018,3.5141,0.0,0.0,0.0,0.0,3.3204,3.3751,0.0,0.0,0.0,0.0,0.0,0.0,0.0,0.0,0.0,0.0,0.0,0.0,0.0,0.0,0.0,0.0,0.0,0.0,0.0,0.0,0.0,0.0,0.0,0.0,0.0,0.0,0.0,0.0,0.0,0.0,0.0,0.0,0.0,0.0,0.0,0.0,0.0,0.0,0.0,0.0,0.0,0.0,0.0,0.0,0.0,0.0,0.0,0.0,0.0,0.0,0.0,0.0,0.0,0.0,0.0,0.0,3.6693,3.7196,3.8056,3.9222,3.9216,3.8608,3.7403,3.4387,3.1919,0.0,0.0,0.0,0.0,0.0,0.0,0.0,0.0,0.0,0.0,0.0,0.0,0.0,0.0,0.0,0.0,0.0,0.0,0.0,0.0,0.0,0.0,0.0,0.0,0.0,0.0,0.0,0.0,0.0,0.0,0.0,0.0,0.0,0.0,0.0,0.0,0.0,0.0,0.0,0.0,0.0,3.4698,3.5577,3.4673,3.3837,0.0,0.0,3.5932,3.5821,3.7273,0.0,0.0,0.0,0.0,0.0,0.0,0.0,0.0,0.0,0.0,0.0,0.0,0.0,0.0,0.0,0.0,0.0,0.0,0.0,0.0,0.0,0.0,0.0,0.0,0.0,0.0,0.0,0.0,0.0,0.0,0.0,0.0,0.0,0.0,0.0,0.0,0.0,0.0,0.0,0.0,0.0,0.0,0.0,0.0,0.0,0.0,0.0,0.0,0.0,0.0,0.0,0.0,0.0,0.0,0.0,3.6984,3.7298,3.8685,3.9656,4.0133,4.0162,3.9893,3.9278,3.5828,3.3594,0.0,0.0,0.0,0.0,0.0,0.0,0.0,0.0,0.0,0.0,0.0,0.0,0.0,0.0,0.0,0.0,0.0,0.0,0.0,0.0,0.0,0.0,0.0,0.0,0.0,0.0,0.0,0.0,0.0,0.0,0.0,0.0,0.0,0.0,0.0,0.0,0.0,0.0,0.0,0.0,0.0,0.0,3.6307,3.5951,0.0,0.0,0.0,3.6504,3.4504,0.0,0.0,0.0,0.0,0.0,0.0,0.0,0.0,0.0,0.0,0.0,0.0,0.0,0.0,0.0,0.0,0.0,0.0,0.0,0.0,0.0,0.0,0.0,0.0,0.0,0.0,0.0,0.0,0.0,0.0,0.0,0.0,0.0,0.0,0.0,0.0,0.0,0.0,0.0,0.0,0.0,0.0,0.0,0.0,0.0,0.0,0.0,0.0,0.0,0.0,0.0,0.0,0.0,0.0,0.0,0.0,0.0,3.7888,3.9798,4.0802,4.0802,4.0802,4.0802,4.0738,3.7493,0.0,0.0,0.0,0.0,0.0,0.0,0.0,0.0,0.0,0.0,0.0,0.0,0.0,0.0,0.0,0.0,0.0,0.0,0.0,0.0,0.0,0.0,0.0,0.0,0.0,0.0,0.0,3.1877,0.0,0.0,0.0,0.0,0.0,0.0,0.0,0.0,0.0,0.0,0.0,0.0,0.0,0.0,3.6244,3.6697,3.6609,3.6343,0.0,0.0,3.6764,3.4599,3.7395,3.8677,0.0,0.0,0.0,0.0,0.0,0.0,0.0,0.0,0.0,0.0,0.0,0.0,0.0,0.0,0.0,0.0,0.0,0.0,0.0,0.0,0.0,0.0,0.0,0.0,0.0,0.0,0.0,0.0,0.0,0.0,0.0,0.0,0.0,0.0,0.0,0.0,0.0,0.0,0.0,0.0,0.0,0.0,0.0,0.0,0.0,0.0,0.0,0.0,0.0,0.0,0.0,0.0,0.0,0.0,3.8509,3.8584,4.0031,4.0814,4.0802,4.0802,4.0802,4.0773,3.8795,3.6996,0.0,0.0,0.0,0.0,0.0,0.0,0.0,0.0,0.0,0.0,0.0,0.0,0.0,0.0,0.0,0.0,0.0,0.0,0.0,0.0,0.0,0.0,0.0,0.0,0.0,0.0,0.0,0.0,0.0,0.0,0.0,0.0,0.0,0.0,0.0,0.0,0.0,0.0,0.0,0.0,0.0,3.677,3.6397,3.5552,3.5441,0.0,3.6406,3.659,3.8447,4.0174,4.0131,3.6551,0.0,0.0,0.0,0.0,0.0,0.0,0.0,0.0,0.0,0.0,0.0,0.0,0.0,0.0,0.0,0.0,0.0,0.0,0.0,0.0,0.0,0.0,0.0,0.0,0.0,0.0,0.0,0.0,0.0,0.0,0.0,0.0,0.0,0.0,0.0,0.0,0.0,0.0,0.0,0.0,0.0,0.0,0.0,0.0,0.0,0.0,0.0,0.0,0.0,0.0,0.0,0.0,0.0,3.9262,3.9054,4.0812,4.1727,4.1738,4.1885,4.1973,4.1973,4.0357,3.8999,0.0,0.0,0.0,0.0,0.0,0.0,0.0,0.0,0.0,0.0,0.0,0.0,0.0,0.0,0.0,0.0,0.0,0.0,0.0,0.0,0.0,0.0,0.0,0.0,0.0,0.0,0.0,0.0,3.7627,3.7596,3.6775,0.0,0.0,0.0,0.0,0.0,0.0,0.0,0.0,0.0,0.0,3.7354,3.8376,3.7425,0.0,0.0,3.7553,3.7757,3.8157,3.9335,3.9246,3.6381,3.6056,0.0,0.0,0.0,0.0,0.0,0.0,0.0,0.0,0.0,0.0,0.0,0.0,0.0,0.0,0.0,0.0,0.0,0.0,0.0,0.0,0.0,0.0,0.0,0.0,0.0,0.0,0.0,0.0,0.0,0.0,0.0,0.0,0.0,0.0,0.0,0.0,0.0,0.0,0.0,0.0,0.0,0.0,0.0,0.0,0.0,0.0,0.0,0.0,0.0,0.0,0.0,0.0,3.9789,3.967,4.1413,4.2371,4.2562,4.2643,4.275,4.2809,4.1851,4.0881,0.0,0.0,0.0,0.0,0.0,0.0,0.0,0.0,0.0,0.0,0.0,0.0,0.0,0.0,0.0,0.0,0.0,0.0,0.0,0.0,0.0,0.0,0.0,0.0,0.0,0.0,0.0,0.0,3.8925,3.8743,3.7843,0.0,0.0,0.0,0.0,0.0,0.0,0.0,0.0,0.0,0.0,3.8519,3.9087,3.8236,3.7479,3.7222,3.7242,3.7307,3.7364,3.8208,3.8286,3.6649,0.0,0.0,0.0,0.0,0.0,0.0,0.0,0.0,0.0,0.0,0.0,0.0,0.0,0.0,0.0,0.0,0.0,0.0,0.0,0.0,0.0,0.0,0.0,0.0,0.0,0.0,0.0,4.0196,0.0,0.0,4.0071,0.0,0.0,0.0,0.0,0.0,0.0,0.0,0.0,0.0,0.0,0.0,0.0,0.0,0.0,0.0,0.0,0.0,0.0,0.0,0.0,0.0,0.0,4.002,4.0465,4.1685,4.2581,4.3151,4.2882,4.2864,4.3187,4.3151,4.2486,4.1097,0.0,0.0,0.0,0.0,0.0,0.0,0.0,0.0,0.0,0.0,0.0,0.0,0.0,0.0,0.0,0.0,0.0,0.0,0.0,0.0,0.0,0.0,0.0,0.0,0.0,0.0,3.6634,3.7387,3.807,0.0,0.0,0.0,0.0,0.0,0.0,0.0,0.0,0.0,0.0,3.925,4.0354,3.79,3.7393,3.7059,3.6263,3.4941,3.464,3.6561,3.727,3.7641,0.0,0.0,0.0,0.0,0.0,0.0,0.0,0.0,0.0,0.0,0.0,0.0,0.0,0.0,0.0,0.0,0.0,0.0,0.0,0.0,0.0,0.0,0.0,0.0,0.0,0.0,0.0,4.1132,4.1128,0.0,0.0,0.0,0.0,0.0,0.0,0.0,0.0,0.0,0.0,0.0,4.2981,4.3251,0.0,0.0,0.0,0.0,0.0,0.0,0.0,0.0,0.0,0.0,0.0,0.0,4.0069,4.0537,4.1852,4.2786,4.3178,4.3277,4.3355,4.3469,4.3631,4.3115,4.1803,0.0,0.0,0.0,0.0,0.0,0.0,0.0,0.0,0.0,0.0,0.0,0.0,0.0,0.0,0.0,0.0,0.0,0.0,0.0,0.0,0.0,0.0,0.0,0.0,0.0,3.8789,0.0,0.0,0.0,0.0,0.0,0.0,0.0,0.0,0.0,0.0,0.0,3.8994,3.9467,3.9307,3.9179,3.9242,3.8284,3.7741,0.0,0.0,0.0,0.0,0.0,0.0,0.0,0.0,0.0,0.0,0.0,0.0,0.0,0.0,3.7509,3.5697,3.6047,3.6544,3.6283,0.0,0.0,0.0,0.0,0.0,0.0,0.0,0.0,0.0,0.0,0.0,0.0,0.0,0.0,4.198,4.1768,4.2313,0.0,0.0,0.0,0.0,0.0,0.0,0.0,0.0,4.4537,4.4643,4.4442,4.4927,4.4442,0.0,4.3538,4.241,0.0,0.0,0.0,0.0,0.0,0.0,0.0,0.0,4.0429,4.0887,4.2187,4.306,4.3452,4.3545,4.3656,4.3738,4.39,4.364,4.2893,4.1862,4.0836,0.0,0.0,0.0,0.0,0.0,0.0,0.0,0.0,0.0,0.0,0.0,0.0,0.0,0.0,0.0,0.0,0.0,0.0,0.0,0.0,0.0,0.0,0.0,3.9539,0.0,0.0,0.0,0.0,0.0,0.0,0.0,0.0,0.0,3.855,3.9395,4.0308,4.1069,4.0432,3.9778,3.9499,0.0,0.0,0.0,0.0,0.0,0.0,0.0,3.5458,3.5891,3.655,3.739,3.8492,3.9605,4.0296,4.0102,0.0,0.0,3.7847,3.8078,3.8593,3.8363,3.8295,3.8226,3.8041,3.753,3.7055,0.0,0.0,0.0,0.0,4.3556,0.0,0.0,0.0,4.3334,4.291,0.0,4.3806,0.0,0.0,0.0,0.0,4.2873,4.436,0.0,0.0,4.6613,4.6966,4.617,4.6189,4.5735,4.4897,4.464,4.3745,4.2259,4.1894,0.0,0.0,0.0,0.0,0.0,0.0,4.1042,4.1554,4.2639,4.347,4.3947,4.3755,4.3747,4.3981,4.4005,4.409,4.424,4.3357,4.2873,4.2943,4.1152,0.0,0.0,0.0,0.0,0.0,0.0,0.0,0.0,0.0,0.0,0.0,0.0,0.0,0.0,0.0,0.0,0.0,0.0,0.0,0.0,3.9751,0.0,0.0,0.0,0.0,0.0,0.0,0.0,0.0,0.0,0.0,3.9498,4.0515,4.1315,4.1243,0.0,0.0,0.0,0.0,3.8877,3.5738,3.5173,3.5146,3.5084,3.6601,3.8223,3.9506,0.0,0.0,4.2426,4.1564,4.0936,4.0618,4.1672,4.1919,4.023,3.9923,3.9877,3.974,3.9525,3.9194,3.9126,3.8623,3.7833,4.6664,0.0,0.0,0.0,0.0,4.5131,4.5427,4.5984,4.5988,4.5833,4.5636,4.6112,0.0,0.0,0.0,0.0,0.0,0.0,4.6294,4.6905,4.7814,4.7818,4.7049,4.7661,4.751,4.6676,4.6573,4.594,4.4836,4.4705,4.3163,4.0255,0.0,0.0,0.0,0.0,4.1307,4.2336,4.3106,4.3656,4.3997,4.3934,4.3934,4.4005,4.4139,4.4255,4.4274,4.4108,4.3713,4.3102,4.2658,0.0,0.0,0.0,0.0,0.0,0.0,0.0,0.0,0.0,0.0,0.0,0.0,0.0,0.0,0.0,0.0,0.0,0.0,0.0,4.0139,4.0609,4.0414,0.0,0.0,0.0,0.0,0.0,0.0,0.0,0.0,0.0,4.0818,4.0399,4.0128,0.0,0.0,3.9013,3.8064,3.8544,3.89,3.8728,3.817,0.0,3.8696,3.8566,3.8684,3.9585,4.1497,4.2864,4.2769,4.3282,4.3693,4.3601,4.3927,4.3983,4.3545,4.3005,4.267,4.2631,4.2548,4.2499,4.2463,4.2212,4.1953,4.9235,4.8187,4.7429,4.7084,4.7019,4.6914,4.7139,4.7618,4.7621,4.7424,4.7138,4.7834,4.7271,4.5827,4.6136,0.0,0.0,0.0,4.7865,4.87,4.8978,4.886,4.8445,4.8919,4.873,4.7953,4.8196,4.7677,4.6497,4.6043,4.4528,4.2018,0.0,0.0,4.0529,4.1225,4.1903,4.2551,4.3359,4.3836,4.3997,4.3997,4.4036,4.4105,4.4222,4.4351,4.4454,4.4549,4.4388,4.3945,4.3649,4.2982,0.0,0.0,0.0,0.0,0.0,0.0,0.0,0.0,0.0,0.0,0.0,4.0189,3.9591,0.0,0.0,0.0,4.1123,4.1142,4.1123,4.1092,0.0,0.0,0.0,0.0,0.0,0.0,0.0,3.8664,4.0157,4.1304,4.1419,4.0817,4.0525,4.0984,4.0412,3.9786,3.9308,0.0,4.043,4.0607,4.0203,4.0094,4.0644,4.0567,4.0683,4.1628,4.2812,4.365,4.372,4.438,4.487,4.4895,4.4895,4.4895,4.4895,4.4557,4.4303,4.4296,4.4184,4.4091,4.4102,4.3997,4.3865,5.1387,5.1269,4.9667,4.8929,4.8794,4.8712,4.8658,4.8608,4.8604,4.8159,4.7544,4.9084,4.8469,4.6252,4.6986,0.0,4.835,4.8947,4.9553,5.0212,4.9999,4.9893,4.9893,4.9893,4.9507,4.8825,4.9426,4.8954,4.7516,4.6456,4.5451,4.4505,4.357,4.2519,4.1431,4.2228,4.2577,4.2363,4.3373,4.3923,4.4005,4.402,4.4124,4.4292,4.4322,4.4458,4.4692,4.4738,4.4877,4.5156,4.4286,4.3778,4.376,0.0,0.0,0.0,0.0,0.0,0.0,0.0,0.0,0.0,0.0,0.0,0.0,0.0,0.0,0.0,4.2496,0.0,4.2648,4.1449,0.0,0.0,0.0,4.036,4.1389,4.1589,4.1596,4.1518,0.0,0.0,4.164,4.1622,4.2025,4.3108,4.3229,4.279,4.1482,4.2307,4.2765,4.1627,4.1612,4.1668,4.1809,4.2487,4.3411,4.4386,4.4895,4.4839,4.4814,4.4845,4.4895,4.4895,4.4895,4.4895,4.4895,4.487,4.4889,4.4814,4.4635,4.4425,4.4436,4.4205,4.3935,5.1387,5.1367,5.09,5.0659,5.0559,5.0406,5.0317,5.0302,5.0322,5.0183,5.0032,5.0434,5.0279,4.9711,4.9873,5.007,5.0234,5.0134,5.0175,5.0322,5.0038,4.9893,4.9893,4.9893,4.981,4.964,4.9776,4.934,4.8408,4.8133,4.6861,4.4729,4.4245,4.3213,4.1609,4.1761,4.2128,4.2682,4.2945,4.3392,4.3986,4.4154,4.4244,4.43,4.4496,4.462,4.4705,4.4943,4.5101,4.5197,4.516,4.4777,4.3986,4.2904,0.0,0.0,0.0,0.0,0.0,0.0,0.0,0.0,0.0,4.0665,3.9914,0.0,4.1129,0.0,4.2939,4.3886,4.3855,4.3285,0.0,0.0,4.1465,4.1189,4.1493,4.227,4.245,4.1596,4.2209,4.274,4.2781,4.2754,4.3142,4.4266,4.3018,4.1788,4.1453,4.242,4.3079,4.2826,4.3403,4.4051,4.3981,4.426,4.4556,4.4839,4.4895,4.4895,4.4895,4.4895,4.4895,4.4895,4.4895,4.4895,4.4895,4.4895,4.4796,4.4616,4.4636,4.4783,4.4783,4.4628,4.4479,5.1386,5.1359,5.1285,5.1202,5.115,5.1034,5.0947,5.0902,5.0898,5.0898,5.0898,5.0898,5.0898,5.0894,5.0841,5.0812,5.0795,5.0466,5.0308,5.0291,5.0019,4.9893,4.9893,4.9893,4.9893,4.9893,4.9893,4.9677,4.9229,4.8869,4.7912,4.6348,4.5695,4.4476,4.2727,4.1902,4.1662,4.196,4.2548,4.3301,4.4173,4.4325,4.4226,4.3877,4.3992,4.3904,4.3515,4.3636,4.3805,4.4002,4.4075,4.3944,4.3513,4.2642,4.1871,0.0,0.0,0.0,0.0,0.0,0.0,0.0,0.0,0.0,0.0,0.0,4.1886,4.1867,4.3343,4.4092,4.3629,4.3273,4.3018,4.2853,4.2541,4.2529,4.2955,4.3583,4.371,4.3101,4.3532,4.3918,4.3963,4.3925,4.4133,4.4814,4.3812,4.3011,4.301,4.3564,4.3938,4.3956,4.4468,4.4895,4.4895,4.4895,4.4895,4.4895,4.4895,4.4895,4.4895,4.4895,4.4895,4.4895,4.4895,4.4895,4.4889,4.484,4.4732,4.4609,4.4628,4.4653,4.449,4.4353,4.4272,5.1359,5.1264,5.12,5.1157,5.1083,5.1084,5.1007,5.0898,5.0898,5.0898,5.0898,5.0898,5.0875,5.0847,5.0756,5.0692,5.0654,5.0352,5.0213,5.0182,4.9986,4.9893,4.9893,4.9893,4.9893,4.9893,4.9893,4.9893,4.9874,4.9191,4.8663,4.8209,4.7136,4.574,4.4033,4.2481,4.1464,4.1005,4.2257,4.3377,4.4285,4.4203,4.3809,4.3129,4.3098,4.2748,4.2023,4.1928,4.2065,4.2407,4.2361,4.2546,4.2989,4.2049,4.1535,0.0,4.0696,0.0,0.0,0.0,0.0,0.0,0.0,0.0,0.0,4.2694,4.2761,4.2905,4.3747,4.3959,4.3168,4.2865,4.3048,4.3866,4.3766,4.3951,4.4782,4.4895,4.4895,4.4895,4.4895,4.4895,4.4845,4.4895,4.4889,4.4889,4.4801,4.4675,4.4845,4.4795,4.4801,4.4895,4.4895,4.4895,4.4895,4.4895,4.4895,4.4895,4.4895,4.4895,4.4895,4.4895,4.4895,4.4895,4.4895,4.4895,4.4895,4.4802,4.4725,4.4608,4.4491,4.4309,4.4053,4.3912,4.3689,5.1263,5.1218,5.1145,5.1125,5.1093,5.0983,5.0929,5.0898,5.0898,5.0898,5.0898,5.0898,5.0841,5.0742,5.073,5.0596,5.0441,5.0275,5.0213,5.0207,4.9986,4.9893,4.9893,4.9893,4.9893,4.9893,4.9893,4.9893,4.9893,4.9753,4.8916,4.7437,4.6873,4.578,4.4221,0.0,0.0,0.0,4.2451,4.3085,4.3252,4.2578,4.2158,4.2008,4.2067,0.0,4.1834,4.1938,4.2021,4.2107,4.2329,0.0,0.0,0.0,0.0,0.0,0.0,0.0,0.0,0.0,0.0,0.0,4.4244,4.3999,4.2809,4.2694,4.3072,4.3908,4.4182,4.4556,4.5152,4.497,4.49,4.5044,4.4825,4.4707,4.4876,4.4895,4.4895,4.4895,4.4895,4.4895,4.4895,4.4895,4.4895,4.4895,4.4895,4.4895,4.4895,4.4895,4.4895,4.4895,4.4895,4.4895,4.4895,4.4895,4.4895,4.4895,4.4895,4.4895,4.4895,4.4895,4.4895,4.4895,4.4895,4.4895,4.4889,4.487,4.47,4.4369,4.411,4.3935,4.3981,4.3873,4.3734,5.1216,5.1147,5.1109,5.1066,0.0,5.0937,5.0898,5.0898,5.0898,5.0898,5.0898,5.0898,5.0862,5.0776,5.0611,5.0502,5.0388,5.0162,5.0044,5.0038,4.994,4.9893,4.9893,4.9893,4.9893,4.9893,4.9893,4.9893,4.9893,4.9893,4.9423,4.8541,4.7966,4.7078,4.5895,4.5312,4.4389,4.3095,4.3158,4.3446,4.389,4.3506,4.3065,4.2604,4.2625,0.0,0.0,0.0,0.0,0.0,0.0,0.0,0.0,4.354,0.0,4.4818,4.4401,4.4334,4.4842,4.5256,4.5697,4.6181,4.6506,4.6134,4.4829,4.5218,4.5742,4.6263,4.6329,4.6507,4.6877,4.6399,4.5989,4.5879,4.5314,4.4895,4.4895,4.4895,4.4895,4.4895,4.4895,4.4895,4.4895,4.4895,4.4895,4.4895,4.4895,4.4895,4.4895,4.4895,4.4895,4.4895,4.4895,4.4895,4.4895,4.4895,4.4895,4.4895,4.4895,4.4895,4.4895,4.4895,4.4895,4.4895,4.4895,4.4864,4.4681,4.4564,4.4327,4.3951,4.3667,4.3457,4.3386,4.3257,4.3124,5.114,5.1069,5.1049,5.1,5.0898,5.0898,5.0898,5.0898,5.0898,0.0,0.0,5.0878,5.0835,5.0778,5.0493,5.0364,5.0294,5.0031,4.9893,4.9893,4.9893,4.9893,4.9893,4.9893,4.9893,4.9893,4.9893,4.9893,4.9893,4.9893,4.9893,4.9831,4.9158,4.8463,4.7811,4.7039,4.6224,4.532,4.4358,4.4266,4.5066,4.4909,4.443,4.368,4.3648,4.325,4.2436,4.2345,4.2399,4.2561,4.2536,4.3057,4.4209,4.4328,4.4782,4.5783,4.587,4.6224,4.7045,4.7229,4.7718,4.8685,4.8604,4.8066,4.7071,4.779,4.8326,4.8303,4.8303,4.8239,4.8065,4.7353,4.6823,4.6633,4.5845,4.5312,4.516,4.5122,4.5122,4.4952,4.4895,4.4895,4.4895,4.4895,4.4895,4.4895,4.4895,4.4864,4.4821,4.4858,4.4895,4.4895,4.4895,4.4895,4.4895,4.4895,4.4895,4.4895,4.4895,4.4895,4.4889,4.4889,4.4883,4.4846,4.4865,4.4693,4.4402,4.418,4.3893,4.3547,4.3311,4.3087,4.2787,4.2571,4.2506,5.1053,5.0917,5.0933,5.0921,5.0898,5.0898,5.0898,5.0898,5.0917,5.0898,5.0894,5.0782,5.062,5.0462,5.0285,5.012,4.9979,4.9932,4.9893,4.9893,4.9893,4.9893,4.9893,4.9893,4.9893,4.9893,4.9893,4.9893,4.9886,4.9905,4.9893,4.9811,4.9166,4.8724,4.8574,4.8002,4.783,4.8071,4.6483,4.57,4.5821,4.4944,4.4423,4.4282,4.4245,4.4139,4.3987,4.3987,4.398,4.4008,4.4102,4.4667,4.5696,4.5905,4.6486,4.761,4.7602,4.7665,4.7929,4.8534,4.9238,5.0026,5.0106,4.9414,4.7913,4.7894,4.7986,4.7986,4.8058,4.7957,4.7922,4.7734,4.7552,4.7482,4.7231,4.6778,4.6095,4.6013,4.5754,4.5103,4.4895,4.4927,4.4946,4.4896,4.4845,4.4877,4.4789,4.4777,4.4577,4.4739,4.4877,4.4895,4.4895,4.4895,4.4814,4.4883,4.4846,4.4895,4.4858,4.4808,4.4796,4.4726,4.468,4.4699,4.4593,4.4416,4.411,4.4039,4.3791,4.3439,4.3151,4.2921,4.2711,4.2484,4.2328,5.2364,5.2318,5.2298,5.2318,5.2298,5.2314,5.2253,5.2161,5.2156,5.162,5.0825,5.0729,5.0596,5.0399,5.0258,5.0145,5.005,4.9959,4.9893,4.9893,4.9893,4.9893,4.9893,4.9893,4.9893,4.9893,4.9893,4.9823,4.9647,4.9614,4.9514,4.9277,4.8772,4.8623,4.8771,4.8531,4.8713,4.9285,4.7473,4.6564,4.6744,4.6293,4.602,4.602,4.6005,4.5973,4.5992,4.5973,4.5973,4.5973,4.6027,4.6543,4.7546,4.7663,4.8206,4.9259,4.929,4.928,4.9355,4.9674,4.9978,5.0272,5.0298,4.9927,4.9077,4.916,4.9243,4.9262,4.9262,4.9225,4.9132,4.8671,4.8335,4.8263,4.7739,4.7251,4.6923,4.6834,4.6702,4.6278,4.5862,4.5546,4.5366,4.4925,4.4544,4.4409,4.4379,4.4278,4.4166,4.4242,4.4353,4.4353,4.4341,4.436,4.4367,4.436,4.436,4.436,4.436,4.4346,4.4318,4.4246,4.4195,4.4125,4.405,4.3889,4.357,4.3488,4.33,4.3004,4.2759,4.2593,4.2474,4.2371,4.2308,5.3498,5.3498,5.3498,5.3462,5.3432,5.3378,5.3272,5.3141,5.3117,5.239,5.1225,5.0956,5.0678,5.0353,5.0193,5.0126,5.0126,4.9985,4.9893,4.9893,4.9893,4.9893,4.9893,4.9893,4.9893,4.9893,4.9893,4.9762,4.9518,4.9446,4.9155,4.8702,4.8495,4.8514,4.8667,4.8676,4.9044,4.9644,4.8172,4.7536,4.7933,4.7953,4.7965,4.7972,4.7953,4.7972,4.7953,4.7972,4.7972,4.7972,4.7972,4.8308,4.9066,4.9117,4.9512,5.024,5.0311,5.0289,5.0283,5.0289,5.025,5.0145,5.0126,5.0063,4.994,5.0131,5.0289,5.0289,5.0195,5.0195,5.0005,4.9536,4.9093,4.892,4.8389,4.7953,4.7744,4.7706,4.7567,4.7378,4.6777,4.6241,4.5919,4.5302,4.4827,4.464,4.4233,4.4031,4.4023,4.3837,4.3615,4.3638,4.3762,4.3927,4.3878,4.3901,4.3927,4.3881,4.3896,4.3904,4.3841,4.3751,4.3679,4.3611,4.3564,4.3403,4.3105,4.2986,4.2836,4.257,4.2419,4.2338,4.2328,4.2318,4.2297,5.3517,5.3498,5.3547,5.3402,5.3282,5.3102,5.302,5.2998,5.296,5.2792,5.243,5.1705,5.0942,5.0251,5.0088,5.0021,5.0021,4.9918,4.995,4.9924,4.9893,4.9893,4.9872,4.9898,4.9893,4.9872,4.9859,4.9804,4.9707,4.9472,4.9015,4.8467,4.8614,4.8595,4.8402,4.8382,4.874,4.9411,4.8905,4.8947,4.9625,4.9677,4.9677,4.9684,4.9646,4.9665,4.957,4.9677,4.9646,4.9677,4.9627,4.9691,4.9787,4.9812,4.9936,5.02,5.0057,4.9946,4.9953,4.9927,4.9953,4.9945,4.9952,4.992,4.9893,4.9933,4.9934,4.9947,4.9959,4.9966,4.992,4.9819,4.9737,4.9679,4.9583,4.9412,4.871,4.8585,4.8294,4.7479,4.7116,4.682,4.6679,4.6227,4.5986,4.5722,4.4952,4.4445,4.4382,4.3687,4.3126,4.3057,4.339,4.3831,4.3836,4.3889,4.377,4.3754,4.3767,4.367,4.3547,4.3446,4.3404,4.3257,4.3267,4.3069,4.2855,4.2713,4.2624,4.2422,4.2318,4.2297,4.2297,4.2297,4.2297,5.4862,5.4834,5.4741,5.4635,5.454,5.4472,5.4373,5.4256,5.4275,5.3906,5.3306,5.2912,5.2304,5.1519,5.1411,5.1376,5.1376,5.1376,5.1104,5.0694,5.0656,5.0275,4.9644,4.9592,4.9503,4.9262,4.9246,4.9142,4.8929,4.8577,4.8239,4.799,4.8093,4.8288,4.8578,4.8614,4.8944,4.9669,4.9536,4.9506,4.9599,4.9797,4.9893,4.9893,4.9893,4.9893,4.9893,4.9893,4.9893,4.9893,4.9893,4.9893,4.9893,4.9893,4.9926,5.0005,4.994,4.9893,4.9893,4.9893,4.9893,4.9893,4.9893,4.9893,4.9893,4.9893,4.9893,4.9893,4.9893,4.9893,4.9893,4.9893,4.9893,4.9893,4.9893,4.9666,4.9192,4.9121,4.8848,4.8276,4.7689,4.7214,4.6932,4.6249,4.5764,4.5681,4.5162,4.491,4.4816,4.4353,4.4096,4.4052,4.4345,4.4034,4.3479,4.3123,4.3142,4.3123,4.3078,4.3042,4.3068,4.292,4.2835,4.2824,4.2857,4.2788,4.2504,4.2472,4.2412,4.2379,4.2315,4.2297,4.2297,4.2297,4.2197,5.5724,5.5678,5.551,5.5407,5.5401,5.5364,5.5255,5.5128,5.5121,5.47,5.4075,5.4029,5.3688,5.3075,5.2639,5.2393,5.2393,5.2393,5.2089,5.1559,5.154,5.1066,5.0267,5.0095,4.9806,4.9332,4.9202,4.8863,4.8343,4.803,4.7796,4.771,4.7689,4.7972,4.843,4.8504,4.8876,4.951,4.9602,4.9558,4.9562,4.9776,4.9852,4.9783,4.9845,4.9893,4.9893,4.9893,4.9893,4.9893,4.9893,4.9893,4.9893,4.9893,4.9893,4.9893,4.9893,4.9893,4.9893,4.9893,4.9893,4.9893,4.9893,4.9893,4.9893,4.9893,4.9893,4.9893,4.9893,4.9893,4.9893,4.9893,4.9859,4.9783,4.9781,4.9614,4.9265,4.9247,4.9102,4.8776,4.8162,4.7655,4.7239,4.659,4.612,4.6051,4.5694,4.5364,4.5297,4.5087,4.4842,4.4888,4.4863,4.4463,4.347,4.3462,4.3246,4.3206,4.3374,4.339,4.31,4.3107,4.3097,4.3589,4.3109,4.3004,4.3288,4.3132,4.2912,4.2876,4.2776,4.2659,4.2733,4.2446,4.1973,5.5516,5.5486,5.5288,5.5222,5.5209,5.5028,5.4938,5.4946,5.4923,5.4871,5.4787,5.4806,5.4799,5.4591,5.3167,5.2442,5.2449,5.2525,5.2473,5.2326,5.2333,5.2295,5.2236,5.1894,5.1225,5.0333,4.9985,4.9353,4.8442,4.8303,4.8062,4.7746,4.7725,4.7738,4.7837,4.7868,4.8124,4.884,4.8936,4.9166,4.9748,4.9838,4.9733,4.9472,4.9733,4.9893,4.9893,4.9893,4.9893,4.9893,4.9893,4.9893,4.9893,4.9924,4.9962,5.0,4.9969,4.9962,5.0006,5.0044,5.0038,4.9987,5.012,4.9969,5.0158,5.0151,5.0119,4.9948,5.0072,5.0041,4.9988,4.9893,4.9741,4.9506,4.9419,4.9236,4.8867,4.8824,4.8824,4.8711,4.8375,4.7988,4.7687,4.7655,4.7375,4.7128,4.6632,4.6122,4.5929,4.5269,4.4929,4.4853,4.4828,4.4711,4.4812,4.4463,4.4511,4.4416,4.4177,4.4478,4.4536,4.4524,4.4435,4.4364,4.4185,4.4168,4.44,4.4407,4.4224,4.3996,4.3544,4.3383,4.3067,4.2225,4.1818,5.5217,5.5127,5.5023,5.5007,5.5,5.4931,5.4901,5.4901,5.4901,5.4901,5.4901,5.4901,5.4901,5.4848,5.4009,5.375,5.3996,5.3984,5.3569,5.2894,5.2824,5.2278,5.1276,5.1083,5.0793,5.0319,5.0141,4.9859,4.945,4.8946,4.8608,4.8409,4.7942,4.7824,4.804,4.809,4.8326,4.8746,4.8799,4.8833,4.9008,4.9331,4.9411,4.9079,4.9588,4.9893,4.9893,4.9893,4.9893,4.9893,4.9893,4.9893,4.9943,5.0429,5.0978,5.1414,5.1509,5.1509,5.1509,5.1509,5.1509,5.1509,5.1509,5.1426,5.1509,5.1483,5.1412,5.1179,5.1107,5.103,5.063,5.0065,4.9544,4.9396,4.9163,4.8878,4.8596,4.8477,4.8383,4.8134,4.799,4.7855,4.7752,4.7689,4.7678,4.76,4.7258,4.6978,4.6816,4.6455,4.613,4.6134,4.6123,4.6175,4.6241,4.5262,4.4711,4.4682,4.4614,4.4632,4.4667,4.4792,4.4738,4.481,4.4846,4.482,4.4851,4.4683,4.4654,4.4264,4.3859,4.3621,4.3249,4.2543,4.2217,5.5028,5.4909,5.4901,5.4901,5.4901,5.4901,5.4901,5.4901,5.4901,5.4901,5.4901,5.4901,5.483,5.468,5.4416,5.4357,5.4498,5.4498,5.4027,5.3272,5.3282,5.2679,5.1742,5.1459,5.1161,5.0678,5.0257,5.0101,5.0046,4.9564,4.93,4.9228,4.8731,4.8608,4.8847,4.8877,4.9107,4.949,4.9578,4.957,4.9641,5.0087,5.0247,5.0068,5.045,5.0568,5.0353,5.0568,5.0713,5.0701,5.0694,5.0713,5.077,5.1256,5.1824,5.2336,5.2393,5.2393,5.2393,5.2393,5.2393,5.2385,5.2253,5.2201,5.2194,5.2084,5.1885,5.1686,5.16,5.1453,5.1108,5.0362,4.9694,4.9398,4.8939,4.8504,4.817,4.812,4.7972,4.7804,4.7699,4.7646,4.7636,4.7586,4.7561,4.7558,4.7454,4.7331,4.7238,4.716,4.7111,4.7032,4.6902,4.6848,4.6811,4.6096,4.5704,4.5646,4.5521,4.532,4.5162,4.5227,4.5223,4.5269,4.5283,4.5245,4.5127,4.4932,4.463,4.4286,4.4032,4.3837,4.3415,4.2983,4.2603,5.4901,5.4901,5.4901,5.4901,5.4901,5.4901,5.4901,5.4901,5.4901,5.4886,5.4841,5.4864,5.464,5.433,5.4193,5.4042,5.3786,5.3711,5.3683,5.3553,5.3599,5.3543,5.3305,5.2915,5.2436,5.176,5.0707,5.022,5.03,5.0191,5.0101,5.0119,4.9956,4.9833,5.0032,4.9945,5.0331,5.0748,5.0824,5.1276,5.222,5.2012,5.1975,5.2072,5.221,5.1995,5.1312,5.19,5.2184,5.2222,5.2241,5.2355,5.2279,5.2393,5.2449,5.2582,5.2525,5.2487,5.2544,5.2601,5.2696,5.2641,5.2204,5.2148,5.2172,5.1821,5.1546,5.1537,5.1463,5.1352,5.1296,5.0845,5.0293,4.9527,4.8959,4.8442,4.8055,4.78,4.7735,4.7805,4.773,4.7529,4.7479,4.7428,4.7381,4.7312,4.7267,4.7223,4.7122,4.7077,4.7032,4.7009,4.7009,4.7009,4.7009,4.6973,4.6938,4.6866,4.6706,4.6516,4.6328,4.627,4.6062,4.6027,4.5758,4.5705,4.5426,4.5243,4.5036,4.4721,4.441,4.3993,4.3627,4.321,4.278,5.4901,5.4901,5.4901,5.4901,5.4901,5.4901,5.4901,5.4894,5.4894,5.4734,5.4525,5.4492,5.4262,5.3888,5.3615,5.3427,5.3275,5.3022,5.303,5.3255,5.3296,5.3141,5.29,5.2761,5.2574,5.2297,5.1955,5.1737,5.1622,5.1187,5.0934,5.0843,5.0372,5.0119,5.0173,5.0112,5.026,5.0394,5.0446,5.0593,5.0863,5.1348,5.1592,5.1699,5.2665,5.315,5.2923,5.2601,5.2411,5.2449,5.2393,5.2658,5.315,5.3302,5.3556,5.4029,5.4117,5.4124,5.4117,5.4072,5.4019,5.4012,5.3707,5.3543,5.3476,5.3077,5.2713,5.2515,5.251,5.2437,5.2057,5.1468,5.0873,5.0265,4.9831,4.945,4.9256,4.9267,4.9075,4.8619,4.8396,4.8125,4.7681,4.7501,4.7536,4.743,4.7434,4.7423,4.725,4.729,4.7088,4.7014,4.7002,4.7223,4.7366,4.7438,4.7397,4.7243,4.7125,4.7015,4.6952,4.6853,4.6702,4.6393,4.6168,4.586,4.5631,4.5329,4.4997,4.4824,4.4392,4.4059,4.3787,4.3427,4.3033,5.4901,5.4886,5.4745,5.468,5.4656,5.4514,5.4457,5.4457,5.4457,5.4305,5.4096,5.4069,5.3842,5.3488,5.3213,5.303,5.2864,5.2599,5.2633,5.2853,5.2868,5.2728,5.2521,5.2498,5.2498,5.2498,5.248,5.2498,5.2462,5.2027,5.1737,5.164,5.1224,5.1024,5.0988,5.0999,5.1037,5.1184,5.1238,5.1352,5.1686,5.2104,5.2411,5.2702,5.3618,5.4102,5.4086,5.3586,5.3321,5.3321,5.3347,5.3605,5.4086,5.4174,5.4389,5.4727,5.4742,5.4634,5.4672,5.4404,5.4457,5.4399,5.4097,5.3833,5.3758,5.3488,5.3138,5.2933,5.282,5.2783,5.2452,5.2093,5.163,5.1339,5.0511,5.0166,5.0101,5.0101,4.9919,4.9434,4.9231,4.8905,4.8558,4.834,4.8307,4.8223,4.8256,4.8263,4.8124,4.8092,4.7934,4.7865,4.8032,4.8104,4.7961,4.7908,4.782,4.7553,4.7281,4.7118,4.6986,4.6865,4.6725,4.6161,4.5802,4.5284,4.4991,4.466,4.4356,4.4259,4.4222,4.3953,4.365,4.3641,4.3381,5.4871,5.4807,5.4432,5.4262,5.4219,5.3925,5.3796,5.3758,5.3767,5.3758,5.3673,5.3663,5.3448,5.3138,5.303,5.2831,5.2561,5.2515,5.251,5.2538,5.2549,5.2521,5.2498,5.2498,5.2498,5.2498,5.2498,5.2498,5.248,5.2408,5.2498,5.2371,5.2299,5.2426,5.2245,5.2444,5.2467,5.2663,5.2851,5.316,5.3766,5.3965,5.4167,5.4446,5.4555,5.4632,5.456,5.4476,5.4621,5.4829,5.4606,5.4499,5.4784,5.4856,5.4704,5.4711,5.4459,5.4296,5.4174,5.4015,5.3833,5.3814,5.3478,5.3107,5.3162,5.29,5.2645,5.2583,5.2549,5.2544,5.2491,5.2426,5.2376,5.2292,5.1264,5.0553,5.0282,5.0372,5.0379,5.0201,5.0044,4.9875,4.9679,4.9523,4.9484,4.9467,4.9413,4.9295,4.9196,4.9036,4.9281,4.918,4.8859,4.8788,4.8574,4.8574,4.8485,4.8253,4.779,4.7315,4.6802,4.6546,4.6077,4.5572,4.5379,4.4834,4.439,4.4119,4.3948,4.3877,4.3776,4.3645,4.3615,4.3615,4.3615,5.4449,5.4426,5.4024,5.3842,5.3861,5.373,5.3701,5.3692,5.3701,5.3498,5.3326,5.3265,5.3043,5.2672,5.2679,5.2595,5.2503,5.2498,5.2498,5.2498,5.2498,5.2498,5.2498,5.2498,5.2498,5.2498,5.2498,5.2498,5.2498,5.2498,5.2498,5.2498,5.2498,5.2498,5.2498,5.2498,5.2538,5.2633,5.2667,5.2761,5.3019,5.3336,5.3448,5.3576,5.3879,5.4033,5.4024,5.4024,5.433,5.4807,5.4305,5.4157,5.4399,5.42,5.4087,5.406,5.3943,5.3851,5.3833,5.373,5.3701,5.3682,5.3285,5.3117,5.3078,5.2728,5.2515,5.2498,5.2498,5.2498,5.2498,5.2498,5.2498,5.2444,5.1973,5.1731,5.1767,5.1846,5.1642,5.0985,5.0749,5.0416,4.9982,4.9762,4.9685,4.9627,4.9686,4.9709,4.9782,4.9669,4.9782,4.9448,4.9204,4.9222,4.9204,4.9204,4.9132,4.8964,4.8392,4.7548,4.6747,4.5873,4.5087,4.4259,4.4789,4.4547,4.4119,4.3778,4.363,4.3764,4.3615,4.3615,4.3615,4.3615,4.3615,5.4061,5.4006,5.3606,5.3448,5.3418,5.3275,5.3193,5.3193,5.3182,5.3086,5.2886,5.2842,5.2717,5.2521,5.2498,5.2498,5.2498,5.2498,5.2498,5.2498,5.2498,5.2498,5.2498,5.2498,5.2498,5.2498,5.2498,5.2498,5.2498,5.2498,5.2498,5.2498,5.2498,5.2498,5.2498,5.2498,5.2498,5.251,5.251,5.2572,5.2772,5.2958,5.3203,5.3328,5.3587,5.372,5.3692,5.3538,5.3749,5.4148,5.3952,5.3805,5.3988,5.3833,5.372,5.3683,5.3548,5.3458,5.3408,5.3316,5.3193,5.3162,5.2955,5.2886,5.2809,5.2611,5.2498,5.2498,5.2498,5.2498,5.2498,5.2498,5.2498,5.248,5.2498,5.2498,5.2498,5.2426,5.2246,5.1833,5.1583,5.1381,5.0718,5.0659,5.0581,5.0588,5.0749,5.0665,5.0575,5.0371,5.0221,5.0029,4.998,5.0128,5.0056,5.0006,4.9512,4.9336,4.8533,4.7755,4.7024,4.5912,4.544,4.4917,4.4685,4.4458,4.4342,4.4176,4.4126,4.4143,4.3861,4.3679,4.3681,4.3779,4.3746,5.3635,5.3615,5.3203,5.3033,5.2969,5.2649,5.2595,5.2515,5.2572,5.2561,5.2526,5.251,5.2526,5.2498,5.2498,5.2498,5.2498,5.2498,5.2498,5.2498,5.2498,5.2498,5.2498,5.2498,5.2498,5.2498,5.2498,5.2498,5.2498,5.2498,5.2498,5.2498,5.2498,5.2498,5.2498,5.2498,5.2498,5.2498,5.2498,5.2622,5.2842,5.2955,5.3086,5.3316,5.3378,5.3448,5.3388,5.3244,5.3224,5.3548,5.3567,5.3557,5.3595,5.3624,5.3547,5.3458,5.3193,5.3033,5.299,5.2761,5.2561,5.2595,5.2572,5.2498,5.2526,5.251,5.2498,5.2498,5.2498,5.2498,5.2498,5.2498,5.2498,5.2498,5.2498,5.2498,5.2498,5.2498,5.2498,5.2486,5.2457,5.2417,5.2311,5.2252,5.212,5.1238,5.1382,5.1297,5.1144,5.0941,5.0944,5.0987,5.105,5.1167,5.0985,5.0783,5.0115,4.9538,4.8502,4.7748,4.7498,4.679,4.6532,4.6143,4.5417,4.5202,4.5351,4.5168,4.4903,4.4738,4.4622,4.4176,4.3828,4.3977,4.4027,5.3224,5.3193,5.2787,5.264,5.2611,5.2544,5.2498,5.2498,5.2498,5.2498,5.2498,5.2498,5.2498,5.2498,5.2498,5.2498,5.2498,5.2498,5.2498,5.2498,5.2498,5.2498,5.2498,5.2498,5.2498,5.2498,5.2498,5.2498,5.2498,5.2498,5.2498,5.2498,5.2498,5.2498,5.2498,5.2498,5.2498,5.2498,5.2498,5.2526,5.2611,5.2667,5.2705,5.282,5.2809,5.2776,5.2761,5.269,5.2679,5.2739,5.2809,5.2976,5.3138,5.2965,5.2853,5.282,5.275,5.2645,5.2611,5.2572,5.2498,5.2498,5.2498,5.2498,5.2498,5.2498,5.2498,5.2498,5.2498,5.2498,5.2498,5.2498,5.2498,5.2498,5.2498,5.2498,5.2498,5.2498,5.2445,5.2393,5.2358,5.2264,5.2041,5.2041,5.1968,5.1845,5.1808,5.1796,5.164,5.1426,5.1393,5.1393,5.103,5.0946,5.0768,5.0436,4.9777,4.9308,4.8446,4.7887,4.7624,4.7269,4.6878,4.6389,4.5824,4.588,4.6245,4.5881,4.5549,4.5467,4.5351,4.492,4.4605,4.4539,4.4423,5.2802,5.2787,5.2583,5.2498,5.2498,5.2498,5.2498,5.2498,5.2498,5.2498,5.2498,5.2498,5.2498,5.2498,5.2498,5.2498,5.2498,5.2498,5.2498,5.2498,5.2498,5.2498,5.2498,5.2498,5.2498,5.2498,5.2498,5.2498,5.2498,5.2498,5.2498,5.2498,5.2498,5.2498,5.2498,5.2498,5.2498,5.2498,5.2498,5.2498,5.2498,5.2498,5.2498,5.2498,5.2498,5.2498,5.2503,5.251,5.251,5.2498,5.251,5.2583,5.275,5.2622,5.2503,5.2498,5.2498,5.2498,5.2498,5.2498,5.2498,5.2498,5.2498,5.2498,5.2498,5.2498,5.2498,5.2498,5.2498,5.2498,5.2498,5.2498,5.2498,5.2498,5.2498,5.2498,5.2498,5.2498,5.2475,5.2405,5.2417,5.2311,5.218,5.2029,5.1968,5.1914,5.1796,5.1783,5.182,5.1609,5.1482,5.131,5.0772,5.0467,5.0324,4.9881,4.9173,4.8762,4.8304,4.7996,4.7862,4.7449,4.7021,4.6758,4.6625,4.6874,4.709,4.6659,4.6295,4.6195,4.6013,4.5681,4.5432,4.5283,4.5168,5.2498,5.2498,5.2498,5.2498,5.2498,5.2498,5.2498,5.2498,5.2498,5.2498,5.2498,5.2498,5.2498,5.2498,5.2498,5.2498,5.2498,5.2498,5.2498,5.2498,5.2498,5.2498,5.2498,5.2498,5.2498,5.2498,5.2498,5.2498,5.2498,5.2498,5.2498,5.2498,5.2498,5.2498,5.2498,5.2498,5.2498,5.2498,5.2498,5.2498,5.2498,5.2498,5.2498,5.2498,5.2498,5.2498,5.2498,5.2498,5.2498,5.2498,5.2498,5.2498,5.2498,5.2498,5.2498,5.2498,5.2498,5.2498,5.2498,5.2498,5.2498,5.2498,5.2498,5.2498,5.2498,5.2498,5.2498,5.2498,5.2498,5.2498,5.2498,5.2498,5.2498,5.2498,5.2498,5.2498,5.2498,5.2498,5.2486,5.2486,5.2463,5.2382,5.2222,5.209,5.2036,5.1975,5.1815,5.1678,5.166,5.1396,5.1026,5.0546,4.987,4.9506,4.9357,4.9342,4.8623,4.8434,4.8098,4.8049,4.8017,4.7752,4.7487,4.7703,4.7736,4.7785,4.7686,4.7355,4.7073,4.6957,4.6775,4.6542,4.6277,4.6012,4.588,5.2498,5.2498,5.2498,5.2498,5.2498,5.2498,5.2498,5.2498,5.2498,5.2498,5.2498,5.2498,5.2498,5.2498,5.2498,5.2498,5.2498,5.2498,5.2498,5.2498,5.2498,5.2498,5.2498,5.2498,5.2498,5.2498,5.2498,5.2498,5.2498,5.2498,5.2498,5.2498,5.2498,5.2498,5.2498,5.2498,5.2498,5.2498,5.2498,5.2498,5.2498,5.2498,5.2498,5.2498,5.2498,5.2498,5.2498,5.2498,5.2498,5.2498,5.2498,5.2498,5.2498,5.2498,5.2498,5.2498,5.2498,5.2498,5.2498,5.2498,5.2498,5.2498,5.2498,5.2498,5.2498,5.2498,5.2498,5.2498,5.2498,5.2498,5.2498,5.2498,5.2498,5.2498,5.2498,5.2498,5.2498,5.2434,5.241,5.2364,5.2399,5.2422,5.2269,5.2072,5.1908,5.1717,5.1477,5.1131,5.0889,5.0404,4.9777,4.928,4.8701,4.8451,4.8276,4.8356,4.8163,4.8195,4.805,4.805,4.8001,4.8001,4.8001,4.8001,4.8001,4.7934,4.7852,4.7785,4.7719,4.7504,4.7438,4.7355,4.704,4.6692,4.6443,5.2498,5.2498,5.2498,5.2498,5.2498,5.2498,5.2498,5.2498,5.2498,5.2498,5.2498,5.2498,5.2498,5.2498,5.2498,5.2498,5.2498,5.2498,5.2498,5.2498,5.2498,5.2498,5.2498,5.2498,5.2498,5.2498,5.2498,5.2498,5.2498,5.2498,5.2498,5.2498,5.2498,5.2498,5.2498,5.2498,5.2498,5.2498,5.2498,5.2498,5.2498,5.2498,5.2498,5.2498,5.2498,5.2498,5.2498,5.2498,5.2498,5.2498,5.2498,5.2498,5.2498,5.2498,5.2498,5.2498,5.2498,5.2498,5.2498,5.2498,5.2498,5.2498,5.2498,5.2498,5.2498,5.2498,5.2498,5.2498,5.2498,5.2498,5.2498,5.2498,5.2498,5.2498,5.2498,5.2498,5.2422,5.2228,5.2114,5.2102,5.218,5.2216,5.2299,5.206,5.1779,5.1485,5.1149,5.0669,5.0167,4.9751,4.919,4.8931,4.856,4.8276,4.8099,4.8017,4.8001,4.8001,4.8001,4.8001,4.8001,4.8001,4.8001,4.8001,4.8001,4.8001,4.7984,4.7901,4.7968,4.8001,4.7835,4.7669,4.757,4.7371,4.709,5.2987,5.2987,5.2969,5.2987,5.2987,5.2987,5.3023,5.2969,5.3023,5.3078,5.2951,5.2842,5.277,5.2697,5.257,5.2498,5.2498,5.2498,5.2498,5.2498,5.2498,5.2498,5.2498,5.2498,5.2498,5.2498,5.2498,5.2498,5.2498,5.2498,5.2498,5.2498,5.2498,5.2498,5.2498,5.2498,5.2498,5.2498,5.2498,5.2498,5.2498,5.2498,5.2498,5.2498,5.2498,5.2498,5.2498,5.2498,5.2498,5.2498,5.2498,5.2498,5.2498,5.2498,5.2498,5.2498,5.2498,5.2498,5.2498,5.2498,5.2498,5.2498,5.2498,5.2498,5.2498,5.2498,5.2498,5.2498,5.2498,5.2498,5.2498,5.2498,5.2498,5.2498,5.2498,5.244,5.2186,5.1933,5.1631,5.1669,5.1853,5.1804,5.1687,5.1357,5.0929,5.057,5.0212,4.987,4.946,4.9534,4.9192,4.9038,4.8746,4.8387,4.8163,4.8017,4.8001,4.8001,4.8001,4.8001,4.8001,4.8001,4.8001,4.8001,4.8001,4.8001,4.8001,4.8001,4.8001,4.8001,4.8001,4.7951,4.7802,4.7785,4.7636,5.4617,5.4617,5.4599,5.4635,5.4562,5.4514,5.4581,5.4526,5.4472,5.4617,5.4369,5.3874,5.3566,5.3458,5.2878,5.2607,5.2589,5.2715,5.2788,5.2824,5.277,5.2715,5.2552,5.2498,5.2534,5.2516,5.2498,5.2498,5.2498,5.2498,5.2498,5.2498,5.2498,5.2498,5.2498,5.2498,5.2498,5.2498,5.2498,5.2498,5.2498,5.2498,5.2498,5.2498,5.2498,5.2498,5.2498,5.2498,5.2498,5.2498,5.2498,5.2498,5.2498,5.2498,5.2498,5.2498,5.2498,5.2498,5.2498,5.2498,5.2498,5.2498,5.2498,5.2498,5.2498,5.2498,5.2498,5.2498,5.2498,5.2422,5.2399,5.2445,5.2475,5.2375,5.2239,5.2024,5.178,5.1373,5.1096,5.0853,5.0911,5.0853,5.0773,5.0394,5.0005,4.9654,4.9327,4.9072,4.8842,4.8981,4.8935,4.8701,4.8607,4.8276,4.8163,4.8033,4.8001,4.8001,4.8001,4.8001,4.8001,4.8001,4.8001,4.8001,4.8001,4.8001,4.8001,4.8001,4.8001,4.8001,4.8001,4.8001,4.7984,4.8001,4.8001,5.5685,5.4907,5.4907,5.4907,5.4907,5.4907,5.4907,5.4907,5.4907,5.4907,5.4858,5.4581,5.4399,5.4255,5.3965,5.3892,5.3856,5.3784,5.3838,5.3784,5.3748,5.3566,5.3277,5.3132,5.3023,5.2643,5.2498,5.2498,5.2516,5.2552,5.2498,5.2498,5.2498,5.2498,5.2498,5.2498,5.2498,5.2498,5.2498,5.2498,5.2498,5.2516,5.2516,5.2516,5.2534,5.257,5.257,5.2498,5.2498,5.2498,5.2498,5.2498,5.2498,5.2498,5.2498,5.2498,5.2498,5.2498,5.2498,5.2516,5.2498,5.2498,5.2498,5.2498,5.2498,5.2498,5.2498,5.2498,5.2498,5.2375,5.2096,5.1982,5.1756,5.1651,5.1713,5.1457,5.1144,5.0764,5.0422,5.0184,4.9988,4.9985,5.0071,5.0059,4.9893,4.9715,4.9524,4.9389,4.8935,4.8578,4.8436,4.8179,4.8147,4.8066,4.805,4.8001,4.8001,4.8001,4.8001,4.8001,4.8001,4.8001,4.8001,4.8001,4.8001,4.8001,4.8001,4.8001,4.8001,4.8001,4.8001,4.8001,4.8001,4.8001,4.8001,5.6518,5.5486,5.5468,5.5486,5.5456,5.5486,5.5522,5.5504,5.5528,5.5504,5.5395,5.5269,5.5088,5.4913,5.4816,5.4725,5.4834,5.4907,5.4907,5.4907,5.4834,5.4478,5.4146,5.3947,5.3711,5.3096,5.3331,5.3313,5.3222,5.3132,5.3078,5.2534,5.2498,5.2498,5.2498,5.2534,5.2589,5.2915,5.2896,5.3005,5.3186,5.3204,5.3186,5.315,5.3096,5.3096,5.3114,5.3168,5.3168,5.3204,5.3259,5.3331,5.3295,5.3349,5.3331,5.3331,5.3349,5.3313,5.3114,5.2915,5.2589,5.2498,5.2498,5.2498,5.2498,5.2498,5.2498,5.2498,5.2498,5.2251,5.1933,5.1768,5.152,5.126,5.0977,5.0724,5.0511,5.0268,4.9945,4.9656,4.9436,4.926,4.9409,4.9735,4.9779,4.9701,4.9674,4.9585,4.9058,4.8372,4.8196,4.8001,4.8001,4.8001,4.8001,4.8001,4.8001,4.8001,4.8001,4.8001,4.8001,4.8001,4.8001,4.8001,4.8001,4.8001,4.8001,4.8001,4.8001,4.8001,4.8001,4.8001,4.8001,4.8001,4.8001,5.7134,5.7043,5.7007,5.6953,5.6953,5.7025,5.6989,5.6826,5.6935,5.688,5.6717,5.6265,5.5595,5.5178,5.5178,5.5142,5.5015,5.4925,5.5106,5.5088,5.4907,5.4985,5.4852,5.478,5.4725,5.4562,5.4381,5.4436,5.4605,5.4309,5.3657,5.2733,5.2933,5.2661,5.2679,5.2951,5.3186,5.3494,5.3621,5.3965,5.4327,5.4508,5.4526,5.4562,5.4653,5.4725,5.4695,5.4508,5.4418,5.4418,5.4381,5.4399,5.4291,5.4327,5.4327,5.4309,5.4327,5.4309,5.4164,5.3458,5.2715,5.2552,5.2643,5.2842,5.2933,5.2661,5.257,5.2746,5.2869,5.2593,5.2312,5.1987,5.1625,5.1069,5.0649,5.0316,5.0114,4.9945,4.9615,4.9214,4.9017,4.897,4.8972,4.9335,4.935,4.9273,4.9182,4.9107,4.875,4.8195,4.8115,4.8017,4.8001,4.8001,4.8001,4.8001,4.8001,4.8001,4.8001,4.8001,4.8001,4.8001,4.8001,4.8001,4.8001,4.8001,4.8001,4.8001,4.8001,4.8001,4.8001,4.8001,4.8001,4.8001,4.8001,5.7188,5.7188,5.7188,5.7188,5.7188,5.7188,5.7188,5.7188,5.7188,5.7188,5.7188,5.6862,5.6591,5.6355,5.6319,5.6319,5.6319,5.6319,5.6265,5.6319,5.6301,5.6011,5.5812,5.5504,5.5377,5.507,5.4943,5.4907,5.4852,5.507,5.4695,5.4098,5.3983,5.3989,5.3989,5.382,5.411,5.4273,5.4436,5.4659,5.4762,5.4907,5.4907,5.4907,5.4907,5.4907,5.487,5.4888,5.4907,5.4943,5.4979,5.5033,5.507,5.5051,5.5051,5.5051,5.507,5.5051,5.4997,5.4345,5.4001,5.3983,5.4001,5.3887,5.3724,5.3875,5.3953,5.3899,5.3446,5.3078,5.2745,5.2234,5.1671,5.0959,5.0464,5.012,4.993,4.9855,4.9748,4.9551,4.922,4.8986,4.897,4.9034,4.8925,4.8816,4.8722,4.8596,4.8324,4.813,4.8066,4.8017,4.8001,4.8001,4.8001,4.8001,4.8001,4.8001,4.8001,4.8001,4.8001,4.8001,4.8001,4.8001,4.8001,4.8001,4.8001,4.8001,4.8001,4.8001,4.8001,4.8001,4.8001,4.8001,4.8001,5.7188,5.7188,5.7188,5.7188,5.7188,5.7188,5.7188,5.7188,5.7188,5.7188,5.7188,5.7188,5.7188,5.7188,5.7152,5.7116,5.7043,5.7062,5.7116,5.7098,5.6971,5.6839,5.6531,5.6313,5.6156,5.5649,5.5595,5.5685,5.574,5.5631,5.5631,5.5631,5.554,5.5395,5.4816,5.4907,5.4985,5.5178,5.5233,5.5432,5.554,5.5649,5.5667,5.5703,5.574,5.574,5.5776,5.5812,5.5776,5.5758,5.5721,5.5667,5.5631,5.5595,5.5595,5.5577,5.5577,5.5558,5.5522,5.5106,5.4943,5.4707,5.4445,5.4469,5.4595,5.4495,5.3903,5.4018,5.3735,5.3488,5.3014,5.2396,5.1921,5.1313,5.0873,5.0538,5.0353,5.0223,5.0123,4.9965,4.9764,4.9798,4.9679,4.968,4.9197,4.8971,4.8643,4.8532,4.8324,4.8179,4.8115,4.8066,4.8001,4.8001,4.8001,4.8001,4.8001,4.8001,4.8001,4.8001,4.8001,4.8001,4.8001,4.8001,4.8001,4.8001,4.8001,4.8001,4.8001,4.8001,4.8001,4.8001,4.8001,4.8001,4.8001,5.7279,5.7188,5.7261,5.7279,5.7351,5.7206,5.7188,5.7188,5.7188,5.7188,5.7188,5.7188,5.7188,5.7188,5.7188,5.7188,5.7188,5.7188,5.7188,5.7188,5.7188,5.7134,5.7098,5.6971,5.6844,5.7098,5.688,5.6736,5.6917,5.6754,5.6844,5.688,5.6645,5.6301,5.507,5.4943,5.5305,5.5884,5.5987,5.6368,5.6699,5.679,5.6772,5.6772,5.6754,5.6699,5.6681,5.6681,5.6663,5.6681,5.6717,5.6736,5.6754,5.679,5.6826,5.6862,5.6917,5.6971,5.6989,5.5709,5.5208,5.5202,5.5105,5.4745,5.4166,5.3788,5.3775,5.4371,5.3661,5.3356,5.2919,5.2567,5.2245,5.1785,5.1344,5.0998,5.0812,5.0643,5.0542,5.0474,5.0829,5.1066,5.0812,5.0508,4.9785,4.9271,4.8744,4.8484,4.839,4.8228,4.8147,4.8082,4.8001,4.8001,4.8001,4.8001,4.8001,4.8001,4.8001,4.8001,4.8001,4.8001,4.8001,4.8001,4.8001,4.8001,4.8001,4.8001,4.8001,4.8001,4.8001,4.8001,4.8001,4.8001,4.8001,5.88,5.88,5.88,5.88,5.8624,5.7623,5.7188,5.7188,5.7188,5.7206,5.7188,5.7188,5.7188,5.7188,5.7188,5.7188,5.7188,5.7188,5.7188,5.7188,5.7188,5.7188,5.7188,5.7188,5.7188,5.7188,5.7188,5.7188,5.7134,5.7188,5.7188,5.7188,5.7152,5.6935,5.6554,5.6428,5.6627,5.6772,5.6826,5.6935,5.717,5.7188,5.7188,5.7188,5.7188,5.7188,5.7188,5.7188,5.7188,5.7188,5.7188,5.7188,5.7188,5.7188,5.7188,5.7188,5.7188,5.7188,5.702,5.6363,5.6104,5.606,5.5914,5.5666,5.597,5.5931,5.5629,5.4976,5.4323,5.4124,5.3972,5.3404,5.2933,5.2306,5.1843,5.1522,5.1302,5.115,5.1032,5.0998,5.1201,5.1353,5.1269,5.1217,5.0645,5.0058,4.9594,4.8963,4.8735,4.8376,4.818,4.8082,4.8001,4.8001,4.8017,4.8083,4.805,4.8001,4.8001,4.8001,4.8001,4.8001,4.8001,4.8001,4.8001,4.8001,4.8001,4.8001,4.8001,4.8001,4.8001,4.8001,4.8001,4.8001,4.8001,5.9602,5.9602,5.9602,5.9602,5.9421,5.8474,5.8039,5.8039,5.8021,5.7895,5.7659,5.7623,5.7442,5.7279,5.7188,5.7188,5.7188,5.7188,5.7188,5.7188,5.7188,5.7188,5.7188,5.7243,5.7188,5.7206,5.7206,5.7188,5.7188,5.7188,5.7188,5.7188,5.7206,5.7116,5.7062,5.708,5.7098,5.7098,5.7098,5.7116,5.7188,5.7188,5.7188,5.7188,5.7188,5.7188,5.7188,5.7188,5.7188,5.7188,5.7188,5.7206,5.7206,5.7206,5.7206,5.7188,5.6966,5.6915,5.6696,5.624,5.6015,5.6246,5.6384,5.6244,5.6162,5.5507,5.5311,5.4992,5.4976,5.4608,5.4088,5.3585,5.3314,5.2655,5.2536,5.2232,5.2182,5.2046,5.2013,5.1928,5.1877,5.1894,5.1844,5.1708,5.1505,5.0967,5.0464,4.9881,4.9349,4.9055,4.8826,4.8745,4.8613,4.8646,4.8513,4.8248,4.8182,4.8034,4.8117,4.8232,4.8001,4.8001,4.8001,4.8001,4.8001,4.8001,4.8001,4.8001,4.8001,4.8001,4.8001,4.8001,4.8001,4.8001,4.8001,5.9674,5.9669,5.9674,5.9747,5.9705,5.9692,5.9633,5.9547,5.9524,5.909,5.8456,5.8438,5.8166,5.7496,5.7369,5.746,5.7532,5.7496,5.7532,5.7514,5.7713,5.7569,5.755,5.7569,5.7732,5.7514,5.7514,5.7804,5.7387,5.7677,5.7641,5.7496,5.7695,5.7695,5.7677,5.7677,5.7514,5.7333,5.7188,5.7188,5.7188,5.7188,5.7188,5.7188,5.7188,5.7188,5.7188,5.7188,5.7188,5.7188,5.7188,5.7224,5.7243,5.7261,5.7243,5.7188,5.6908,5.6891,5.67,5.6287,5.5827,5.5962,5.5111,5.4667,5.4672,5.4828,5.4689,5.4425,5.4188,5.3899,5.3534,5.3517,5.3484,5.3331,5.3331,5.3247,5.3264,5.323,5.3213,5.3162,5.3129,5.3078,5.2909,5.2739,5.2283,5.2131,5.1711,5.1476,5.094,5.0355,5.0124,4.9975,4.9808,4.9541,4.9275,4.8977,4.8829,4.8879,4.8663,4.8663,4.8348,4.8133,4.815,4.8166,4.805,4.8001,4.8001,4.8001,4.8001,4.8001,4.8001,4.8001,4.8001,4.8001,4.8001,6.1304,6.1322,6.1304,6.1322,6.1304,6.1286,6.0688,5.9705,5.9602,5.9434,5.9258,5.924,5.9035,5.8927,5.8927,5.8841,5.8841,5.8896,5.8914,5.8841,5.8655,5.8805,5.8836,5.8764,5.8854,5.8836,5.8818,5.8709,5.8854,5.8854,5.8818,5.8945,5.8691,5.8733,5.8751,5.8878,5.8166,5.7623,5.7442,5.7424,5.7387,5.7406,5.7387,5.7406,5.7424,5.7424,5.7406,5.7387,5.7369,5.7315,5.7261,5.7387,5.8058,5.8094,5.8184,5.8841,5.8717,5.8507,5.7957,5.7344,5.6683,5.5942,5.5203,5.4921,5.4915,5.4776,5.4448,5.406,5.3865,5.375,5.3585,5.3518,5.3501,5.3501,5.3501,5.3501,5.3501,5.3501,5.3501,5.3501,5.3501,5.3484,5.3399,5.3315,5.2926,5.301,5.2943,5.2673,5.2353,5.1714,5.1362,5.1195,5.0809,5.0475,5.0292,5.0026,4.9859,4.9692,4.9443,4.9194,4.9011,4.8779,4.8498,4.8349,4.8266,4.8133,4.8001,4.8001,4.8001,4.8001,4.8001,4.8001,4.8001,4.8001,4.8001,6.201,6.201,6.201,6.201,6.201,6.201,6.1394,6.0634,6.0557,6.0416,6.0104,6.0072,5.9891,5.9547,5.9511,5.9511,5.9493,5.9439,5.9439,5.9439,5.9692,5.9493,5.9566,5.9656,5.9493,5.9602,5.962,5.9403,5.9674,5.962,5.9547,5.9493,5.9602,5.962,5.9511,5.9366,5.904,5.8546,5.8239,5.8166,5.8094,5.8076,5.8148,5.8076,5.8076,5.8058,5.8076,5.8076,5.8112,5.8148,5.8148,5.8329,5.8776,5.8689,5.8303,5.8679,5.8183,5.7898,5.7458,5.7015,5.6666,5.6233,5.5553,5.5382,5.5013,5.4785,5.4331,5.393,5.393,5.3864,5.3668,5.3501,5.3501,5.3501,5.3501,5.3501,5.3501,5.3501,5.3501,5.3501,5.3501,5.3501,5.3484,5.3501,5.3484,5.3365,5.3315,5.323,5.3011,5.2673,5.2438,5.232,5.1799,5.1345,5.1162,5.0961,5.0677,5.0409,5.0109,4.9876,4.9676,4.9442,4.9227,4.8862,4.8514,4.8382,4.8265,4.805,4.8001,4.8001,4.8017,4.8001,4.8001,4.8001,4.8001,6.201,6.201,6.201,6.201,6.201,6.201,6.1955,6.201,6.1847,6.1575,6.0978,6.0887,6.0543,6.0235,6.0158,6.0109,6.0181,6.0181,6.0217,5.9819,6.0127,6.0163,6.0127,5.9855,6.0235,5.9964,5.9928,6.029,5.9964,6.0091,6.0199,5.9783,5.9964,6.0127,6.0199,6.0181,6.0036,5.9928,5.9728,5.9674,5.9421,5.9493,5.9602,5.9475,5.9439,5.9439,5.9475,5.9529,5.9602,5.9566,5.9432,5.9315,5.914,5.9119,5.8574,5.8278,5.8083,5.7769,5.753,5.7103,5.6594,5.6231,5.5834,5.5838,5.5604,5.5042,5.4583,5.4448,5.4482,5.4482,5.433,5.4279,5.4279,5.4262,5.4262,5.4093,5.3907,5.3771,5.3501,5.3501,5.3501,5.3501,5.3501,5.3501,5.3501,5.3501,5.3501,5.3501,5.3433,5.3247,5.318,5.3095,5.2707,5.2202,5.2068,5.1833,5.1396,5.1095,5.0911,5.0693,5.0593,5.0291,4.9939,4.9592,4.9227,4.8796,4.8547,4.8497,4.8347,4.8066,4.8066,4.8017,4.8017,4.8034,4.8001,6.201,6.201,6.201,6.201,6.201,6.201,6.201,6.201,6.201,6.1883,6.172,6.1666,6.1575,6.1267,6.1213,6.1213,6.1267,6.1086,6.1376,6.1286,6.1231,6.105,6.1322,6.1123,6.1286,6.143,6.143,6.1249,6.1177,6.1249,6.1376,6.1376,6.1267,6.1177,6.1177,6.1195,6.1177,6.1104,6.1104,6.0598,5.9946,5.9692,5.9602,5.9656,5.9692,5.9801,5.9783,5.9728,5.9656,5.9557,5.9045,5.892,5.8938,5.9379,5.9524,5.9389,5.8862,5.8434,5.8082,5.7741,5.7479,5.7126,5.69,5.6664,5.6258,5.5564,5.5175,5.5141,5.5073,5.5056,5.5039,5.5039,5.5039,5.5039,5.5039,5.4684,5.438,5.4042,5.3636,5.3602,5.3602,5.3602,5.3636,5.3602,5.3501,5.3501,5.3501,5.3501,5.3501,5.3399,5.3382,5.3332,5.3365,5.3062,5.2893,5.2691,5.227,5.2236,5.2185,5.1899,5.153,5.1127,5.0741,5.0375,4.9992,4.9626,4.936,4.9259,4.9025,4.8678,4.8346,4.8396,4.8182,4.8133,4.805,6.201,6.201,6.201,6.201,6.201,6.201,6.201,6.201,6.201,6.201,6.201,6.201,6.201,6.201,6.201,6.201,6.201,6.1992,6.1847,6.1937,6.201,6.1919,6.201,6.201,6.1901,6.1992,6.1992,6.1937,6.201,6.1973,6.1919,6.201,6.201,6.201,6.201,6.201,6.201,6.1973,6.201,6.1448,6.0593,6.0598,6.0652,6.067,6.0652,6.0616,6.067,6.067,6.0688,6.0661,6.0439,5.9792,5.9739,5.9728,5.9556,5.9128,5.8806,5.8909,5.8616,5.844,5.8334,5.7841,5.7646,5.7256,5.7273,5.6647,5.6055,5.5953,5.5496,5.5428,5.5428,5.5428,5.5428,5.5428,5.5428,5.5259,5.5107,5.4921,5.4752,5.4752,5.4735,5.4735,5.4752,5.4769,5.4583,5.4093,5.4008,5.3771,5.3687,5.3754,5.3687,5.3585,5.3636,5.3551,5.3281,5.3214,5.3146,5.3196,5.3212,5.279,5.2234,5.1881,5.1528,5.1211,5.0927,5.061,5.0376,5.0158,5.0007,4.9758,4.9275,4.8875,4.8611,4.8364,4.8215,6.201,6.201,6.201,6.201,6.201,6.201,6.201,6.201,6.201,6.201,6.201,6.201,6.201,6.201,6.201,6.201,6.201,6.201,6.201,6.201,6.201,6.201,6.201,6.201,6.201,6.201,6.201,6.201,6.201,6.201,6.201,6.201,6.201,6.201,6.201,6.201,6.201,6.201,6.201,6.201,6.1955,6.201,6.1847,6.1883,6.201,6.201,6.1992,6.1992,6.1973,6.1496,6.1074,6.0207,5.9628,5.9312,5.8892,5.8458,5.8226,5.8137,5.7992,5.8028,5.7955,5.7866,5.79,5.7883,5.7849,5.7561,5.6951,5.6613,5.6172,5.602,5.6037,5.6037,5.6037,5.5986,5.5986,5.5902,5.5834,5.5716,5.5648,5.5648,5.5648,5.5631,5.5648,5.5699,5.5411,5.4905,5.4583,5.4296,5.4143,5.4262,5.4312,5.411,5.3957,5.3805,5.3551,5.3467,5.345,5.3433,5.3314,5.3161,5.294,5.257,5.2285,5.2117,5.1816,5.1564,5.1262,5.101,5.086,5.0709,5.024,4.9706,4.9425,4.9127,4.8562,6.201,6.201,6.201,6.201,6.201,6.201,6.201,6.201,6.201,6.201,6.201,6.201,6.201,6.201,6.201,6.201,6.201,6.201,6.201,6.201,6.201,6.201,6.201,6.201,6.201,6.201,6.201,6.201,6.201,6.201,6.201,6.201,6.201,6.201,6.201,6.201,6.201,6.201,6.201,6.201,6.201,6.201,6.201,6.201,6.201,6.201,6.201,6.201,6.1664,6.106,6.028,5.9462,5.8977,5.8685,5.8351,5.8154,5.79,5.79,5.79,5.79,5.79,5.79,5.79,5.79,5.7883,5.7866,5.7511,5.7511,5.7222,5.7222,5.7239,5.7239,5.7222,5.707,5.7002,5.6748,5.6596,5.6224,5.5936,5.5936,5.597,5.5936,5.5953,5.5953,5.5919,5.5564,5.5497,5.5209,5.4989,5.4989,5.4955,5.4702,5.4414,5.394,5.3636,5.3518,5.3484,5.3467,5.345,5.3331,5.3263,5.3212,5.2993,5.2724,5.269,5.2539,5.2236,5.1866,5.163,5.1428,5.1059,5.064,5.0341,4.9908,4.9376]}]]